[[{"header":{"parameterUnit":"m.s-1","parameterCategory":1,"la1":31.0,"la2":29.5877,"lo1":-88.7671,"lo2":-86.6584,"dy":0.0162,"dx":0.0185,"nx":115,"ny":88,"refTime":"2023-05-11T12:00:00:Z","depth":0,"parameterNumber":2,"parameterNumberName":"U-component_of_WINDS"},"data":[0.0,0.0,0.0,0.0,0.0,0.0,0.0,0.0,0.0,0.0,0.0,0.0,0.0,0.0,0.0,0.0,0.0,0.0,0.0,0.0,0.0,0.0,0.0,0.0,0.0,0.0,0.0,0.0,0.0,0.0,0.0,0.0,0.0,0.0,0.0,0.0,0.0,0.0,0.0,0.0,0.0,0.0,0.0,0.0,0.0,0.0,0.0,0.0,0.0,0.0,0.0,0.0,0.0,0.0,0.0,0.0,0.0,0.0,0.0,0.0,0.0,0.0,0.0,0.0,0.0,0.0,0.0,0.0,0.0,0.0,0.0,0.0,0.0,0.0,0.0,0.0,0.0,0.0,0.0,0.0,0.0,0.0,0.0,0.0,0.0,0.0,0.0,0.0,0.0,0.0,0.0,0.0,0.0,0.0,0.0,0.0,0.0,0.0,0.0,0.0,0.0,0.0,0.0,0.0,0.0,0.0,0.0,0.0,0.0,0.0,0.0,0.0,0.0,0.0,0.0,0.0,0.0,0.0,0.0,0.0,0.0,0.0,0.0,0.0,0.0,0.0,0.0,0.0,0.0,0.0,0.0,0.0,0.0,0.0,0.0,0.0,0.0,0.0,0.0,0.0,0.0,0.0,0.0,0.0,0.0,0.0,0.0,0.0,0.0,0.0,0.0,0.0,0.0,0.0,0.0,0.0,0.0,0.0,0.0,0.0,0.0,0.0,0.0,0.0,0.0,0.0,0.0,0.0,0.0,0.0,0.0,0.0,0.0,0.0,0.0,0.0,0.0,0.0,0.0,0.0,0.0,0.0,0.0,0.0,0.0,0.0,0.0,0.0,0.0,0.0,0.0,0.0,0.0,0.0,0.0,0.0,0.0,0.0,0.0,0.0,0.0,0.0,0.0,0.0,0.0,0.0,0.0,0.0,0.0,0.0,0.0,0.0,0.0,0.0,0.0,0.0,0.0,0.0,0.0,0.0,0.0,0.0,0.0,0.0,0.0,0.0,0.0,0.0,0.0,0.0,0.0,0.0,0.0,0.0,0.0,0.0,0.0,0.0,0.0,0.0,0.0,0.0,0.0,0.0,0.0,0.0,0.0,0.0,0.0,0.0,0.0,0.0,0.0,0.0,0.0,0.0,0.0,0.0,0.0,0.0,0.0,0.0,0.0,0.0,0.0,0.0,0.0,0.0,0.0,0.0,0.0,0.0,0.0,0.0,0.0,0.0,0.0,0.0,0.0,0.0,0.0,0.0,0.0,0.0,0.0,0.0,0.0,0.0,0.0,0.0,0.0,0.0,0.0,0.0,0.0,0.0,0.0,0.0,0.0,0.0,0.0,0.0,0.0,0.0,0.0,0.0,0.0,0.0,0.0,0.0,0.0,0.0,0.0,0.0,0.0,0.0,0.0,0.0,0.0,0.0,0.0,0.0,0.0,0.0,0.0,0.0,0.0,0.0,0.0,0.0,0.0,0.0,0.0,0.0,0.0,0.0,0.0,0.0,0.0,0.0,0.0,0.0,0.0,0.0,0.0,0.0,0.0,0.0,0.0,0.0,0.0,0.0,0.0,0.0,0.0,0.0,0.0,0.0,0.0,0.0,0.0,0.0,0.0,0.0,0.0,0.0,0.0,0.0,0.0,0.0,0.0,0.0,0.0,0.0,0.0,0.0,0.0,0.0,0.0,0.0,0.0,0.0,0.0,0.0,0.0,0.0,0.0,0.0,0.0,0.0,0.0,0.0,0.0,0.0,0.0,0.0,0.0,0.0,0.0,0.0,0.0,0.0,0.0,0.0,0.0,0.0,0.0,0.0,0.0,0.0,0.0,0.0,0.0,0.0,0.0,0.0,0.0,0.0,0.0,0.0,0.0,0.0,0.0,0.0,0.0,0.0,0.0,0.0,0.0,0.0,0.0,0.0,0.0,0.0,0.0,0.0,0.0,0.0,0.0,0.0,0.0,0.0,0.0,0.0,0.0,0.0,0.0,0.0,0.0,0.0,0.0,0.0,0.0,0.0,0.0,0.0,0.0,0.0,0.0,0.0,0.0,0.0,0.0,0.0,0.0,0.0,0.0,0.0,0.0,0.0,0.0,0.0,0.0,0.0,0.0,0.0,0.0,0.0,0.0,0.0,0.0,0.0,0.0,0.0,0.0,0.0,0.0,0.0,0.0,0.0,0.0,0.0,0.0,0.0,0.0,0.0,0.0,0.0,0.0,0.0,0.0,0.0,0.0,0.0,0.0,0.0,0.0,0.0,0.0,0.0,0.0,0.0,0.0,0.0,0.0,0.0,0.0,0.0,0.0,0.0,0.0,0.0,0.0,0.0,0.0,0.0,0.0,0.0,0.0,0.0,0.0,0.0,0.0,0.0,0.0,0.0,0.0,0.0,0.0,0.0,0.0,0.0,0.0,0.0,0.0,0.0,0.0,0.0,0.0,0.0,0.0,0.0,0.0,0.0,0.0,0.0,0.0,0.0,0.0,0.0,0.0,0.0,0.0,0.0,0.0,0.0,0.0,0.0,0.0,0.0,0.0,0.0,0.0,0.0,0.0,0.0,0.0,0.0,0.0,0.0,0.0,0.0,0.0,0.0,0.0,0.0,0.0,0.0,0.0,0.0,0.0,0.0,0.0,0.0,0.0,0.0,0.0,0.0,0.0,0.0,0.0,0.0,0.0,0.0,0.0,0.0,0.0,0.0,0.0,0.0,0.0,0.0,0.0,0.0,0.0,0.0,0.0,0.0,0.0,0.0,0.0,0.0,0.0,0.0,0.0,0.0,0.0,0.0,0.0,0.0,0.0,0.0,0.0,0.0,0.0,0.0,0.0,0.0,0.0,0.0,0.0,0.0,0.0,0.0,0.0,0.0,0.0,0.0,0.0,0.0,0.0,0.0,0.0,0.0,0.0,0.0,0.0,0.0,0.0,0.0,0.0,0.0,0.0,0.0,0.0,0.0,0.0,0.0,0.0,0.0,0.0,0.0,0.0,0.0,0.0,0.0,0.0,0.0,0.0,0.0,0.0,0.0,0.0,0.0,0.0,0.0,0.0,0.0,0.0,0.0,0.0,0.0,0.0,0.0,0.0,0.0,0.0,0.0,0.0,0.0,0.0,0.0,0.0,0.0,0.0,0.0,0.0,0.0,0.0,0.0,0.0,0.0,0.0,0.0,0.0,0.0,0.0,0.0,0.0,0.0,0.0,0.0,0.0,0.0,0.0,0.0,0.0,0.0,0.0,0.0,0.0,0.0,0.0,0.0,0.0,0.0,0.0,0.0,0.0,0.0,0.0,0.0,0.0,0.0,0.0,0.0,0.0,0.0,0.0,0.0,0.0,0.0,0.0,0.0,0.0,0.0,0.0,0.0,0.0,0.0,0.0,0.0,0.0,0.0,0.0,0.0,0.0,0.0,0.0,0.0,0.0,0.0,0.0,0.0,0.0,0.0,0.0,0.0,0.0,0.0,0.0,0.0,0.0,0.0,0.0,0.0,0.0,0.0,0.0,0.0,0.0,0.0,0.0,0.0,0.0,0.0,0.0,0.0,0.0,0.0,0.0,0.0,0.0,0.0,0.0,0.0,0.0,0.0,0.0,0.0,0.0,0.0,0.0,0.0,0.0,0.0,0.0,0.0,0.0,0.0,0.0,0.0,0.0,0.0,0.0,0.0,0.0,0.0,0.0,0.0,0.0,0.0,0.0,0.0,0.0,0.0,0.0,0.0,0.0,0.0,0.0,0.0,0.0,0.0,0.0,0.0,0.0,0.0,0.0,0.0,0.0,0.0,0.0,0.0,0.0,0.0,0.0,0.0,0.0,0.0,0.0,0.0,0.0,0.0,0.0,0.0,0.0,0.0,0.0,0.0,0.0,0.0,0.0,0.0,0.0,0.0,0.0,0.0,0.0,0.0,0.0,0.0,0.0,0.0,0.0,0.0,0.0,0.0,0.0,0.0,0.0,0.0,0.0,0.0,0.0,0.0,0.0,0.0,0.0,0.0,0.0,0.0,0.0,0.0,0.0,0.0,0.0,0.0,0.0,0.0,0.0,0.0,0.0,0.0,0.0,0.0,0.0,0.0,0.0,0.0,0.0,0.0,0.0,0.0,0.0,0.0,0.0,0.0,0.0,0.0,0.0,0.0,0.0,0.0,0.0,0.0,0.0,0.0,0.0,0.0,0.0,0.0,0.0,0.0,0.0,0.0,0.0,0.0,0.0,0.0,0.0,0.0,0.0,0.0,0.0,0.0,0.0,0.0,0.0,0.0,0.0,0.0,0.0,0.0,0.0,0.0,-1.7252,0.0,0.0,0.0,0.0,0.0,0.0,0.0,0.0,0.0,0.0,0.0,0.0,0.0,0.0,0.0,0.0,0.0,0.0,0.0,0.0,0.0,0.0,0.0,0.0,0.0,0.0,0.0,0.0,0.0,0.0,0.0,0.0,0.0,0.0,0.0,0.0,0.0,0.0,0.0,0.0,0.0,0.0,0.0,0.0,0.0,0.0,0.0,0.0,0.0,0.0,0.0,0.0,0.0,0.0,0.0,0.0,0.0,0.0,0.0,0.0,0.0,0.0,0.0,0.0,0.0,0.0,0.0,0.0,0.0,0.0,0.0,0.0,0.0,0.0,0.0,0.0,0.0,0.0,0.0,0.0,0.0,0.0,0.0,0.0,0.0,0.0,0.0,0.0,0.0,0.0,0.0,0.0,0.0,0.0,0.0,0.0,0.0,0.0,0.0,0.0,0.0,0.0,0.0,0.0,0.0,0.0,0.0,0.0,0.0,0.0,-1.6592,-1.8113,-1.5485,-1.5314,-1.8019,0.0,0.0,0.0,0.0,0.0,0.0,0.0,0.0,0.0,0.0,0.0,0.0,0.0,0.0,0.0,0.0,0.0,0.0,0.0,0.0,0.0,0.0,0.0,0.0,0.0,0.0,0.0,0.0,0.0,0.0,0.0,0.0,0.0,0.0,0.0,0.0,0.0,0.0,0.0,0.0,0.0,0.0,0.0,0.0,0.0,0.0,0.0,0.0,0.0,0.0,0.0,0.0,0.0,0.0,0.0,0.0,0.0,0.0,0.0,0.0,0.0,0.0,0.0,0.0,0.0,0.0,0.0,0.0,0.0,0.0,0.0,0.0,0.0,0.0,0.0,0.0,0.0,0.0,0.0,0.0,0.0,0.0,0.0,0.0,0.0,0.0,0.0,0.0,0.0,0.0,0.0,0.0,0.0,0.0,0.0,0.0,0.0,0.0,0.0,0.0,0.0,0.0,0.0,0.0,0.0,0.0,0.0,0.0,0.0,0.0,0.0,0.0,-1.6099,-1.5831,-1.8362,0.0,0.0,0.0,0.0,0.0,0.0,0.0,0.0,0.0,0.0,0.0,0.0,0.0,0.0,0.0,0.0,0.0,0.0,0.0,0.0,0.0,0.0,0.0,0.0,0.0,0.0,0.0,0.0,0.0,0.0,0.0,0.0,0.0,0.0,0.0,0.0,0.0,0.0,0.0,0.0,0.0,0.0,0.0,0.0,0.0,0.0,0.0,0.0,0.0,0.0,0.0,0.0,0.0,0.0,0.0,0.0,0.0,0.0,0.0,0.0,0.0,0.0,0.0,0.0,0.0,0.0,0.0,0.0,0.0,0.0,0.0,0.0,0.0,0.0,0.0,0.0,0.0,0.0,0.0,0.0,0.0,0.0,0.0,0.0,0.0,0.0,0.0,0.0,0.0,0.0,0.0,0.0,0.0,0.0,0.0,0.0,0.0,0.0,0.0,0.0,0.0,0.0,0.0,0.0,0.0,0.0,0.0,0.0,0.0,0.0,-1.7163,-1.7642,-1.7389,0.0,-1.7729,0.0,0.0,0.0,0.0,0.0,0.0,0.0,0.0,0.0,0.0,0.0,0.0,0.0,0.0,0.0,0.0,0.0,0.0,0.0,0.0,0.0,0.0,0.0,0.0,0.0,0.0,0.0,0.0,0.0,0.0,0.0,0.0,0.0,0.0,0.0,0.0,0.0,0.0,0.0,0.0,0.0,0.0,0.0,0.0,0.0,0.0,0.0,0.0,0.0,0.0,0.0,0.0,0.0,0.0,0.0,0.0,0.0,0.0,0.0,0.0,0.0,0.0,0.0,0.0,0.0,0.0,0.0,0.0,0.0,0.0,0.0,0.0,0.0,0.0,0.0,0.0,0.0,0.0,0.0,0.0,0.0,0.0,0.0,0.0,0.0,0.0,0.0,0.0,0.0,0.0,0.0,0.0,0.0,0.0,0.0,0.0,0.0,0.0,0.0,0.0,0.0,0.0,0.0,0.0,0.0,0.0,0.0,0.0,0.0,0.0,-1.7388,-1.8062,-1.8157,-1.8124,0.0,0.0,0.0,0.0,0.0,0.0,0.0,0.0,0.0,0.0,0.0,0.0,0.0,0.0,0.0,0.0,0.0,0.0,0.0,0.0,0.0,0.0,0.0,0.0,0.0,0.0,0.0,0.0,0.0,0.0,0.0,0.0,0.0,0.0,0.0,0.0,0.0,0.0,0.0,0.0,0.0,0.0,0.0,0.0,0.0,0.0,0.0,0.0,0.0,0.0,0.0,0.0,0.0,0.0,0.0,0.0,0.0,0.0,0.0,0.0,0.0,0.0,0.0,0.0,0.0,0.0,0.0,0.0,0.0,0.0,0.0,0.0,0.0,0.0,0.0,0.0,0.0,0.0,0.0,0.0,0.0,0.0,0.0,0.0,0.0,0.0,0.0,0.0,0.0,0.0,0.0,0.0,0.0,0.0,0.0,0.0,0.0,0.0,0.0,0.0,0.0,0.0,0.0,0.0,0.0,0.0,0.0,0.0,0.0,0.0,-1.6987,-1.747,-1.8441,-1.8384,-1.8282,-1.8208,0.0,0.0,0.0,0.0,0.0,0.0,0.0,0.0,0.0,0.0,0.0,0.0,0.0,0.0,0.0,0.0,0.0,0.0,0.0,0.0,0.0,0.0,0.0,0.0,0.0,0.0,0.0,0.0,0.0,0.0,0.0,0.0,0.0,0.0,0.0,0.0,0.0,0.0,0.0,0.0,0.0,0.0,0.0,0.0,0.0,0.0,0.0,0.0,0.0,0.0,0.0,0.0,0.0,0.0,0.0,0.0,0.0,0.0,0.0,0.0,0.0,0.0,0.0,0.0,0.0,0.0,0.0,0.0,0.0,0.0,0.0,0.0,0.0,0.0,0.0,0.0,0.0,0.0,0.0,0.0,0.0,0.0,0.0,0.0,0.0,0.0,0.0,0.0,0.0,0.0,0.0,0.0,0.0,0.0,0.0,0.0,0.0,0.0,0.0,0.0,0.0,0.0,0.0,0.0,0.0,0.0,0.0,0.0,-1.8685,-1.7452,-1.7289,-1.8401,-1.7941,-1.78,0.0,0.0,0.0,0.0,0.0,0.0,0.0,0.0,0.0,0.0,0.0,0.0,0.0,0.0,0.0,0.0,0.0,0.0,0.0,0.0,0.0,0.0,0.0,0.0,0.0,0.0,0.0,0.0,0.0,0.0,0.0,0.0,0.0,0.0,0.0,0.0,0.0,0.0,0.0,0.0,0.0,0.0,0.0,0.0,0.0,0.0,0.0,0.0,0.0,0.0,0.0,0.0,0.0,0.0,0.0,0.0,0.0,0.0,0.0,0.0,0.0,0.0,0.0,0.0,0.0,0.0,0.0,0.0,0.0,0.0,0.0,0.0,0.0,0.0,0.0,0.0,0.0,0.0,0.0,0.0,0.0,0.0,0.0,0.0,0.0,0.0,0.0,0.0,0.0,0.0,0.0,0.0,0.0,0.0,0.0,0.0,0.0,0.0,0.0,0.0,0.0,0.0,0.0,0.0,0.0,0.0,0.0,0.0,0.0,-1.682,-1.6761,-1.6888,-1.7337,-1.7605,-1.7652,0.0,0.0,0.0,0.0,0.0,0.0,0.0,0.0,0.0,0.0,0.0,0.0,0.0,0.0,0.0,0.0,0.0,0.0,0.0,0.0,0.0,0.0,0.0,0.0,0.0,0.0,0.0,0.0,0.0,0.0,0.0,0.0,0.0,0.0,0.0,0.0,0.0,0.0,0.0,0.0,0.0,0.0,0.0,0.0,0.0,0.0,0.0,0.0,0.0,0.0,0.0,0.0,0.0,0.0,0.0,0.0,0.0,0.0,0.0,0.0,0.0,0.0,0.0,0.0,0.0,0.0,0.0,0.0,0.0,0.0,0.0,0.0,0.0,0.0,0.0,0.0,0.0,0.0,0.0,0.0,0.0,0.0,0.0,0.0,0.0,0.0,0.0,0.0,0.0,0.0,0.0,0.0,0.0,0.0,0.0,0.0,0.0,0.0,0.0,0.0,0.0,0.0,0.0,0.0,0.0,0.0,0.0,0.0,0.0,-1.6045,0.0,-1.6775,-1.7,-1.7446,-1.7567,0.0,0.0,0.0,0.0,0.0,0.0,0.0,0.0,0.0,0.0,0.0,0.0,0.0,0.0,0.0,0.0,0.0,0.0,0.0,0.0,0.0,0.0,0.0,0.0,0.0,0.0,0.0,0.0,0.0,0.0,0.0,0.0,0.0,0.0,0.0,0.0,0.0,0.0,0.0,0.0,0.0,0.0,0.0,0.0,0.0,0.0,0.0,0.0,0.0,0.0,0.0,0.0,0.0,0.0,0.0,0.0,0.0,0.0,0.0,0.0,0.0,0.0,0.0,0.0,0.0,0.0,0.0,0.0,0.0,0.0,0.0,0.0,0.0,0.0,0.0,0.0,0.0,0.0,0.0,0.0,0.0,0.0,0.0,0.0,0.0,0.0,0.0,0.0,0.0,0.0,0.0,0.0,0.0,0.0,0.0,0.0,0.0,0.0,0.0,0.0,0.0,0.0,0.0,0.0,0.0,0.0,0.0,0.0,-1.6708,-1.6677,-1.6649,-1.6916,-1.7548,-1.7352,-1.7452,0.0,0.0,0.0,0.0,0.0,0.0,0.0,0.0,0.0,0.0,0.0,0.0,0.0,0.0,0.0,0.0,0.0,0.0,0.0,0.0,0.0,0.0,0.0,0.0,0.0,0.0,0.0,0.0,0.0,0.0,0.0,0.0,0.0,0.0,0.0,0.0,0.0,0.0,0.0,0.0,0.0,0.0,0.0,0.0,0.0,0.0,0.0,0.0,0.0,0.0,0.0,0.0,0.0,0.0,0.0,0.0,0.0,0.0,0.0,0.0,0.0,0.0,0.0,0.0,0.0,0.0,0.0,0.0,0.0,0.0,0.0,0.0,0.0,0.0,0.0,0.0,0.0,0.0,0.0,0.0,0.0,0.0,0.0,0.0,0.0,0.0,0.0,0.0,0.0,0.0,0.0,0.0,0.0,0.0,0.0,0.0,0.0,0.0,0.0,0.0,0.0,0.0,0.0,0.0,0.0,0.0,0.0,0.0,0.0,-1.6708,-1.6152,-1.6222,-1.6912,-1.651,-1.6572,0.0,0.0,0.0,0.0,0.0,0.0,0.0,0.0,0.0,0.0,0.0,0.0,0.0,0.0,0.0,0.0,0.0,0.0,0.0,0.0,0.0,0.0,0.0,0.0,0.0,0.0,0.0,0.0,0.0,0.0,0.0,0.0,0.0,0.0,0.0,0.0,0.0,0.0,0.0,0.0,0.0,0.0,0.0,0.0,0.0,0.0,0.0,0.0,0.0,0.0,0.0,0.0,0.0,0.0,0.0,0.0,0.0,0.0,0.0,0.0,0.0,0.0,0.0,0.0,0.0,0.0,0.0,0.0,0.0,0.0,0.0,0.0,0.0,0.0,0.0,0.0,0.0,0.0,0.0,0.0,0.0,0.0,0.0,0.0,0.0,0.0,0.0,0.0,0.0,0.0,0.0,0.0,0.0,0.0,0.0,0.0,0.0,0.0,0.0,0.0,0.0,0.0,0.0,0.0,0.0,0.0,0.0,0.0,0.0,-1.7539,-1.6405,-1.6066,-1.6624,-1.6295,-1.6214,-1.6488,0.0,0.0,0.0,0.0,0.0,0.0,0.0,0.0,0.0,0.0,0.0,0.0,0.0,0.0,0.0,0.0,0.0,0.0,0.0,0.0,0.0,0.0,0.0,0.0,0.0,0.0,0.0,0.0,0.0,0.0,0.0,0.0,0.0,0.0,0.0,0.0,0.0,0.0,0.0,0.0,0.0,0.0,0.0,0.0,0.0,0.0,0.0,0.0,0.0,0.0,0.0,0.0,0.0,0.0,0.0,0.0,0.0,0.0,0.0,0.0,0.0,0.0,0.0,0.0,0.0,0.0,0.0,0.0,0.0,0.0,0.0,0.0,0.0,0.0,0.0,0.0,0.0,0.0,0.0,0.0,0.0,0.0,0.0,0.0,0.0,0.0,0.0,0.0,0.0,0.0,0.0,0.0,0.0,0.0,0.0,0.0,0.0,0.0,0.0,0.0,0.0,0.0,0.0,0.0,0.0,0.0,0.0,0.0,-1.9084,-1.7361,-1.6546,-1.6714,-1.6609,-1.6353,0.0,0.0,0.0,0.0,0.0,0.0,0.0,0.0,0.0,0.0,0.0,0.0,0.0,0.0,0.0,0.0,0.0,0.0,0.0,0.0,0.0,0.0,0.0,0.0,0.0,0.0,0.0,0.0,0.0,0.0,0.0,0.0,0.0,0.0,0.0,0.0,0.0,0.0,0.0,0.0,0.0,0.0,0.0,0.0,0.0,0.0,0.0,0.0,0.0,0.0,0.0,0.0,0.0,0.0,0.0,0.0,0.0,0.0,0.0,0.0,0.0,0.0,0.0,0.0,0.0,0.0,0.0,0.0,0.0,0.0,0.0,0.0,0.0,0.0,0.0,0.0,0.0,0.0,0.0,0.0,0.0,0.0,0.0,0.0,0.0,0.0,0.0,0.0,0.0,0.0,0.0,0.0,0.0,0.0,0.0,0.0,0.0,0.0,0.0,0.0,0.0,0.0,0.0,0.0,0.0,0.0,0.0,0.0,0.0,-2.0044,-1.9076,-1.8617,-1.8738,-1.6986,-1.6233,0.0,0.0,0.0,0.0,0.0,0.0,0.0,0.0,0.0,0.0,0.0,0.0,0.0,0.0,0.0,0.0,0.0,0.0,0.0,0.0,0.0,0.0,0.0,0.0,0.0,0.0,0.0,0.0,0.0,0.0,0.0,0.0,0.0,0.0,0.0,0.0,0.0,0.0,0.0,0.0,0.0,0.0,0.0,0.0,0.0,0.0,0.0,0.0,0.0,0.0,0.0,0.0,0.0,0.0,0.0,0.0,0.0,0.0,0.0,0.0,0.0,0.0,0.0,0.0,0.0,0.0,0.0,0.0,0.0,0.0,0.0,0.0,0.0,0.0,0.0,0.0,0.0,0.0,0.0,0.0,0.0,0.0,0.0,0.0,0.0,0.0,0.0,0.0,0.0,0.0,0.0,0.0,0.0,0.0,0.0,0.0,0.0,0.0,0.0,0.0,0.0,0.0,0.0,0.0,0.0,0.0,0.0,0.0,-1.962,-2.0318,-2.0242,-2.0287,-2.0393,-1.8147,-1.6669,0.0,0.0,0.0,0.0,0.0,0.0,0.0,0.0,0.0,0.0,0.0,0.0,0.0,0.0,0.0,0.0,0.0,0.0,0.0,0.0,0.0,0.0,0.0,0.0,0.0,0.0,0.0,0.0,0.0,0.0,0.0,0.0,0.0,0.0,0.0,0.0,0.0,0.0,0.0,0.0,0.0,0.0,0.0,0.0,0.0,0.0,0.0,0.0,0.0,0.0,0.0,0.0,0.0,0.0,0.0,0.0,0.0,0.0,0.0,0.0,0.0,0.0,0.0,0.0,0.0,0.0,0.0,0.0,0.0,0.0,0.0,0.0,0.0,0.0,0.0,0.0,0.0,0.0,0.0,0.0,0.0,0.0,0.0,0.0,0.0,0.0,0.0,0.0,0.0,0.0,0.0,0.0,0.0,0.0,0.0,0.0,0.0,0.0,0.0,0.0,0.0,0.0,0.0,0.0,0.0,0.0,0.0,0.0,-1.9953,-2.0062,-2.0959,-2.1394,-2.1342,-1.9447,-1.7399,0.0,0.0,0.0,0.0,0.0,0.0,0.0,0.0,0.0,0.0,0.0,0.0,0.0,0.0,0.0,0.0,0.0,0.0,0.0,0.0,0.0,0.0,0.0,0.0,0.0,0.0,0.0,0.0,0.0,0.0,0.0,0.0,0.0,0.0,0.0,0.0,0.0,0.0,0.0,0.0,0.0,0.0,0.0,0.0,0.0,0.0,0.0,0.0,0.0,0.0,0.0,0.0,0.0,0.0,0.0,0.0,0.0,0.0,0.0,0.0,0.0,0.0,0.0,0.0,0.0,0.0,0.0,0.0,0.0,0.0,0.0,0.0,0.0,0.0,0.0,0.0,0.0,0.0,0.0,0.0,0.0,0.0,0.0,0.0,0.0,0.0,0.0,0.0,0.0,0.0,0.0,0.0,0.0,0.0,0.0,0.0,0.0,0.0,0.0,0.0,0.0,0.0,0.0,0.0,0.0,0.0,0.0,0.0,-1.8979,-1.9834,-2.0529,-2.0807,-2.0705,-1.8771,-1.7301,0.0,0.0,0.0,0.0,0.0,0.0,0.0,0.0,0.0,0.0,0.0,0.0,0.0,0.0,0.0,0.0,0.0,0.0,0.0,0.0,0.0,0.0,0.0,0.0,0.0,0.0,0.0,0.0,0.0,0.0,0.0,0.0,0.0,0.0,0.0,0.0,0.0,0.0,0.0,0.0,0.0,0.0,0.0,0.0,0.0,0.0,0.0,0.0,-1.2142,0.0,0.0,0.0,0.0,0.0,0.0,0.0,0.0,0.0,0.0,0.0,0.0,0.0,0.0,0.0,0.0,0.0,0.0,0.0,0.0,0.0,0.0,0.0,0.0,0.0,0.0,0.0,0.0,0.0,0.0,0.0,0.0,0.0,0.0,0.0,0.0,0.0,0.0,0.0,0.0,0.0,0.0,0.0,0.0,0.0,0.0,0.0,0.0,0.0,0.0,0.0,0.0,0.0,0.0,0.0,0.0,0.0,0.0,0.0,-1.9447,-2.057,-2.1184,-2.1433,-2.1225,-1.8722,-1.6955,0.0,0.0,0.0,0.0,0.0,0.0,0.0,0.0,0.0,0.0,0.0,0.0,0.0,0.0,0.0,0.0,0.0,0.0,0.0,0.0,0.0,0.0,0.0,0.0,0.0,0.0,0.0,0.0,0.0,0.0,0.0,0.0,0.0,0.0,0.0,0.0,0.0,0.0,0.0,0.0,0.0,0.0,0.0,0.0,0.0,0.0,0.0,0.0,0.0,0.0,0.0,0.0,0.0,0.0,0.0,0.0,0.0,0.0,0.0,0.0,0.0,0.0,0.0,0.0,0.0,0.0,0.0,0.0,0.0,0.0,0.0,0.0,0.0,0.0,0.0,0.0,0.0,0.0,0.0,0.0,0.0,0.0,0.0,0.0,0.0,0.0,0.0,0.0,0.0,0.0,0.0,0.0,0.0,0.0,0.0,0.0,0.0,0.0,0.0,0.0,0.0,0.0,0.0,0.0,0.0,0.0,0.0,-1.9133,-2.0178,-2.1198,-2.1917,-2.2086,-2.1613,-1.8682,-1.661,-1.5583,0.0,0.0,0.0,0.0,0.0,0.0,0.0,0.0,0.0,0.0,0.0,0.0,0.0,0.0,0.0,0.0,0.0,0.0,0.0,0.0,0.0,0.0,0.0,0.0,0.0,0.0,0.0,0.0,0.0,0.0,0.0,0.0,0.0,0.0,0.0,0.0,0.0,0.0,-1.3984,-1.3136,0.0,0.0,0.0,0.0,0.0,0.0,0.0,0.0,-1.1867,0.0,0.0,0.0,0.0,0.0,0.0,0.0,0.0,0.0,0.0,0.0,0.0,0.0,0.0,0.0,0.0,0.0,0.0,0.0,0.0,0.0,0.0,0.0,0.0,0.0,0.0,0.0,0.0,0.0,0.0,0.0,0.0,0.0,0.0,0.0,0.0,0.0,0.0,0.0,0.0,0.0,0.0,0.0,0.0,0.0,0.0,0.0,0.0,0.0,0.0,0.0,0.0,0.0,0.0,0.0,0.0,-1.8087,-1.8728,-1.9381,-2.0074,-2.1119,-2.0861,-1.9241,-1.7836,-1.6515,-1.5245,0.0,0.0,0.0,0.0,0.0,0.0,0.0,0.0,0.0,0.0,0.0,0.0,0.0,0.0,0.0,0.0,0.0,0.0,0.0,0.0,0.0,0.0,0.0,0.0,0.0,0.0,0.0,0.0,0.0,0.0,0.0,0.0,0.0,0.0,0.0,0.0,0.0,0.0,0.0,-1.3173,-1.2897,0.0,0.0,0.0,0.0,0.0,0.0,0.0,0.0,-1.1868,0.0,0.0,0.0,0.0,0.0,0.0,0.0,0.0,0.0,0.0,0.0,0.0,0.0,0.0,0.0,0.0,0.0,0.0,0.0,0.0,0.0,0.0,0.0,0.0,0.0,0.0,0.0,0.0,0.0,0.0,0.0,0.0,0.0,0.0,0.0,0.0,0.0,0.0,0.0,0.0,0.0,0.0,0.0,0.0,0.0,0.0,0.0,0.0,0.0,0.0,0.0,0.0,0.0,0.0,0.0,-1.8453,-1.878,-1.9473,-2.0649,-2.1224,-2.0848,-1.9526,-1.7738,-1.6362,0.0,0.0,0.0,0.0,0.0,0.0,0.0,0.0,0.0,0.0,0.0,0.0,0.0,0.0,0.0,0.0,0.0,0.0,0.0,0.0,0.0,0.0,0.0,0.0,0.0,0.0,0.0,0.0,0.0,0.0,0.0,0.0,0.0,0.0,0.0,0.0,0.0,0.0,0.0,0.0,-1.321,-1.293,-1.2189,0.0,0.0,0.0,0.0,0.0,0.0,-1.203,-1.1998,0.0,0.0,0.0,0.0,0.0,0.0,0.0,0.0,0.0,0.0,0.0,0.0,0.0,0.0,0.0,0.0,0.0,0.0,0.0,0.0,0.0,0.0,0.0,0.0,0.0,0.0,0.0,0.0,0.0,0.0,0.0,0.0,0.0,0.0,0.0,0.0,0.0,0.0,0.0,0.0,0.0,0.0,0.0,0.0,0.0,0.0,0.0,0.0,0.0,0.0,0.0,0.0,0.0,0.0,0.0,-1.8832,-1.9028,-1.9788,-2.1237,-2.129,-2.0862,-1.9913,-1.7628,-1.6209,0.0,0.0,0.0,0.0,0.0,0.0,0.0,0.0,0.0,0.0,0.0,0.0,0.0,0.0,0.0,0.0,0.0,0.0,0.0,0.0,0.0,0.0,0.0,0.0,0.0,0.0,0.0,0.0,0.0,0.0,0.0,0.0,0.0,0.0,0.0,0.0,0.0,0.0,0.0,0.0,0.0,-1.3238,-1.2427,-1.2555,0.0,0.0,0.0,0.0,-1.2234,-1.2046,0.0,0.0,0.0,0.0,0.0,0.0,0.0,0.0,0.0,0.0,0.0,0.0,0.0,0.0,0.0,0.0,0.0,0.0,0.0,0.0,0.0,0.0,0.0,0.0,0.0,0.0,0.0,0.0,0.0,0.0,0.0,0.0,0.0,0.0,0.0,0.0,0.0,0.0,0.0,0.0,0.0,0.0,0.0,0.0,0.0,0.0,0.0,0.0,0.0,0.0,0.0,0.0,0.0,0.0,0.0,0.0,-1.8885,-1.9433,-1.9986,-2.0563,-2.0615,-1.9973,-1.8656,-1.7014,-1.5835,0.0,0.0,0.0,0.0,0.0,0.0,0.0,0.0,0.0,0.0,0.0,0.0,0.0,0.0,0.0,0.0,0.0,0.0,0.0,0.0,0.0,0.0,0.0,0.0,0.0,0.0,0.0,0.0,0.0,0.0,0.0,0.0,0.0,0.0,0.0,0.0,0.0,0.0,0.0,0.0,0.0,-1.453,-1.4004,-1.3965,-1.382,0.0,0.0,-1.2879,-1.294,-1.2487,0.0,0.0,0.0,0.0,0.0,0.0,0.0,0.0,0.0,0.0,0.0,0.0,0.0,0.0,0.0,0.0,0.0,0.0,0.0,0.0,0.0,0.0,0.0,0.0,0.0,0.0,0.0,0.0,0.0,0.0,0.0,0.0,0.0,0.0,0.0,0.0,0.0,0.0,0.0,0.0,0.0,0.0,0.0,0.0,0.0,0.0,0.0,0.0,0.0,0.0,0.0,0.0,0.0,0.0,0.0,-1.7696,-1.8872,-1.9159,-1.9506,-1.9955,-1.9981,-1.9184,-1.754,-1.6322,-1.5406,0.0,0.0,0.0,0.0,0.0,0.0,0.0,0.0,0.0,0.0,0.0,0.0,0.0,0.0,0.0,0.0,0.0,0.0,0.0,0.0,0.0,0.0,0.0,0.0,0.0,0.0,0.0,0.0,0.0,0.0,0.0,0.0,0.0,0.0,0.0,0.0,0.0,0.0,0.0,0.0,0.0,0.0,-1.3903,-1.3937,0.0,0.0,0.0,-1.3406,-1.3138,0.0,0.0,0.0,0.0,0.0,0.0,0.0,0.0,0.0,0.0,0.0,0.0,0.0,0.0,0.0,0.0,0.0,0.0,0.0,0.0,0.0,0.0,0.0,0.0,0.0,0.0,0.0,0.0,0.0,0.0,0.0,0.0,0.0,0.0,0.0,0.0,0.0,0.0,0.0,0.0,0.0,0.0,0.0,0.0,0.0,0.0,0.0,0.0,0.0,0.0,0.0,0.0,0.0,0.0,0.0,0.0,0.0,-1.9024,-1.8943,-1.9082,-1.9518,-1.9391,-1.8554,-1.6997,-1.5885,0.0,0.0,0.0,0.0,0.0,0.0,0.0,0.0,0.0,0.0,0.0,0.0,0.0,0.0,0.0,0.0,0.0,0.0,0.0,0.0,0.0,0.0,0.0,0.0,0.0,0.0,0.0,-1.4036,0.0,0.0,0.0,0.0,0.0,0.0,0.0,0.0,0.0,0.0,0.0,0.0,0.0,0.0,-1.51,-1.3943,-1.3918,-1.3885,0.0,0.0,-1.3855,-1.3387,-1.3291,-1.3118,0.0,0.0,0.0,0.0,0.0,0.0,0.0,0.0,0.0,0.0,0.0,0.0,0.0,0.0,0.0,0.0,0.0,0.0,0.0,0.0,0.0,0.0,0.0,0.0,0.0,0.0,0.0,0.0,0.0,0.0,0.0,0.0,0.0,0.0,0.0,0.0,0.0,0.0,0.0,0.0,0.0,0.0,0.0,0.0,0.0,0.0,0.0,0.0,0.0,0.0,0.0,0.0,0.0,0.0,0.0,-1.9464,-1.9011,-1.8928,-1.9373,-1.8792,-1.8128,-1.7365,-1.5921,-1.5085,0.0,0.0,0.0,0.0,0.0,0.0,0.0,0.0,0.0,0.0,0.0,0.0,0.0,0.0,0.0,0.0,0.0,0.0,0.0,0.0,0.0,0.0,0.0,0.0,0.0,0.0,0.0,0.0,0.0,0.0,0.0,0.0,0.0,0.0,0.0,0.0,0.0,0.0,0.0,0.0,0.0,-1.5407,-1.4869,-1.4345,-1.4021,0.0,0.0,-1.3998,-1.3952,-1.3822,-1.3572,-1.2977,0.0,0.0,0.0,0.0,0.0,0.0,0.0,0.0,0.0,0.0,0.0,0.0,0.0,0.0,0.0,0.0,0.0,0.0,0.0,0.0,0.0,0.0,0.0,0.0,0.0,0.0,0.0,0.0,0.0,0.0,0.0,0.0,0.0,0.0,0.0,0.0,0.0,0.0,0.0,0.0,0.0,0.0,0.0,0.0,0.0,0.0,0.0,0.0,0.0,0.0,0.0,0.0,0.0,-1.8019,-1.9447,-1.8909,-1.8682,-1.878,-1.8541,-1.7752,-1.6438,-1.554,-1.4971,0.0,0.0,0.0,0.0,0.0,0.0,0.0,0.0,0.0,0.0,0.0,0.0,0.0,0.0,0.0,0.0,0.0,0.0,0.0,0.0,0.0,0.0,0.0,0.0,0.0,0.0,0.0,0.0,-1.3134,-1.317,-1.3313,0.0,0.0,0.0,0.0,0.0,0.0,0.0,0.0,0.0,0.0,-1.522,-1.4721,-1.4743,0.0,0.0,-1.457,-1.4547,-1.3871,-1.3965,-1.3858,-1.3017,-1.2929,0.0,0.0,0.0,0.0,0.0,0.0,0.0,0.0,0.0,0.0,0.0,0.0,0.0,0.0,0.0,0.0,0.0,0.0,0.0,0.0,0.0,0.0,0.0,0.0,0.0,0.0,0.0,0.0,0.0,0.0,0.0,0.0,0.0,0.0,0.0,0.0,0.0,0.0,0.0,0.0,0.0,0.0,0.0,0.0,0.0,0.0,0.0,0.0,0.0,0.0,0.0,0.0,-1.8185,-1.9556,-1.8904,-1.8499,-1.8403,-1.8369,-1.7606,-1.6069,-1.5412,-1.4949,0.0,0.0,0.0,0.0,0.0,0.0,0.0,0.0,0.0,0.0,0.0,0.0,0.0,0.0,0.0,0.0,0.0,0.0,0.0,0.0,0.0,0.0,0.0,0.0,0.0,0.0,0.0,0.0,-1.2986,-1.2912,-1.2708,0.0,0.0,0.0,0.0,0.0,0.0,0.0,0.0,0.0,0.0,-1.4971,-1.4778,-1.4766,-1.4731,-1.4617,-1.4834,-1.4777,-1.4212,-1.4095,-1.386,-1.3234,0.0,0.0,0.0,0.0,0.0,0.0,0.0,0.0,0.0,0.0,0.0,0.0,0.0,0.0,0.0,0.0,0.0,0.0,0.0,0.0,0.0,0.0,0.0,0.0,0.0,0.0,0.0,0.0,0.0,0.0,-1.8129,0.0,0.0,0.0,0.0,0.0,0.0,0.0,0.0,0.0,0.0,0.0,0.0,0.0,0.0,0.0,0.0,0.0,0.0,0.0,0.0,0.0,0.0,-1.8331,-1.994,-1.8925,-1.8403,-1.8416,-1.8262,-1.7677,-1.652,-1.5591,-1.5108,-1.5062,0.0,0.0,0.0,0.0,0.0,0.0,0.0,0.0,0.0,0.0,0.0,0.0,0.0,0.0,0.0,0.0,0.0,0.0,0.0,0.0,0.0,0.0,0.0,0.0,0.0,0.0,-1.3212,-1.3198,-1.2979,0.0,0.0,0.0,0.0,0.0,0.0,0.0,0.0,0.0,0.0,-1.4869,-1.4687,-1.5198,-1.434,-1.4048,-1.5073,-1.472,-1.4525,-1.5085,-1.4294,-1.361,0.0,0.0,0.0,0.0,0.0,0.0,0.0,0.0,0.0,0.0,0.0,0.0,0.0,0.0,0.0,0.0,0.0,0.0,0.0,0.0,0.0,0.0,0.0,0.0,0.0,0.0,0.0,-1.9271,-1.9208,0.0,0.0,0.0,0.0,0.0,0.0,0.0,0.0,0.0,0.0,0.0,-2.0138,-1.995,0.0,0.0,0.0,0.0,0.0,0.0,0.0,0.0,0.0,0.0,0.0,0.0,-1.8591,-1.9762,-1.8817,-1.8451,-1.878,-1.8392,-1.7852,-1.7112,-1.6104,-1.5266,-1.4651,0.0,0.0,0.0,0.0,0.0,0.0,0.0,0.0,0.0,0.0,0.0,0.0,0.0,0.0,0.0,0.0,0.0,0.0,0.0,0.0,0.0,0.0,0.0,0.0,0.0,-1.3515,0.0,0.0,0.0,0.0,0.0,0.0,0.0,0.0,0.0,0.0,0.0,-1.3965,-1.471,-1.4283,-1.4061,-1.4582,-1.4294,-1.4095,0.0,0.0,0.0,0.0,0.0,0.0,0.0,0.0,0.0,0.0,0.0,0.0,0.0,0.0,-1.3104,-1.342,-1.3467,-1.3467,-1.3467,0.0,0.0,0.0,0.0,0.0,0.0,0.0,0.0,0.0,0.0,0.0,0.0,0.0,0.0,0.0,0.0,-1.9885,0.0,0.0,0.0,0.0,0.0,0.0,0.0,0.0,-2.0688,-2.1242,-2.1769,-2.1606,-2.1794,0.0,-2.1192,-2.0225,0.0,0.0,0.0,0.0,0.0,0.0,0.0,0.0,-1.892,-1.9723,-1.8932,-1.8644,-1.897,-1.8657,-1.8229,-1.7677,-1.6845,-1.6009,-1.5201,-1.5066,-1.4885,0.0,0.0,0.0,0.0,0.0,0.0,0.0,0.0,0.0,0.0,0.0,0.0,0.0,0.0,0.0,0.0,0.0,0.0,0.0,0.0,0.0,0.0,0.0,-1.3416,0.0,0.0,0.0,0.0,0.0,0.0,0.0,0.0,0.0,-1.4478,-1.3858,-1.3631,-1.434,-1.4107,-1.4071,-1.4743,0.0,0.0,0.0,0.0,0.0,0.0,0.0,-1.3549,-1.3416,-1.3104,-1.2915,-1.2915,-1.2915,-1.2915,-1.2915,0.0,0.0,-1.3296,-1.3368,-1.3368,-1.3358,-1.3182,-1.2972,-1.2689,-1.204,-1.1578,0.0,0.0,0.0,0.0,0.0,0.0,0.0,0.0,-2.0799,-2.1362,0.0,-2.1149,0.0,0.0,0.0,0.0,0.0,-2.1794,0.0,0.0,-2.2832,-2.2857,-2.246,-2.2907,-2.2895,-2.2435,-2.2385,-2.2071,-2.1468,-1.9409,0.0,0.0,0.0,0.0,0.0,0.0,-1.9309,-1.9811,-1.9321,-1.9058,-1.9083,-1.9045,-1.8757,-1.8216,-1.7738,-1.7266,-1.6726,-1.631,-1.5951,-1.5609,-1.5212,0.0,0.0,0.0,0.0,0.0,0.0,0.0,0.0,0.0,0.0,0.0,0.0,0.0,0.0,0.0,0.0,0.0,0.0,0.0,0.0,-1.3172,0.0,0.0,0.0,0.0,0.0,0.0,0.0,0.0,0.0,0.0,-1.4423,-1.411,-1.3984,-1.4337,0.0,0.0,0.0,0.0,-1.5244,-1.5672,-1.538,-1.5256,-1.5638,-1.4558,-1.3776,-1.4188,0.0,0.0,-1.2915,-1.2915,-1.2905,-1.2929,-1.2929,-1.2915,-1.2954,-1.2954,-1.2929,-1.2929,-1.292,-1.2758,-1.234,-1.2213,-1.2074,-2.4883,0.0,0.0,0.0,0.0,-2.343,-2.376,-2.3852,-2.3561,-2.3424,-2.3391,-2.2305,0.0,0.0,0.0,0.0,0.0,0.0,-2.2493,-2.2895,-2.3489,-2.3835,-2.4104,-2.4236,-2.4424,-2.4619,-2.3879,-2.3439,-2.3213,-2.1832,-2.0815,-2.0226,0.0,0.0,0.0,0.0,-1.9861,-2.0402,-2.0302,-2.0226,-2.0226,-1.9798,-1.9133,-1.8229,-1.8073,-1.7774,-1.729,-1.674,-1.631,-1.5956,-1.5512,0.0,0.0,0.0,0.0,0.0,0.0,0.0,0.0,0.0,0.0,0.0,0.0,0.0,0.0,0.0,0.0,0.0,0.0,0.0,-1.3338,-1.3618,-1.3746,0.0,0.0,0.0,0.0,0.0,0.0,0.0,0.0,0.0,-1.5275,-1.5317,-1.5321,0.0,0.0,-1.4971,-1.5267,-1.5163,-1.5152,-1.5283,-1.5199,0.0,0.0,-1.4415,-1.4048,-1.3847,-1.3573,-1.3296,-1.2954,-1.2915,-1.3017,-1.3334,-1.3128,-1.2992,-1.332,-1.3138,-1.2929,-1.2915,-1.2915,-1.2876,-1.2715,-1.2437,-1.2302,-2.7621,-2.5339,-2.47,-2.4455,-2.4509,-2.5058,-2.5311,-2.5331,-2.5062,-2.4987,-2.5004,-2.4054,-2.3491,-2.3317,-2.294,0.0,0.0,0.0,-2.3916,-2.4469,-2.4808,-2.5159,-2.546,-2.5485,-2.5636,-2.5887,-2.5046,-2.4531,-2.4305,-2.3427,-2.2648,-2.1986,0.0,0.0,-2.1006,-2.0666,-2.0639,-2.1006,-2.1018,-2.0918,-2.0679,-2.0126,-1.9497,-1.8869,-1.8844,-1.8709,-1.8412,-1.7559,-1.7014,-1.6797,-1.6002,-1.5555,0.0,0.0,0.0,0.0,0.0,0.0,0.0,0.0,0.0,0.0,0.0,-1.396,-1.396,0.0,0.0,0.0,-1.3911,-1.3765,-1.3534,-1.3927,0.0,0.0,0.0,0.0,0.0,0.0,0.0,-1.4526,-1.467,-1.4995,-1.5674,-1.6361,-1.6652,-1.6269,-1.5947,-1.5809,-1.5986,0.0,-1.57,-1.5688,-1.57,-1.5536,-1.5036,-1.4937,-1.4687,-1.3975,-1.3871,-1.38,-1.3525,-1.3454,-1.3573,-1.3776,-1.3658,-1.3549,-1.3813,-1.3644,-1.3392,-1.3224,-1.3344,-1.3454,-1.3454,-1.3216,-1.3137,-3.0143,-2.9013,-2.7542,-2.6487,-2.5862,-2.6465,-2.6333,-2.5685,-2.5774,-2.6186,-2.6756,-2.6043,-2.5852,-2.6067,-2.5298,0.0,-2.5724,-2.5737,-2.6013,-2.6625,-2.6625,-2.6625,-2.6625,-2.6575,-2.6562,-2.6549,-2.5937,-2.5423,-2.4926,-2.4406,-2.413,-2.4079,-2.2535,-2.176,-2.1681,-2.1644,-2.1619,-2.1619,-2.1631,-2.1355,-2.083,-2.0176,-1.9823,-1.9874,-1.9823,-1.9798,-1.9773,-1.8647,-1.7972,-1.7852,-1.6549,-1.5769,-1.5701,0.0,0.0,0.0,0.0,0.0,0.0,0.0,0.0,0.0,0.0,0.0,0.0,0.0,0.0,0.0,-1.441,0.0,-1.3783,-1.4103,0.0,0.0,0.0,-1.4277,-1.4202,-1.4182,-1.4172,-1.4202,0.0,0.0,-1.5756,-1.7038,-1.7653,-1.6853,-1.6767,-1.6956,-1.7339,-1.6991,-1.6715,-1.6656,-1.6679,-1.6452,-1.5818,-1.5719,-1.5403,-1.4533,-1.4374,-1.434,-1.4258,-1.4258,-1.4271,-1.4374,-1.4328,-1.4328,-1.4351,-1.4351,-1.4212,-1.3834,-1.4001,-1.4281,-1.4235,-1.4213,-1.4204,-3.1675,-3.1361,-3.0557,-2.9088,-2.7379,-2.8313,-2.8425,-2.7902,-2.773,-2.7693,-2.7713,-2.6993,-2.6567,-2.6405,-2.6176,-2.6364,-2.6879,-2.6879,-2.718,-2.7695,-2.7708,-2.772,-2.7682,-2.7281,-2.7115,-2.709,-2.6549,-2.6223,-2.6072,-2.5498,-2.5222,-2.5184,-2.4431,-2.3816,-2.3401,-2.2962,-2.2706,-2.2706,-2.2719,-2.2443,-2.1907,-2.0539,-2.0012,-2.0465,-2.0037,-1.9798,-1.9798,-1.9109,-1.8471,-1.7907,-1.7129,-1.6389,-1.573,-1.5643,0.0,0.0,0.0,0.0,0.0,0.0,0.0,0.0,0.0,-1.4486,-1.4635,0.0,-1.4433,0.0,-1.4715,-1.4644,-1.4202,-1.4575,0.0,0.0,-1.4427,-1.4503,-1.5029,-1.4824,-1.4756,-1.504,-1.53,-1.5646,-1.609,-1.6483,-1.6809,-1.7048,-1.7508,-1.7744,-1.7471,-1.7651,-1.7676,-1.7279,-1.7183,-1.6884,-1.6045,-1.5533,-1.5246,-1.496,-1.4892,-1.4777,-1.4374,-1.4305,-1.4444,-1.4777,-1.4559,-1.4501,-1.4823,-1.4915,-1.4869,-1.4731,-1.4513,-1.4305,-1.4305,-1.4328,-1.4433,-3.2441,-3.2202,-3.2164,-3.1094,-2.9437,-2.9811,-2.9661,-2.9174,-2.9009,-2.8873,-2.8637,-2.8002,-2.7814,-2.7945,-2.7419,-2.7668,-2.836,-2.8134,-2.8185,-2.8436,-2.8473,-2.8348,-2.8084,-2.7544,-2.7329,-2.7304,-2.6763,-2.6487,-2.6474,-2.6172,-2.6009,-2.6009,-2.5686,-2.5398,-2.5071,-2.4293,-2.3735,-2.3484,-2.2995,-2.2594,-2.2297,-2.1167,-2.0729,-2.1031,-2.0489,-2.0214,-2.0188,-1.9426,-1.8735,-1.8192,-1.7625,-1.6903,-1.6019,-1.5989,-1.5841,0.0,0.0,0.0,0.0,0.0,0.0,0.0,0.0,0.0,0.0,0.0,-1.4949,-1.5032,-1.5307,-1.5369,-1.5133,-1.533,-1.5527,-1.5625,-1.5145,-1.513,-1.6026,-1.5706,-1.5649,-1.6138,-1.6197,-1.633,-1.6669,-1.695,-1.723,-1.7562,-1.8157,-1.8343,-1.7838,-1.7798,-1.7686,-1.7471,-1.7387,-1.7135,-1.6327,-1.5764,-1.5413,-1.5401,-1.5401,-1.5311,-1.5028,-1.496,-1.5062,-1.5334,-1.5176,-1.504,-1.5368,-1.5401,-1.5401,-1.5379,-1.5164,-1.4994,-1.4971,-1.4983,-1.5085,-3.278,-3.2378,-3.2867,-3.2466,-3.1461,-3.1009,-3.047,-2.9892,-2.9892,-2.9713,-2.9381,-2.896,-2.9162,-2.9716,-2.8762,-2.8863,-2.9741,-2.9277,-2.9001,-2.9001,-2.9001,-2.8787,-2.831,-2.7758,-2.7494,-2.7505,-2.6901,-2.66,-2.66,-2.6524,-2.6487,-2.6487,-2.6487,-2.6487,-2.6449,-2.5511,-2.4695,-2.4004,-2.2949,-2.238,-2.241,-2.1882,-2.1594,-2.1568,-2.1066,-2.0727,-2.0679,-1.9785,-1.8998,-1.8453,-1.8027,-1.7341,-1.6407,-1.6317,-1.6078,0.0,-1.6009,0.0,0.0,0.0,0.0,0.0,0.0,0.0,0.0,-1.5761,-1.5761,-1.5761,-1.5969,-1.6114,-1.6173,-1.6173,-1.6309,-1.6629,-1.6087,-1.5959,-1.6755,-1.6562,-1.6492,-1.7008,-1.7095,-1.7101,-1.7199,-1.7673,-1.8011,-1.7984,-1.8298,-1.8451,-1.8143,-1.7751,-1.7482,-1.7422,-1.7267,-1.6907,-1.6464,-1.6045,-1.577,-1.5792,-1.577,-1.5814,-1.577,-1.5748,-1.5792,-1.5792,-1.5736,-1.577,-1.5814,-1.5792,-1.5792,-1.577,-1.5726,-1.5726,-1.5714,-1.5726,-1.5814,-3.3018,-3.2918,-3.3031,-3.2679,-3.2051,-3.1951,-3.1361,-3.0417,-3.0246,-2.9893,-2.9419,-2.9538,-2.9653,-2.9767,-2.9566,-2.9603,-2.9779,-2.9679,-2.9628,-2.9616,-2.9628,-2.9578,-2.944,-2.8888,-2.8624,-2.8524,-2.7607,-2.7165,-2.7153,-2.6713,-2.6487,-2.6487,-2.6487,-2.6487,-2.6487,0.0,0.0,0.0,-2.3283,-2.2945,-2.2932,-2.2418,-2.2146,-2.2146,-2.1465,0.0,-2.0715,-2.0649,-1.9845,-1.8299,-1.8295,0.0,0.0,0.0,0.0,0.0,0.0,0.0,0.0,0.0,0.0,0.0,-1.6564,-1.6421,-1.6197,-1.6098,-1.6038,-1.6038,-1.6076,-1.6211,-1.6572,-1.658,-1.6609,-1.6689,-1.6799,-1.6705,-1.6367,-1.6398,-1.6446,-1.6327,-1.6521,-1.68,-1.7222,-1.7418,-1.7556,-1.7628,-1.7545,-1.7699,-1.8093,-1.8061,-1.7862,-1.7471,-1.6763,-1.6139,-1.596,-1.5852,-1.5814,-1.5814,-1.5814,-1.5814,-1.5814,-1.5814,-1.5814,-1.5814,-1.5814,-1.5814,-1.5814,-1.5814,-1.5814,-1.5814,-1.5814,-1.5814,-1.5814,-1.5814,-1.5814,-3.3124,0.0,-3.3124,-3.2948,0.0,-3.234,-3.175,-3.0984,-3.0588,-3.0124,-2.9611,-2.974,-2.9779,-2.9779,-2.9779,-2.9779,-2.9779,-2.9779,-2.9779,-2.9779,-2.9779,-2.9779,-2.9767,-2.9164,-2.8888,-2.885,-2.8097,-2.7695,-2.7657,-2.713,-2.6901,-2.6901,-2.6637,-2.6487,-2.6487,-2.6197,-2.5498,-2.4418,-2.3534,-2.3095,-2.3095,-2.2832,-2.2664,-2.2593,0.0,0.0,0.0,0.0,0.0,0.0,0.0,0.0,0.0,0.0,0.0,-1.6738,-1.6914,-1.7031,-1.7061,-1.7227,-1.7246,-1.707,-1.7061,-1.6897,-1.6519,-1.6458,-1.6484,-1.6731,-1.7045,-1.7256,-1.7328,-1.7459,-1.7506,-1.735,-1.6988,-1.6739,-1.684,-1.7139,-1.7288,-1.7223,-1.7935,-1.8464,-1.8115,-1.8378,-1.8451,-1.8232,-1.8131,-1.8174,-1.8444,-1.8298,-1.7979,-1.747,-1.6751,-1.6114,-1.5852,-1.5814,-1.5814,-1.5814,-1.5814,-1.5814,-1.5814,-1.5814,-1.5814,-1.5814,-1.5814,-1.5814,-1.5814,-1.5814,-1.5814,-1.5814,-1.5814,-1.5814,-1.5814,-1.5814,-1.5814,-3.3124,-3.3124,-3.3124,-3.3124,-3.3074,-3.2566,-3.1989,-3.1348,0.0,0.0,0.0,-2.9829,-2.9779,-2.9779,-2.9779,-2.9779,-2.9779,-2.9779,-2.9779,-2.9779,-2.9779,-2.9779,-2.9767,-2.9302,-2.9089,-2.9013,-2.8511,-2.826,-2.8222,-2.7695,-2.7419,-2.7381,-2.6914,-2.6587,-2.6461,-2.5921,-2.5385,-2.4901,-2.3923,-2.3358,-2.3258,-2.3258,-2.316,-2.2909,-2.2444,-2.207,-2.18,-2.1423,-2.0959,-2.0435,-1.9991,-1.9395,-1.8659,-1.7963,-1.7431,-1.7172,-1.7582,-1.7822,-1.7627,-1.8105,-1.8154,-1.7562,-1.7568,-1.7458,-1.7044,-1.6877,-1.7056,-1.754,-1.7983,-1.8145,-1.8051,-1.8339,-1.8488,-1.8287,-1.759,-1.7409,-1.7935,-1.8359,-1.856,-1.8576,-1.9502,-2.0121,-1.9308,-1.948,-1.9628,-1.9214,-1.9013,-1.9066,-1.8975,-1.8499,-1.7897,-1.7302,-1.6775,-1.6391,-1.5958,-1.5814,-1.5814,-1.5814,-1.5814,-1.5814,-1.5814,-1.5814,-1.5814,-1.5814,-1.5814,-1.5814,-1.5814,-1.5814,-1.5814,-1.5814,-1.5814,-1.5814,-1.5814,-1.5814,-1.5814,-3.3124,-3.3124,-3.3124,-3.3124,-3.3068,-3.2993,-3.2365,-3.1323,-3.0344,-3.0131,-3.0457,-3.0005,-2.9779,-2.9779,-2.9779,-2.9779,-2.9779,-2.9779,-2.9779,0.0,-2.9779,-2.9779,-2.9779,-2.9704,-2.9679,-2.9628,-2.9089,-2.8775,-2.8725,-2.8223,-2.7984,-2.7921,-2.7444,-2.6964,-2.6487,-2.5921,-2.5561,-2.5473,-2.4895,-2.4324,-2.3891,-2.3866,-2.3548,-2.2934,-2.2725,-2.2333,-2.1825,-2.1964,-2.1458,-2.0211,-1.9699,-1.9469,-1.9469,-1.8231,-1.7797,-1.8553,-1.7919,-1.7754,-1.8379,-1.791,-1.7666,-1.792,-1.8217,-1.8364,-1.8156,-1.7633,-1.7575,-1.8156,-1.7906,-1.7747,-1.82,-1.8849,-1.927,-1.9388,-1.9914,-2.0159,-1.9582,-1.9821,-1.9878,-1.9617,-1.9685,-1.9941,-1.9936,-1.9791,-1.9633,-1.9511,-1.9356,-1.9302,-1.9097,-1.8602,-1.7793,-1.6967,-1.6655,-1.6379,-1.5946,-1.5814,-1.5814,-1.5814,-1.5814,-1.5814,-1.5814,-1.5814,-1.5814,-1.5814,-1.5814,-1.5814,-1.5814,-1.5814,-1.5814,-1.5814,-1.5814,-1.5814,-1.5814,-1.5814,-1.5814,-3.3345,-3.3136,-3.3124,-3.3124,-3.3056,-3.2742,-3.2152,-3.1336,-3.057,-3.0206,-3.0143,-2.9905,-2.9779,-2.9779,-2.9779,-2.9779,-2.9779,-2.9779,-2.9779,-2.9779,-2.9779,-2.9779,-2.9779,-2.9779,-2.9779,-2.9767,-2.9528,-2.939,-2.9352,-2.8825,-2.8524,-2.8499,-2.7635,-2.6966,-2.6611,-2.6146,-2.5872,-2.5744,-2.5037,-2.4384,-2.3848,-2.3772,-2.3387,-2.2659,-2.2824,-2.2677,-2.2049,-2.2392,-2.2195,-2.1272,-2.0917,-2.0673,-2.0457,-1.9727,-1.9218,-1.9011,-1.8771,-1.8694,-1.8801,-1.8849,-1.8935,-1.911,-1.8937,-1.9122,-1.9844,-1.8874,-1.8393,-1.8733,-1.9189,-1.9479,-1.9332,-2.0042,-2.0398,-2.002,-2.0236,-2.0251,-2.0044,-2.0412,-2.0529,-2.0203,-2.0522,-2.0645,-2.0238,-1.9995,-1.9715,-1.9547,-1.9447,-1.9342,-1.921,-1.8697,-1.8004,-1.7219,-1.7027,-1.6667,-1.5994,-1.5814,-1.5814,-1.5814,-1.5814,-1.5814,-1.5814,-1.5814,-1.5814,-1.5814,-1.5814,-1.5814,-1.5814,-1.5814,-1.5814,-1.5814,-1.5814,-1.5814,-1.5814,-1.5814,-1.5814,-3.3684,-3.3124,-3.3124,-3.3124,-3.3031,-3.2591,-3.2089,-3.1537,-3.1022,-3.0482,-3.0005,-2.9854,-2.9779,-2.9779,-2.9779,-2.9779,-2.9779,-2.9779,-2.9779,-2.9779,-2.9779,-2.9779,-2.9779,-2.9779,-2.9779,-2.9779,-2.9779,-2.9779,-2.9729,-2.934,-2.9013,-2.8825,-2.7864,-2.7222,-2.693,-2.6507,-2.6235,-2.6033,-2.5204,-2.4505,-2.4018,-2.383,-2.3352,-2.2688,-2.3082,-2.3054,-2.2469,-2.2915,-2.2919,-2.2407,-2.2075,-2.1717,-2.1351,-2.0939,-2.0346,-1.9581,-1.9679,-1.963,-1.9339,-1.9808,-2.0128,-2.0107,-1.9691,-1.9834,-2.0635,-2.0085,-1.9529,-1.9628,-2.0398,-2.0698,-2.0128,-2.0858,-2.1239,-2.0472,-2.0549,-2.0715,-2.0638,-2.1119,-2.1332,-2.1002,-2.1414,-2.1375,-2.068,-2.0168,-1.9809,-1.9533,-1.942,-1.9342,-1.9174,-1.8748,-1.8176,-1.7738,-1.7412,-1.6835,-1.5994,-1.5814,-1.5814,-1.5814,-1.5814,-1.5814,-1.5814,-1.5814,-1.5814,-1.5814,-1.5814,-1.5814,-1.5814,-1.5814,-1.5814,-1.5814,-1.5814,-1.5814,-1.5814,-1.5814,-1.5814,-3.4035,-3.3187,-3.3136,-3.3124,-3.3111,-3.3048,-3.2654,-3.2089,-3.1562,-3.1022,-3.052,-3.0018,-2.9804,-2.9779,-2.9779,-2.9779,-2.9779,-2.9779,-2.9779,-2.9779,-2.9779,-2.9779,-2.9779,-2.9779,-2.9779,-2.9779,-2.9779,-2.9792,-2.9779,-2.9729,-2.9402,-2.8938,-2.8612,-2.8151,-2.768,-2.6991,-2.6635,-2.6587,-2.587,-2.5355,-2.4964,-2.4591,-2.3976,-2.3162,-2.3628,-2.3599,-2.2975,-2.3412,-2.3493,-2.2935,-2.2318,-2.1978,-2.1969,-2.0916,-2.041,-2.0828,-2.0378,-2.0031,-2.002,-2.0154,-2.0276,-2.0151,-2.0533,-2.061,-2.0367,-2.0805,-2.1092,-2.0901,-2.0516,-2.0161,-1.9562,-2.0677,-2.1282,-2.0878,-2.1713,-2.264,-2.25,-2.2792,-2.2887,-2.285,-2.2039,-2.145,-2.1234,-2.0418,-1.9768,-1.9563,-1.9473,-1.9394,-1.92,-1.8774,-1.8358,-1.8003,-1.7351,-1.6559,-1.5994,-1.5814,-1.5814,-1.5814,-1.5814,-1.5814,-1.5814,-1.5814,-1.5814,-1.5814,-1.5814,-1.5814,-1.5814,-1.5814,-1.5814,-1.5814,-1.5814,-1.5814,-1.5814,-1.5814,-1.5814,-3.4562,-3.3589,-3.3262,-3.3124,-3.3124,-3.3124,-3.2742,-3.2202,-3.1976,-3.1574,-3.1047,-3.052,-3.0105,-2.9792,-2.9779,-2.9779,-2.9779,-2.9779,-2.9779,-2.9779,-2.9779,-2.9779,-2.9779,-2.9779,-2.9779,-2.9779,-2.9779,-2.9714,-2.9599,-2.956,-2.9319,-2.8852,-2.8556,-2.8171,-2.7748,-2.7224,-2.6931,-2.6809,-2.6444,-2.6077,-2.5643,-2.4913,-2.4199,-2.3688,-2.4041,-2.4032,-2.3589,-2.3974,-2.3977,-2.3508,-2.3447,-2.3342,-2.3159,-2.2612,-2.2057,-2.1594,-2.1028,-2.0709,-2.0677,-2.1136,-2.142,-2.1328,-2.1158,-2.1105,-2.1308,-2.14,-2.1482,-2.1776,-2.162,-2.1325,-2.1092,-2.1726,-2.2037,-2.1827,-2.2242,-2.2665,-2.2769,-2.2739,-2.2744,-2.2877,-2.2314,-2.1718,-2.1291,-2.0339,-1.9626,-1.9512,-1.9499,-1.9447,-1.9305,-1.8851,-1.8457,-1.816,-1.7556,-1.6907,-1.6367,-1.596,-1.584,-1.5814,-1.5814,-1.5814,-1.5814,-1.5814,-1.5814,-1.5814,-1.5814,-1.5814,-1.5814,-1.5814,-1.5814,-1.5814,-1.5814,-1.5814,-1.5814,-1.5814,-1.5814,-3.5127,-3.411,-3.3533,-3.3262,-3.3124,-3.3124,-3.2842,-3.2441,-3.229,-3.1989,-3.1574,-3.106,-3.0608,-3.0244,-3.0093,-2.9942,-2.9829,-2.9955,-2.993,-2.9804,-2.9779,-2.9753,-2.9689,-2.9689,-2.9663,-2.9624,-2.9585,-2.9495,-2.9353,-2.9314,-2.9145,-2.8861,-2.857,-2.8271,-2.799,-2.7595,-2.7279,-2.7103,-2.6882,-2.6566,-2.6046,-2.5348,-2.4638,-2.4085,-2.447,-2.4506,-2.4013,-2.4458,-2.4506,-2.4025,-2.4326,-2.429,-2.3842,-2.3806,-2.3323,-2.2299,-2.1645,-2.1368,-2.14,-2.1726,-2.1999,-2.2123,-2.1694,-2.1722,-2.2173,-2.1965,-2.2024,-2.2669,-2.2559,-2.2266,-2.2111,-2.2432,-2.2555,-2.2254,-2.2347,-2.2574,-2.2678,-2.2574,-2.2635,-2.2781,-2.234,-2.1758,-2.1011,-2.0037,-1.9342,-1.9368,-1.9382,-1.9434,-1.9242,-1.8824,-1.8444,-1.8363,-1.7857,-1.7219,-1.6703,-1.6331,-1.6008,-1.5804,-1.5814,-1.5814,-1.5814,-1.5814,-1.5814,-1.5814,-1.5814,-1.5814,-1.5814,-1.5814,-1.5814,-1.5814,-1.5814,-1.5814,-1.5814,-1.5814,-1.5814,-3.568,-3.4663,-3.4085,-3.3571,-3.3136,-3.3149,-3.3124,-3.3006,-3.2491,-3.2215,-3.2072,-3.1599,-3.1336,-3.126,-3.0794,-3.0306,-2.9942,-3.0369,-3.0331,-2.9917,-2.9867,-2.9688,-2.9419,-2.9419,-2.9351,-2.9357,-2.9342,-2.9268,-2.918,-2.9116,-2.9104,-2.904,-2.8861,-2.8755,-2.8618,-2.7999,-2.7681,-2.7633,-2.7214,-2.6671,-2.619,-2.6057,-2.548,-2.4675,-2.4987,-2.4987,-2.4614,-2.4987,-2.4988,-2.4506,-2.4508,-2.4326,-2.3902,-2.383,-2.3556,-2.2966,-2.2285,-2.1975,-2.2032,-2.167,-2.1584,-2.2092,-2.2301,-2.2483,-2.2714,-2.2525,-2.2713,-2.361,-2.2868,-2.2254,-2.198,-2.2383,-2.242,-2.1889,-2.2427,-2.2726,-2.2708,-2.2757,-2.28,-2.2665,-2.2179,-2.1477,-2.0453,-1.9656,-1.9295,-1.922,-1.9131,-1.909,-1.9044,-1.8606,-1.8545,-1.8604,-1.8121,-1.7231,-1.6763,-1.6499,-1.6283,-1.5994,-1.5814,-1.5814,-1.5814,-1.5814,-1.5814,-1.5814,-1.5814,-1.5814,-1.5814,-1.5814,-1.5814,-1.5814,-1.5814,-1.5814,-1.5814,-1.5814,-1.5814,-3.5717,-3.4688,-3.4123,-3.3972,-3.4085,-3.3759,-3.3608,-3.3583,-3.3395,-3.2995,-3.2521,-3.2081,-3.1747,-3.1455,-3.1448,-3.1226,-3.0859,-3.1035,-3.0997,-3.0821,-3.0713,-3.058,-3.0487,-3.0313,-3.0191,-3.0122,-3.0122,-2.9845,-2.9447,-2.9394,-2.9184,-2.8773,-2.8764,-2.8724,-2.8581,-2.8357,-2.8222,-2.8162,-2.7666,-2.7294,-2.7055,-2.6454,-2.5889,-2.5552,-2.5372,-2.5228,-2.5023,-2.5216,-2.5216,-2.5035,-2.5011,-2.4939,-2.4747,-2.4422,-2.4025,-2.3556,-2.3275,-2.3004,-2.2747,-2.2798,-2.2614,-2.2274,-2.2898,-2.3039,-2.2681,-2.2752,-2.3113,-2.3416,-2.3113,-2.277,-2.3034,-2.2887,-2.2555,-2.2285,-2.2512,-2.2769,-2.272,-2.2739,-2.2781,-2.2676,-2.1987,-2.1178,-2.0806,-2.0089,-1.9504,-1.9279,-1.9434,-1.947,-1.9177,-1.8923,-1.8861,-1.8917,-1.8674,-1.8241,-1.77,-1.6967,-1.6451,-1.6054,-1.5814,-1.5826,-1.5826,-1.5814,-1.5814,-1.5814,-1.5814,-1.5814,-1.5814,-1.5814,-1.5814,-1.5814,-1.5814,-1.5814,-1.5814,-1.5814,-1.5814,-3.583,-3.5002,-3.4587,-3.4492,-3.4618,-3.4324,-3.4116,-3.4027,-3.4027,-3.3594,-3.2928,-3.2617,-3.224,-3.1927,-3.2179,-3.2084,-3.1743,-3.1556,-3.1369,-3.1194,-3.1042,-3.096,-3.0848,-3.0682,-3.0545,-3.0492,-3.0504,-3.0243,-2.9791,-2.9557,-2.9262,-2.8787,-2.8754,-2.8657,-2.851,-2.851,-2.851,-2.8426,-2.811,-2.7909,-2.7618,-2.7007,-2.6526,-2.6309,-2.6009,-2.5697,-2.5576,-2.5408,-2.5408,-2.5516,-2.5408,-2.5312,-2.5276,-2.4963,-2.4554,-2.4085,-2.4001,-2.3785,-2.3396,-2.3601,-2.3448,-2.2843,-2.3348,-2.3493,-2.2991,-2.322,-2.3579,-2.3843,-2.3555,-2.3541,-2.3901,-2.3473,-2.2843,-2.2623,-2.2696,-2.2751,-2.2708,-2.2739,-2.28,-2.2688,-2.2029,-2.1436,-2.1207,-2.0584,-2.0072,-1.97,-1.9882,-1.9749,-1.9494,-1.9228,-1.9117,-1.9013,-1.9001,-1.865,-1.8217,-1.758,-1.7099,-1.6703,-1.5934,-1.5886,-1.5886,-1.5862,-1.5814,-1.5814,-1.5814,-1.5814,-1.5814,-1.5814,-1.5814,-1.5814,-1.5814,-1.5814,-1.5814,-1.5814,-1.5814,-3.6044,-3.5533,-3.5483,-3.5169,-3.4843,-3.4731,-3.4545,-3.4351,-3.4318,-3.3884,-3.3224,-3.3207,-3.2911,-3.2565,-3.2884,-3.2879,-3.2388,-3.1841,-3.138,-3.0979,-3.0847,-3.0776,-3.062,-3.0615,-3.0477,-3.0338,-3.02,-3.0176,-3.0116,-2.967,-2.9352,-2.922,-2.8751,-2.8546,-2.8546,-2.8546,-2.851,-2.8498,-2.845,-2.8194,-2.7801,-2.7606,-2.733,-2.6958,-2.6813,-2.6561,-2.6154,-2.5673,-2.5648,-2.5937,-2.5612,-2.5336,-2.5324,-2.5264,-2.5047,-2.4626,-2.4496,-2.4278,-2.3902,-2.3878,-2.3938,-2.3673,-2.3818,-2.4059,-2.4049,-2.3962,-2.4165,-2.4717,-2.4396,-2.4168,-2.4502,-2.3969,-2.3324,-2.2972,-2.291,-2.28,-2.2739,-2.2787,-2.2848,-2.2695,-2.2167,-2.1832,-2.1567,-2.1115,-2.0693,-2.0439,-2.0217,-1.9977,-1.9836,-1.9474,-1.911,-1.9062,-1.9037,-1.8806,-1.8494,-1.8169,-1.7857,-1.746,-1.6499,-1.5994,-1.603,-1.6018,-1.585,-1.5814,-1.5814,-1.5814,-1.5814,-1.5814,-1.5814,-1.5814,-1.5814,-1.5814,-1.5814,-1.5814,-1.5814,-3.6304,-3.6069,-3.5658,-3.568,-3.578,-3.5269,-3.4981,-3.4888,-3.4749,-3.4198,-3.3585,-3.3661,-3.3484,-3.3159,-3.3326,-3.3302,-3.2971,-3.245,-3.205,-3.1847,-3.1644,-3.1534,-3.1459,-3.1342,-3.1255,-3.1211,-3.1211,-3.1019,-3.0633,-3.0098,-2.9833,-2.9689,-2.8943,-2.8727,-2.8991,-2.8715,-2.851,-2.851,-2.851,-2.8414,-2.8234,-2.7897,-2.7594,-2.7426,-2.7102,-2.6958,-2.7164,-2.6669,-2.6334,-2.6142,-2.5937,-2.5685,-2.5396,-2.5312,-2.5228,-2.5095,-2.5071,-2.4831,-2.4422,-2.459,-2.447,-2.4131,-2.4398,-2.4458,-2.4133,-2.4206,-2.4444,-2.4873,-2.4393,-2.4265,-2.4695,-2.4307,-2.3724,-2.3355,-2.3004,-2.2763,-2.2708,-2.2739,-2.28,-2.2768,-2.23,-2.1933,-2.1884,-2.1587,-2.1236,-2.0911,-2.08,-2.0742,-2.0374,-1.9868,-1.9579,-1.9567,-1.9302,-1.8977,-1.8722,-1.8494,-1.8241,-1.7845,-1.7027,-1.6355,-1.6307,-1.6151,-1.5982,-1.585,-1.5838,-1.5838,-1.5838,-1.5814,-1.5814,-1.5814,-1.5814,-1.5814,-1.5814,-1.5862,-1.5934,-3.6518,-3.6631,-3.6081,-3.6169,-3.6584,-3.5953,-3.5541,-3.5352,-3.5164,-3.4621,-3.3902,-3.3922,-3.3732,-3.3449,-3.3604,-3.358,-3.3272,-3.2923,-3.2638,-3.2398,-3.2042,-3.1906,-3.1893,-3.1761,-3.1705,-3.1705,-3.1705,-3.1548,-3.1199,-3.0651,-3.0374,-3.0206,-2.9316,-2.8955,-2.922,-2.8799,-2.851,-2.851,-2.851,-2.851,-2.845,-2.8186,-2.8017,-2.793,-2.7654,-2.7666,-2.7981,-2.7642,-2.726,-2.6731,-2.6358,-2.5853,-2.5372,-2.5312,-2.5312,-2.5312,-2.5288,-2.5143,-2.4879,-2.5083,-2.5071,-2.4602,-2.4951,-2.5059,-2.453,-2.4675,-2.4841,-2.4897,-2.4737,-2.4709,-2.5076,-2.4633,-2.4065,-2.3737,-2.3222,-2.2862,-2.2764,-2.2708,-2.2739,-2.2707,-2.2443,-2.23,-2.2221,-2.2179,-2.186,-2.1533,-2.1444,-2.1373,-2.0844,-2.0225,-2.0013,-1.9724,-1.9326,-1.9098,-1.9001,-1.8794,-1.859,-1.8133,-1.7543,-1.7027,-1.6763,-1.6451,-1.6211,-1.603,-1.597,-1.5982,-1.5948,-1.5862,-1.5814,-1.5814,-1.5862,-1.5814,-1.585,-1.6114,-1.6199,-3.6759,-3.7123,-3.6719,-3.6772,-3.7136,-3.6646,-3.6075,-3.5693,-3.5536,-3.4943,-3.4198,-3.4137,-3.3849,-3.3597,-3.3921,-3.3885,-3.3452,-3.3356,-3.3104,-3.2644,-3.2211,-3.1934,-3.1874,-3.1765,-3.1705,-3.1705,-3.1705,-3.1693,-3.1597,-3.1091,-3.0891,-3.0838,-2.9893,-2.934,-2.9328,-2.8835,-2.8582,-2.8522,-2.851,-2.851,-2.851,-2.8486,-2.8474,-2.8462,-2.8414,-2.8402,-2.8402,-2.8366,-2.8134,-2.7645,-2.6647,-2.5889,-2.5468,-2.5336,-2.5312,-2.5312,-2.5312,-2.5348,-2.5324,-2.5111,-2.5218,-2.5324,-2.5182,-2.5276,-2.5156,-2.5155,-2.5204,-2.5216,-2.5192,-2.5286,-2.5343,-2.4983,-2.4452,-2.4032,-2.3373,-2.2901,-2.269,-2.2684,-2.2794,-2.277,-2.2727,-2.2757,-2.2733,-2.2678,-2.2457,-2.2268,-2.194,-2.1626,-2.1337,-2.0779,-2.0069,-1.972,-1.9531,-1.9206,-1.9098,-1.8977,-1.8758,-1.8554,-1.8061,-1.7664,-1.7183,-1.6823,-1.6619,-1.6415,-1.6175,-1.6163,-1.6068,-1.5994,-1.597,-1.6008,-1.5972,-1.5874,-1.609,-1.6475,-1.6583,-3.7663,-3.7764,-3.7638,-3.7663,-3.7652,-3.7005,-3.6526,-3.6149,-3.5514,-3.5041,-3.4619,-3.4583,-3.4462,-3.4438,-3.4486,-3.4498,-3.4306,-3.3922,-3.3754,-3.3538,-3.3104,-3.2635,-3.2238,-3.1853,-3.1717,-3.1705,-3.1705,-3.1705,-3.1669,-3.1199,-3.1139,-3.1452,-3.041,-2.9881,-2.9797,-2.9352,-2.8883,-2.8558,-2.8522,-2.8522,-2.851,-2.851,-2.851,-2.851,-2.851,-2.851,-2.851,-2.851,-2.827,-2.7705,-2.6683,-2.6057,-2.5889,-2.5576,-2.5396,-2.536,-2.5372,-2.5504,-2.5625,-2.5015,-2.5002,-2.5852,-2.505,-2.4719,-2.5276,-2.5312,-2.5312,-2.5312,-2.5312,-2.5312,-2.5323,-2.5191,-2.4807,-2.43,-2.3308,-2.2532,-2.2534,-2.2703,-2.2965,-2.3035,-2.3079,-2.3093,-2.3082,-2.2806,-2.2506,-2.2396,-2.2207,-2.1982,-2.1735,-2.1356,-2.067,-2.0273,-2.0001,-1.9507,-1.9182,-1.9074,-1.8977,-1.8891,-1.8578,-1.8241,-1.7748,-1.7267,-1.7183,-1.7099,-1.6667,-1.6547,-1.6343,-1.6175,-1.6223,-1.6284,-1.6391,-1.6427,-1.6799,-1.7183,-1.7159,-3.7954,-3.8129,-3.7817,-3.7842,-3.8029,-3.717,-3.6652,-3.6321,-3.566,-3.5126,-3.4872,-3.4775,-3.4775,-3.4775,-3.4775,-3.4775,-3.4703,-3.4222,-3.3994,-3.3898,-3.3477,-3.2984,-3.2527,-3.2118,-3.1946,-3.1705,-3.1717,-3.1705,-3.1669,-3.138,-3.1452,-3.15,-3.0874,-3.0422,-3.0386,-2.9893,-2.9364,-2.8955,-2.8835,-2.8763,-2.8534,-2.851,-2.851,-2.851,-2.851,-2.851,-2.851,-2.851,-2.8258,-2.7678,-2.7115,-2.6683,-2.6442,-2.6141,-2.5889,-2.5709,-2.5841,-2.6033,-2.5925,-2.5335,-2.52,-2.5496,-2.4636,-2.4442,-2.4671,-2.4791,-2.4874,-2.5276,-2.5276,-2.5312,-2.5264,-2.5119,-2.4843,-2.441,-2.3316,-2.2674,-2.2823,-2.2963,-2.3164,-2.3313,-2.3284,-2.3159,-2.3318,-2.2792,-2.2505,-2.2389,-2.2328,-2.223,-2.2108,-2.1692,-2.1308,-2.0863,-2.0458,-2.0001,-1.9627,-1.9471,-1.9218,-1.9107,-1.8999,-1.8686,-1.8217,-1.7724,-1.7604,-1.7484,-1.7147,-1.6895,-1.6763,-1.6631,-1.6583,-1.6691,-1.6835,-1.7039,-1.7339,-1.76,-1.7601,-3.8078,-3.8412,-3.7688,-3.7762,-3.8263,-3.7394,-3.6801,-3.6383,-3.588,-3.5308,-3.4884,-3.4775,-3.4775,-3.4775,-3.4775,-3.4775,-3.4763,-3.4354,-3.4174,-3.4018,-3.3765,-3.332,-3.2863,-3.2659,-3.2298,-3.1982,-3.1849,-3.1825,-3.1789,-3.1729,-3.1741,-3.1621,-3.1211,-3.097,-3.079,-3.0405,-2.9881,-2.934,-2.9208,-2.8955,-2.8607,-2.851,-2.851,-2.851,-2.851,-2.851,-2.851,-2.8486,-2.8294,-2.7798,-2.7726,-2.7378,-2.7006,-2.6946,-2.6645,-2.6346,-2.6526,-2.6597,-2.6333,-2.6114,-2.5686,-2.5177,-2.4585,-2.4064,-2.4059,-2.4059,-2.4403,-2.4981,-2.5158,-2.5123,-2.5228,-2.4833,-2.4608,-2.4486,-2.3737,-2.3472,-2.371,-2.3457,-2.3288,-2.377,-2.3445,-2.328,-2.3079,-2.2839,-2.2462,-2.234,-2.2309,-2.2247,-2.218,-2.1897,-2.1596,-2.1284,-2.0875,-2.0506,-2.0181,-1.9904,-1.9591,-1.9363,-1.9302,-1.9049,-1.8614,-1.8217,-1.8025,-1.7832,-1.7651,-1.7531,-1.7423,-1.7291,-1.7075,-1.7135,-1.7301,-1.7434,-1.7627,-1.7831,-1.7908,-3.8985,-3.9072,-3.865,-3.8558,-3.8598,-3.8032,-3.7326,-3.6685,-3.6173,-3.549,-3.4895,-3.4775,-3.4775,-3.4775,-3.4775,-3.4775,-3.4811,-3.4667,-3.4619,-3.4643,-3.4583,-3.4186,-3.3693,-3.3332,-3.2839,-3.2515,-3.2755,-3.2524,-3.203,-3.2082,-3.207,-3.1705,-3.1621,-3.1332,-3.0958,-3.0826,-3.0218,-2.9484,-2.934,-2.9124,-2.8715,-2.857,-2.8546,-2.8522,-2.851,-2.851,-2.851,-2.851,-2.845,-2.827,-2.793,-2.7666,-2.7498,-2.7174,-2.691,-2.6813,-2.6849,-2.7042,-2.7098,-2.6455,-2.5716,-2.5545,-2.4764,-2.4023,-2.3298,-2.3558,-2.388,-2.4282,-2.4337,-2.46,-2.4945,-2.4554,-2.4507,-2.4671,-2.4484,-2.4314,-2.4687,-2.4145,-2.3914,-2.4169,-2.4218,-2.4037,-2.3694,-2.3184,-2.2742,-2.2392,-2.2259,-2.2228,-2.2125,-2.1998,-2.1776,-2.1506,-2.1194,-2.0801,-2.061,-2.0286,-1.9913,-1.959,-1.9451,-1.9257,-1.8851,-1.856,-1.8289,-1.8265,-1.8289,-1.8157,-1.7977,-1.7676,-1.7387,-1.7575,-1.7759,-1.7879,-1.8007,-1.8157,-1.8148,-3.8998,-3.8828,-3.8566,-3.8514,-3.8546,-3.8057,-3.7417,-3.6779,-3.6244,-3.5574,-3.4907,-3.4775,-3.4775,-3.4775,-3.4787,-3.4931,-3.516,-3.5135,-3.5003,-3.4871,-3.4751,-3.4619,-3.4414,-3.409,-3.3657,-3.3056,-3.3116,-3.2779,-3.2394,-3.2491,-3.2454,-3.1813,-3.1958,-3.1801,-3.1368,-3.1259,-3.0874,-3.0254,-3.0025,-2.9785,-2.9328,-2.8991,-2.8703,-2.8558,-2.851,-2.851,-2.851,-2.851,-2.851,-2.8438,-2.8234,-2.8077,-2.8026,-2.7786,-2.7546,-2.7318,-2.7534,-2.7558,-2.749,-2.7079,-2.6496,-2.6046,-2.5076,-2.4174,-2.3413,-2.3221,-2.3194,-2.3461,-2.361,-2.3793,-2.4168,-2.4337,-2.4373,-2.4542,-2.4622,-2.4736,-2.5047,-2.4614,-2.4326,-2.4675,-2.4604,-2.441,-2.4037,-2.3508,-2.3107,-2.271,-2.2313,-2.2258,-2.203,-2.1916,-2.1868,-2.1651,-2.1396,-2.1155,-2.0985,-2.0682,-2.0249,-1.9901,-1.9552,-1.9308,-1.892,-1.8697,-1.8494,-1.8447,-1.8332,-1.8528,-1.835,-1.8049,-1.7891,-1.8237,-1.8434,-1.8419,-1.8345,-1.8315,-1.8285,-3.8631,-3.8356,-3.8092,-3.8133,-3.8218,-3.7785,-3.72,-3.6678,-3.6157,-3.5513,-3.4895,-3.4775,-3.4775,-3.4775,-3.4775,-3.51,-3.5364,-3.5545,-3.5304,-3.4859,-3.4775,-3.4739,-3.4667,-3.4558,-3.4294,-3.3585,-3.3633,-3.3272,-3.2923,-3.3044,-3.2935,-3.2178,-3.225,-3.219,-3.191,-3.1693,-3.1344,-3.0783,-3.073,-3.0458,-3.0013,-2.9581,-2.9184,-2.8787,-2.8546,-2.8522,-2.851,-2.851,-2.851,-2.851,-2.851,-2.851,-2.851,-2.8486,-2.8223,-2.7705,-2.8016,-2.8028,-2.7707,-2.7588,-2.7356,-2.6508,-2.5394,-2.4219,-2.3438,-2.277,-2.2615,-2.2686,-2.2846,-2.292,-2.3032,-2.35,-2.3891,-2.4195,-2.4413,-2.4821,-2.506,-2.4787,-2.4694,-2.5071,-2.4963,-2.4723,-2.4338,-2.3869,-2.3481,-2.3083,-2.2686,-2.2335,-2.213,-2.1914,-2.1957,-2.1635,-2.1311,-2.1202,-2.1063,-2.0966,-2.0564,-2.003,-1.9692,-1.9292,-1.8959,-1.8702,-1.8481,-1.8305,-1.8283,-1.8401,-1.8472,-1.822,-1.8306,-1.8821,-1.8632,-1.8143,-1.8155,-1.8402,-1.8282,-3.8473,-3.8356,-3.8092,-3.8039,-3.8019,-3.7525,-3.6943,-3.6413,-3.5945,-3.5316,-3.4859,-3.4775,-3.4775,-3.4775,-3.4775,-3.4859,-3.5051,-3.5364,-3.5328,-3.4847,-3.4775,-3.4775,-3.4775,-3.4763,-3.4631,-3.4607,-3.4414,-3.3982,-3.3452,-3.3597,-3.3489,-3.3032,-3.2683,-3.243,-3.2226,-3.1913,-3.1476,-3.1103,-3.1007,-3.0742,-3.0326,-2.9977,-2.9617,-2.91,-2.8727,-2.8534,-2.8471,-2.851,-2.851,-2.851,-2.851,-2.8471,-2.8431,-2.8431,-2.8028,-2.7648,-2.7832,-2.7872,-2.7485,-2.7881,-2.7371,-2.636,-2.5628,-2.4322,-2.2951,-2.2128,-2.214,-2.1968,-2.209,-2.2209,-2.2957,-2.3058,-2.3452,-2.3965,-2.4601,-2.505,-2.5063,-2.4732,-2.4495,-2.4957,-2.5003,-2.5023,-2.4638,-2.4302,-2.3953,-2.3661,-2.336,-2.3047,-2.2795,-2.2496,-2.2273,-2.1771,-2.1175,-2.1121,-2.106,-2.1042,-2.08,-2.0148,-1.9682,-1.9183,-1.8874,-1.8641,-1.8401,-1.7948,-1.7846,-1.7961,-1.803,-1.8178,-1.8468,-1.8807,-1.8311,-1.7767,-1.7918,-1.8081,-1.7849,-3.8303,-3.8198,-3.8039,-3.7974,-3.789,-3.7421,-3.6892,-3.6362,-3.5845,-3.5316,-3.4895,-3.4775,-3.4775,-3.4775,-3.4775,-3.4775,-3.4907,-3.5376,-3.5292,-3.4871,-3.4775,-3.4775,-3.4775,-3.4775,-3.4775,-3.4763,-3.4727,-3.4414,-3.3754,-3.4162,-3.3958,-3.3368,-3.3008,-3.2791,-3.243,-3.1937,-3.1621,-3.1344,-3.1296,-3.1199,-3.085,-3.0446,-2.9833,-2.9328,-2.8835,-2.8546,-2.8431,-2.7978,-2.8099,-2.8311,-2.8047,-2.7886,-2.7805,-2.7765,-2.7644,-2.7267,-2.7174,-2.7255,-2.7174,-2.7644,-2.7325,-2.6712,-2.6121,-2.4933,-2.338,-2.2577,-2.2014,-2.16,-2.1235,-2.1318,-2.168,-2.2145,-2.2537,-2.301,-2.3938,-2.46,-2.46,-2.4312,-2.442,-2.4647,-2.4506,-2.4625,-2.5023,-2.4711,-2.4434,-2.4181,-2.3986,-2.3688,-2.3403,-2.3108,-2.2737,-2.1705,-2.0997,-2.0504,-2.0568,-2.0653,-2.0576,-2.0041,-1.9591,-1.9082,-1.8649,-1.8354,-1.7761,-1.7184,-1.7254,-1.7748,-1.8045,-1.838,-1.8601,-1.8782,-1.86,-1.8324,-1.793,-1.772,-1.7535,-3.8198,-3.7974,-3.7974,-3.7974,-3.789,-3.7409,-3.6964,-3.6507,-3.6014,-3.5509,-3.5003,-3.51,-3.5064,-3.4895,-3.4979,-3.5051,-3.4944,-3.5461,-3.5437,-3.4871,-3.4775,-3.4775,-3.4775,-3.4775,-3.4775,-3.4775,-3.4763,-3.4558,-3.4294,-3.451,-3.4282,-3.3813,-3.3513,-3.3116,-3.2647,-3.2034,-3.1849,-3.1837,-3.1729,-3.1717,-3.1476,-3.0759,-3.0062,-2.9581,-2.9015,-2.8703,-2.8647,-2.7771,-2.7655,-2.7765,-2.747,-2.6928,-2.6887,-2.6764,-2.667,-2.6547,-2.608,-2.6299,-2.6629,-2.6887,-2.6835,-2.6547,-2.5955,-2.485,-2.3721,-2.2579,-2.2051,-2.1455,-2.1036,-2.0869,-2.1094,-2.1446,-2.1776,-2.2134,-2.3047,-2.3891,-2.3902,-2.3793,-2.3793,-2.3902,-2.3891,-2.4135,-2.4472,-2.5095,-2.4819,-2.4771,-2.4542,-2.3936,-2.3676,-2.357,-2.302,-2.1741,-2.0775,-1.9977,-1.9846,-2.0084,-1.99,-1.9523,-1.9188,-1.8787,-1.8367,-1.7994,-1.7439,-1.711,-1.7588,-1.8072,-1.8341,-1.8415,-1.8423,-1.8589,-1.8907,-1.8709,-1.7984,-1.7582,-1.741,-3.8039,-3.7974,-3.7974,-3.7974,-3.7902,-3.7421,-3.7168,-3.7012,-3.6483,-3.6014,-3.5569,-3.5918,-3.5641,-3.5208,-3.5773,-3.5593,-3.5364,-3.5653,-3.5689,-3.4967,-3.4859,-3.4835,-3.4775,-3.4775,-3.4775,-3.4775,-3.4775,-3.4751,-3.4631,-3.4715,-3.4727,-3.4414,-3.3717,-3.3248,-3.3128,-3.2391,-3.1994,-3.2238,-3.1982,-3.1729,-3.1609,-3.1091,-3.0723,-3.0386,-2.9725,-2.9054,-2.8784,-2.7743,-2.7226,-2.7133,-2.6453,-2.5997,-2.583,-2.52,-2.4914,-2.5041,-2.5368,-2.5872,-2.5955,-2.5955,-2.5955,-2.583,-2.52,-2.4028,-2.3138,-2.2476,-2.2021,-2.1875,-2.1416,-2.1133,-2.1135,-2.1513,-2.1724,-2.1983,-2.2499,-2.3021,-2.3132,-2.3095,-2.3095,-2.3132,-2.3095,-2.3489,-2.3881,-2.4613,-2.5216,-2.5192,-2.5037,-2.4377,-2.3723,-2.3468,-2.2869,-2.1484,-2.0432,-1.963,-1.9308,-1.9528,-1.942,-1.9085,-1.8918,-1.86,-1.8231,-1.7902,-1.7766,-1.7645,-1.8015,-1.8102,-1.8091,-1.8102,-1.8142,-1.8339,-1.8634,-1.8279,-1.7719,-1.748,-1.7398,-3.7974,-3.7974,-3.7974,-3.7974,-3.7902,-3.7409,-3.7204,-3.7084,-3.6627,-3.6278,-3.6122,-3.6278,-3.5978,-3.5533,-3.5821,-3.5701,-3.5437,-3.5809,-3.5761,-3.5364,-3.5232,-3.51,-3.4823,-3.4775,-3.4775,-3.4775,-3.4775,-3.4775,-3.4775,-3.4775,-3.4775,-3.4655,-3.4126,-3.3729,-3.3609,-3.2947,-3.2803,-3.2743,-3.243,-3.1985,-3.1657,-3.1223,-3.0934,-3.0886,-2.9857,-2.9165,-2.838,-2.719,-2.6475,-2.6246,-2.5537,-2.5073,-2.4999,-2.4701,-2.437,-2.3734,-2.4026,-2.4488,-2.4956,-2.5031,-2.5073,-2.5031,-2.4659,-2.4063,-2.3061,-2.25,-2.2236,-2.2236,-2.1855,-2.1502,-2.1268,-2.1372,-2.1281,-2.1468,-2.1949,-2.2134,-2.2322,-2.2322,-2.2322,-2.2322,-2.236,-2.2686,-2.301,-2.3404,-2.4097,-2.4517,-2.4506,-2.4187,-2.3351,-2.2659,-2.192,-2.0933,-2.0048,-1.9244,-1.9069,-1.9059,-1.9059,-1.8866,-1.9,-1.866,-1.8202,-1.792,-1.7871,-1.7842,-1.7976,-1.7975,-1.7838,-1.8068,-1.837,-1.8369,-1.8313,-1.8071,-1.7851,-1.7795,-1.7754,-3.7974,-3.7974,-3.7974,-3.7974,-3.795,-3.7553,-3.7397,-3.7348,-3.7012,-3.6747,-3.6579,-3.6483,-3.6242,-3.6098,-3.6074,-3.6062,-3.5833,-3.5942,-3.5797,-3.5713,-3.5557,-3.5292,-3.4919,-3.4775,-3.4775,-3.4775,-3.4775,-3.4775,-3.4775,-3.4775,-3.4775,-3.4739,-3.4198,-3.3982,-3.3838,-3.3464,-3.314,-3.2911,-3.2803,-3.2346,-3.1777,-3.1344,-3.1187,-3.0783,-3.0073,-2.9071,-2.8119,-2.666,-2.5872,-2.5326,-2.4616,-2.4155,-2.4112,-2.4026,-2.3777,-2.3353,-2.3387,-2.356,-2.3983,-2.4155,-2.4284,-2.437,-2.4155,-2.3714,-2.326,-2.2779,-2.2623,-2.2623,-2.2285,-2.1904,-2.1611,-2.1416,-2.1154,-2.1134,-2.1255,-2.1397,-2.1576,-2.1766,-2.1728,-2.1576,-2.1652,-2.1728,-2.1983,-2.2134,-2.2723,-2.3599,-2.3818,-2.3829,-2.3113,-2.2124,-2.1418,-2.0653,-2.0139,-1.939,-1.9122,-1.8939,-1.88,-1.8779,-1.8923,-1.8809,-1.839,-1.8213,-1.811,-1.8115,-1.8096,-1.7988,-1.7939,-1.8312,-1.861,-1.8358,-1.8168,-1.8221,-1.8137,-1.8076,-1.8018,-3.7974,-3.7974,-3.7974,-3.7974,-3.7974,-3.7938,-3.7914,-3.7853,-3.7829,-3.7529,-3.7108,-3.6723,-3.6759,-3.6904,-3.6867,-3.6699,-3.6374,-3.6855,-3.6423,-3.5905,-3.5581,-3.5291,-3.4955,-3.4775,-3.4775,-3.4775,-3.4775,-3.4775,-3.4775,-3.4775,-3.4775,-3.4703,-3.4342,-3.4102,-3.3946,-3.3777,-3.3296,-3.308,-3.302,-3.2635,-3.2042,-3.1657,-3.1597,-3.1336,-3.0584,-2.9623,-2.8714,-2.677,-2.537,-2.4699,-2.3884,-2.344,-2.343,-2.343,-2.3266,-2.3178,-2.3101,-2.3222,-2.3396,-2.3484,-2.3744,-2.395,-2.382,-2.3353,-2.3125,-2.3091,-2.3033,-2.2955,-2.2646,-2.2451,-2.2129,-2.1807,-2.1445,-2.1242,-2.1184,-2.1065,-2.1257,-2.1443,-2.1405,-2.1011,-2.0972,-2.1165,-2.1165,-2.1395,-2.1945,-2.2824,-2.301,-2.3058,-2.2649,-2.1805,-2.1261,-2.067,-2.0285,-1.9779,-1.9343,-1.9193,-1.9187,-1.9088,-1.9112,-1.8958,-1.8688,-1.8529,-1.8481,-1.8389,-1.835,-1.8174,-1.8057,-1.836,-1.8458,-1.8159,-1.8042,-1.81,-1.8193,-1.8149,-1.8115,-3.7974,-3.7974,-3.7974,-3.7974,-3.7974,-3.7974,-3.7974,-3.7974,-3.7974,-3.789,-3.7649,-3.7469,-3.73,-3.724,-3.7204,-3.7108,-3.6928,-3.7072,-3.6699,-3.6338,-3.6038,-3.5593,-3.5148,-3.4811,-3.4775,-3.4835,-3.4787,-3.4775,-3.4775,-3.4775,-3.4775,-3.4679,-3.4522,-3.4534,-3.4366,-3.4186,-3.3885,-3.3477,-3.3284,-3.2875,-3.2322,-3.1849,-3.1705,-3.1621,-3.0291,-2.9302,-2.8187,-2.6411,-2.5114,-2.4186,-2.3491,-2.3237,-2.3101,-2.3101,-2.3101,-2.3101,-2.3101,-2.3101,-2.3101,-2.3101,-2.3309,-2.3396,-2.3309,-2.3101,-2.3101,-2.3101,-2.3101,-2.3023,-2.2945,-2.2803,-2.2441,-2.2207,-2.1931,-2.1631,-2.1328,-2.1055,-2.1076,-2.134,-2.1337,-2.1066,-2.0869,-2.0828,-2.076,-2.0683,-2.1357,-2.2021,-2.2172,-2.2209,-2.1842,-2.1527,-2.0971,-2.0671,-2.0356,-2.0026,-1.9617,-1.9551,-1.957,-1.9482,-1.9375,-1.9228,-1.9102,-1.9053,-1.8975,-1.8809,-1.8711,-1.8701,-1.8633,-1.8506,-1.8369,-1.8193,-1.8076,-1.8008,-1.8086,-1.8232,-1.833,-3.7974,-3.7974,-3.7974,-3.7974,-3.7974,-3.7974,-3.7974,-3.7974,-3.7974,-3.7974,-3.7974,-3.7962,-3.7793,-3.7493,-3.7445,-3.7457,-3.7433,-3.7421,-3.7096,-3.6759,-3.6374,-3.5966,-3.5387,-3.4991,-3.4871,-3.4968,-3.4859,-3.4775,-3.4775,-3.4775,-3.4775,-3.4775,-3.4763,-3.4751,-3.4751,-3.4739,-3.4522,-3.4006,-3.3658,-3.326,-3.2743,-3.2418,-3.209,-3.1836,-3.0522,-2.9216,-2.8031,-2.6422,-2.4972,-2.4148,-2.3516,-2.3247,-2.3149,-2.3101,-2.3101,-2.3101,-2.3101,-2.3101,-2.3101,-2.3101,-2.3101,-2.3222,-2.3178,-2.3101,-2.3101,-2.3101,-2.3101,-2.3091,-2.3071,-2.2964,-2.2666,-2.2519,-2.2344,-2.2012,-2.167,-2.1416,-2.1377,-2.154,-2.1381,-2.1163,-2.1105,-2.1164,-2.1056,-2.0996,-2.1006,-2.1478,-2.1357,-2.1433,-2.1318,-2.1029,-2.0719,-2.0544,-2.0448,-2.0145,-1.9862,-1.9969,-2.0067,-2.0057,-1.9893,-1.9697,-1.958,-1.9521,-1.9355,-1.9111,-1.9082,-1.9238,-1.915,-1.8926,-1.8613,-1.8266,-1.8262,-1.8271,-1.8379,-1.8555,-1.875,-3.7974,-3.7974,-3.7974,-3.7974,-3.7974,-3.7974,-3.7974,-3.7974,-3.7974,-3.7974,-3.7974,-3.7974,-3.7962,-3.789,-3.7841,-3.7829,-3.7829,-3.7853,-3.7589,-3.7084,-3.6723,-3.6423,-3.599,-3.5545,-3.5267,-3.5351,-3.5292,-3.51,-3.4847,-3.4968,-3.4931,-3.4775,-3.4775,-3.4775,-3.4775,-3.4775,-3.4498,-3.409,-3.4006,-3.3622,-3.3158,-3.2872,-3.2492,-3.1677,-3.0434,-2.8998,-2.7982,-2.6403,-2.5073,-2.4234,-2.3799,-2.3535,-2.3291,-2.313,-2.3101,-2.3101,-2.3101,-2.3101,-2.3101,-2.3101,-2.3101,-2.3101,-2.3101,-2.3101,-2.3101,-2.3101,-2.3101,-2.3101,-2.3091,-2.3091,-2.2916,-2.275,-2.2607,-2.2422,-2.209,-2.1855,-2.1816,-2.165,-2.1514,-2.1445,-2.1701,-2.1848,-2.166,-2.1475,-2.1084,-2.0968,-2.0722,-2.0654,-2.079,-2.0702,-2.0537,-2.0527,-2.0527,-2.0429,-2.0253,-2.0419,-2.0517,-2.0527,-2.041,-2.0127,-2.0,-1.9941,-1.9727,-1.9434,-1.9502,-1.9697,-1.9521,-1.9287,-1.9004,-1.875,-1.8627,-1.8637,-1.8769,-1.8916,-1.915,-3.7974,-3.7974,-3.7974,-3.7974,-3.7974,-3.7974,-3.7974,-3.7974,-3.7974,-3.7974,-3.7974,-3.7974,-3.7974,-3.7974,-3.7974,-3.7974,-3.7974,-3.7962,-3.7697,-3.7228,-3.6976,-3.6699,-3.6362,-3.611,-3.5942,-3.605,-3.5881,-3.5581,-3.5364,-3.5352,-3.5051,-3.4883,-3.4799,-3.4775,-3.4775,-3.4775,-3.4655,-3.4474,-3.4162,-3.3589,-3.2827,-3.2368,-3.1852,-3.1018,-2.9577,-2.8554,-2.792,-2.6366,-2.5166,-2.4565,-2.4219,-2.3769,-2.3506,-2.3325,-2.311,-2.3101,-2.3101,-2.3101,-2.3101,-2.3101,-2.3101,-2.3101,-2.3101,-2.3101,-2.3101,-2.3101,-2.3101,-2.3101,-2.3101,-2.3101,-2.3023,-2.2984,-2.2867,-2.2808,-2.2598,-2.2373,-2.2227,-2.1963,-2.1818,-2.1799,-2.1926,-2.1934,-2.1875,-2.1855,-2.1543,-2.1221,-2.1025,-2.0811,-2.084,-2.0742,-2.0595,-2.0586,-2.0586,-2.0595,-2.0635,-2.082,-2.085,-2.0801,-2.0683,-2.0478,-2.04,-2.0352,-2.0244,-2.0039,-2.0088,-2.0127,-1.9961,-1.9775,-1.9482,-1.9268,-1.9219,-1.9121,-1.9131,-1.9346,-1.9592,-3.7974,-3.7974,-3.7974,-3.7974,-3.7974,-3.7974,-3.7974,-3.7974,-3.7974,-3.7974,-3.7974,-3.7974,-3.7974,-3.7974,-3.7974,-3.7974,-3.7974,-3.7962,-3.7914,-3.7445,-3.724,-3.7132,-3.6952,-3.6615,-3.6471,-3.6555,-3.6447,-3.617,-3.5893,-3.5881,-3.5617,-3.5171,-3.4871,-3.4787,-3.4775,-3.4775,-3.4568,-3.4339,-3.3979,-3.3558,-3.2687,-3.2003,-3.1645,-3.0428,-2.9189,-2.8097,-2.7506,-2.6468,-2.5262,-2.4998,-2.458,-2.4062,-2.3818,-2.3555,-2.3237,-2.3159,-2.3101,-2.3101,-2.3101,-2.3101,-2.3101,-2.3101,-2.3101,-2.3101,-2.3101,-2.3101,-2.3101,-2.3101,-2.3101,-2.3101,-2.3101,-2.3101,-2.3062,-2.2984,-2.2906,-2.2672,-2.2646,-2.2383,-2.2324,-2.2275,-2.2246,-2.2217,-2.2119,-2.209,-2.2002,-2.1699,-2.1406,-2.1191,-2.1036,-2.0967,-2.0948,-2.0957,-2.1016,-2.1124,-2.1182,-2.1231,-2.1212,-2.1085,-2.0997,-2.0918,-2.0801,-2.0761,-2.0723,-2.0644,-2.0498,-2.041,-2.0458,-2.0302,-1.998,-1.9891,-1.9881,-1.9754,-1.9551,-1.9746,-2.0049,-3.7974,-3.7974,-3.7974,-3.7974,-3.7974,-3.7974,-3.7974,-3.7974,-3.7974,-3.7974,-3.7974,-3.7974,-3.7974,-3.7974,-3.7974,-3.7974,-3.7974,-3.7974,-3.7938,-3.7817,-3.7517,-3.7577,-3.7445,-3.706,-3.7012,-3.6964,-3.6867,-3.6711,-3.6447,-3.6278,-3.6002,-3.5569,-3.5099,-3.4809,-3.4627,-3.4409,-3.4066,-3.381,-3.3873,-3.3089,-3.1861,-3.2029,-3.135,-3.017,-2.8934,-2.8111,-2.7388,-2.6436,-2.5614,-2.5234,-2.501,-2.4502,-2.4111,-2.3809,-2.3516,-2.3271,-2.3101,-2.3101,-2.3101,-2.3101,-2.3101,-2.3101,-2.3101,-2.3101,-2.3101,-2.3101,-2.3101,-2.3101,-2.3101,-2.3101,-2.3101,-2.3101,-2.3091,-2.3071,-2.3071,-2.3013,-2.3013,-2.2945,-2.2945,-2.2916,-2.2896,-2.2808,-2.2555,-2.251,-2.2422,-2.2295,-2.208,-2.2041,-2.1826,-2.1572,-2.1553,-2.1593,-2.1662,-2.1779,-2.1789,-2.1611,-2.1593,-2.1476,-2.1574,-2.1535,-2.1387,-2.1142,-2.0996,-2.082,-2.0674,-2.0595,-2.0566,-2.0566,-2.0527,-2.0439,-2.0292,-2.0214,-1.9971,-2.0194,-2.041,-3.7974,-3.7974,-3.7974,-3.7974,-3.7974,-3.7974,-3.7974,-3.7974,-3.7974,-3.7974,-3.7974,-3.7974,-3.7974,-3.7974,-3.7974,-3.7974,-3.7974,-3.7974,-3.7974,-3.7866,-3.7769,-3.7866,-3.7793,-3.7625,-3.7625,-3.7613,-3.7517,-3.7228,-3.6928,-3.6687,-3.617,-3.5579,-3.5437,-3.4827,-3.4096,-3.3659,-3.34,-3.3201,-3.34,-3.2224,-3.1051,-3.0897,-3.0254,-2.9259,-2.8238,-2.7542,-2.7082,-2.631,-2.5664,-2.5547,-2.5215,-2.4756,-2.4336,-2.3955,-2.3594,-2.3169,-2.3101,-2.3101,-2.3101,-2.3101,-2.3101,-2.311,-2.3101,-2.3101,-2.3101,-2.3101,-2.3101,-2.3101,-2.3101,-2.3101,-2.3101,-2.3101,-2.3101,-2.3101,-2.3101,-2.3101,-2.3101,-2.3101,-2.3101,-2.3101,-2.3101,-2.3052,-2.2838,-2.2828,-2.276,-2.273,-2.2734,-2.2685,-2.2568,-2.2275,-2.2129,-2.2129,-2.2109,-2.2168,-2.2012,-2.1865,-2.1855,-2.1887,-2.1982,-2.1992,-2.1768,-2.1533,-2.1269,-2.1035,-2.083,-2.0723,-2.0605,-2.0644,-2.0713,-2.0644,-2.0517,-2.0488,-2.0488,-2.0576,-2.0625,-3.7974,-3.7974,-3.7974,-3.7974,-3.7974,-3.7974,-3.7974,-3.7974,-3.7974,-3.7974,-3.7974,-3.7974,-3.7974,-3.7974,-3.7974,-3.7974,-3.7974,-3.7974,-3.7974,-3.7974,-3.7974,-3.7962,-3.7974,-3.7974,-3.7926,-3.7974,-3.795,-3.7733,-3.7409,-3.7,-3.6507,-3.629,-3.5942,-3.4802,-3.392,-3.3388,-3.2639,-3.2325,-3.192,-3.1103,-3.0297,-2.9628,-2.9217,-2.84,-2.7461,-2.7119,-2.6904,-2.6122,-2.5752,-2.5684,-2.54,-2.5127,-2.4697,-2.4277,-2.3857,-2.3555,-2.3598,-2.3403,-2.3237,-2.335,-2.3237,-2.3149,-2.3101,-2.3101,-2.3101,-2.3101,-2.3101,-2.3101,-2.3101,-2.3101,-2.3101,-2.3101,-2.3101,-2.3101,-2.3101,-2.3101,-2.3101,-2.3101,-2.3101,-2.3101,-2.3101,-2.3101,-2.3071,-2.3101,-2.3081,-2.2994,-2.2945,-2.2925,-2.2857,-2.2701,-2.2637,-2.2607,-2.2559,-2.2529,-2.2353,-2.2266,-2.2353,-2.2422,-2.2529,-2.2471,-2.2187,-2.1943,-2.1719,-2.1377,-2.1025,-2.0928,-2.0889,-2.0859,-2.0898,-2.082,-2.082,-2.082,-2.0742,-2.0625,-2.0674,-3.7974,-3.7974,-3.7974,-3.7974,-3.7974,-3.7974,-3.7974,-3.7974,-3.7974,-3.7974,-3.7974,-3.7974,-3.7974,-3.7974,-3.7974,-3.7974,-3.7974,-3.7974,-3.7974,-3.7974,-3.7974,-3.7974,-3.7974,-3.7974,-3.7974,-3.7974,-3.7962,-3.7926,-3.7882,-3.7469,-3.7156,-3.7096,-3.6218,-3.4943,-3.3485,-3.2998,-3.1982,-3.0432,-3.0515,-3.0224,-2.9341,-2.9109,-2.9313,-2.8426,-2.7656,-2.707,-2.6826,-2.6298,-2.5713,-2.5703,-2.5615,-2.5459,-2.5029,-2.459,-2.418,-2.4053,-2.4102,-2.3906,-2.3623,-2.3613,-2.3496,-2.3305,-2.312,-2.3101,-2.3101,-2.3101,-2.3101,-2.3101,-2.3101,-2.3101,-2.3101,-2.3101,-2.3101,-2.3101,-2.3101,-2.3101,-2.3101,-2.3101,-2.3101,-2.3101,-2.3101,-2.3101,-2.3101,-2.3101,-2.3101,-2.3101,-2.3101,-2.3101,-2.3062,-2.2984,-2.2945,-2.2916,-2.2847,-2.2779,-2.2818,-2.2779,-2.2896,-2.2984,-2.2964,-2.2867,-2.2598,-2.2383,-2.2187,-2.1768,-2.1357,-2.1288,-2.1249,-2.1279,-2.1269,-2.125,-2.124,-2.12,-2.1123,-2.0947,-2.0947,-3.7974,-3.7974,-3.7974,-3.7974,-3.7974,-3.7974,-3.7974,-3.7974,-3.7974,-3.7974,-3.7974,-3.7974,-3.7974,-3.7974,-3.7974,-3.7974,-3.7974,-3.7974,-3.7974,-3.7974,-3.7974,-3.7974,-3.7974,-3.7974,-3.7974,-3.7974,-3.7974,-3.7974,-3.7914,-3.7733,-3.7284,-3.666,-3.5869,-3.4676,-3.2545,-3.2104,-3.0959,-2.9112,-2.9069,-2.9399,-2.903,-2.8594,-2.852,-2.835,-2.7988,-2.7344,-2.7012,-2.6572,-2.6025,-2.5771,-2.5703,-2.5488,-2.5135,-2.4668,-2.4414,-2.4316,-2.4414,-2.4307,-2.4111,-2.3935,-2.3789,-2.3574,-2.3379,-2.3169,-2.3101,-2.3101,-2.3101,-2.3101,-2.3101,-2.3101,-2.3101,-2.3101,-2.3101,-2.3101,-2.3101,-2.3101,-2.3101,-2.3101,-2.3101,-2.3101,-2.3101,-2.3101,-2.3101,-2.3101,-2.3101,-2.3101,-2.3101,-2.3101,-2.3101,-2.3052,-2.3042,-2.3023,-2.3042,-2.3033,-2.3101,-2.3101,-2.3101,-2.3101,-2.3042,-2.2974,-2.2916,-2.2646,-2.2305,-2.2031,-2.1738,-2.1728,-2.1728,-2.1728,-2.1719,-2.1699,-2.1631,-2.1561,-2.1541,-2.1445,-2.1475,-3.7974,-3.7974,-3.7974,-3.7974,-3.7974,-3.7974,-3.7974,-3.7974,-3.7974,-3.7974,-3.7974,-3.7974,-3.7974,-3.7974,-3.7974,-3.7974,-3.7974,-3.7974,-3.7974,-3.7974,-3.7974,-3.7974,-3.7974,-3.7974,-3.7974,-3.7974,-3.7974,-3.7974,-3.7909,-3.7068,-3.6461,-3.6102,-3.5474,-3.3747,-3.1576,-3.1051,-3.0089,-2.8441,-2.8291,-2.8516,-2.8809,-2.8584,-2.8389,-2.8379,-2.8057,-2.7539,-2.7295,-2.6894,-2.6465,-2.6064,-2.583,-2.5635,-2.541,-2.5205,-2.4941,-2.4853,-2.4844,-2.4787,-2.4551,-2.4346,-2.4141,-2.3877,-2.3623,-2.3477,-2.311,-2.3101,-2.3101,-2.3101,-2.3101,-2.3101,-2.3101,-2.3101,-2.3101,-2.3101,-2.3101,-2.3101,-2.3101,-2.3101,-2.3101,-2.3101,-2.3101,-2.3101,-2.3101,-2.3101,-2.3101,-2.3101,-2.3101,-2.3101,-2.3101,-2.3101,-2.3101,-2.3101,-2.3101,-2.3101,-2.3101,-2.3101,-2.3101,-2.3101,-2.3101,-2.3062,-2.2974,-2.2715,-2.2402,-2.2256,-2.2168,-2.2168,-2.2168,-2.2168,-2.2168,-2.2148,-2.2051,-2.1953,-2.1943,-2.1963,-2.206,-3.7974,-3.7974,-3.7974,-3.7974,-3.7974,-3.7974,-3.7974,-3.7974,-3.7974,-3.7974,-3.7974,-3.7974,-3.7974,-3.7974,-3.7974,-3.7974,-3.7974,-3.7974,-3.7974,-3.7974,-3.7974,-3.7974,-3.7974,-3.7974,-3.7974,-3.7868,-3.7696,-3.7868,-3.7986,-3.6879,-3.6033,-3.5591,-3.4044,-3.2114,-3.1219,-3.0354,-2.9303,-2.8538,-2.8286,-2.8432,-2.8471,-2.8516,-2.8428,-2.8232,-2.7998,-2.7806,-2.7559,-2.7236,-2.6816,-2.6387,-2.5967,-2.5713,-2.5625,-2.5508,-2.543,-2.5293,-2.5381,-2.5195,-2.4912,-2.4844,-2.4531,-2.4209,-2.3955,-2.3652,-2.3286,-2.314,-2.314,-2.311,-2.311,-2.3101,-2.3101,-2.3101,-2.3101,-2.3101,-2.3101,-2.3101,-2.3101,-2.3101,-2.3101,-2.3101,-2.3101,-2.3101,-2.3101,-2.3101,-2.3101,-2.3101,-2.3101,-2.3101,-2.3101,-2.3101,-2.3101,-2.3101,-2.3101,-2.3101,-2.3101,-2.3101,-2.3101,-2.3101,-2.3101,-2.3101,-2.3042,-2.2838,-2.2682,-2.2613,-2.2545,-2.2578,-2.2588,-2.2598,-2.2598,-2.2559,-2.2363,-2.2256,-2.2389,-2.2438,-2.2604,-3.7974,-3.7974,-3.7974,-3.7974,-3.7974,-3.7974,-3.7974,-3.7974,-3.7974,-3.7974,-3.7974,-3.7974,-3.7974,-3.7974,-3.7974,-3.7974,-3.7974,-3.7974,-3.7974,-3.7974,-3.7974,-3.7974,-3.7921,-3.7761,-3.7921,-3.7631,-3.718,-3.7138,-3.7002,-3.6306,-3.5768,-3.5236,-3.372,-3.2062,-3.0732,-2.9882,-2.9089,-2.8408,-2.8067,-2.811,-2.8315,-2.8364,-2.8564,-2.8476,-2.8398,-2.8027,-2.7666,-2.7246,-2.6826,-2.6406,-2.5976,-2.5781,-2.5684,-2.5684,-2.5577,-2.5528,-2.5635,-2.5538,-2.5361,-2.5157,-2.4826,-2.4651,-2.4339,-2.3871,-2.3559,-2.3286,-2.3247,-2.3169,-2.3149,-2.3101,-2.3101,-2.3101,-2.3101,-2.3101,-2.3101,-2.3101,-2.3101,-2.3101,-2.3101,-2.3101,-2.3101,-2.3101,-2.3101,-2.3101,-2.3101,-2.3101,-2.3101,-2.3101,-2.3101,-2.3101,-2.3101,-2.3101,-2.3101,-2.3101,-2.3101,-2.3101,-2.3101,-2.3101,-2.3101,-2.3101,-2.3091,-2.3081,-2.2964,-2.2857,-2.2886,-2.2916,-2.2935,-2.2891,-2.2886,-2.2818,-2.2617,-2.2539,-2.2711,-2.2818,-2.2857]},{"header":{"parameterUnit":"m.s-1","parameterCategory":1,"la1":31.0,"la2":29.5877,"lo1":-88.7671,"lo2":-86.6584,"dy":0.0162,"dx":0.0185,"nx":115,"ny":88,"refTime":"2023-05-11T12:00:00:Z","depth":0,"parameterNumber":3,"parameterNumberName":"V-component_of_WINDS"},"data":[0.0,0.0,0.0,0.0,0.0,0.0,0.0,0.0,0.0,0.0,0.0,0.0,0.0,0.0,0.0,0.0,0.0,0.0,0.0,0.0,0.0,0.0,0.0,0.0,0.0,0.0,0.0,0.0,0.0,0.0,0.0,0.0,0.0,0.0,0.0,0.0,0.0,0.0,0.0,0.0,0.0,0.0,0.0,0.0,0.0,0.0,0.0,0.0,0.0,0.0,0.0,0.0,0.0,0.0,0.0,0.0,0.0,0.0,0.0,0.0,0.0,0.0,0.0,0.0,0.0,0.0,0.0,0.0,0.0,0.0,0.0,0.0,0.0,0.0,0.0,0.0,0.0,0.0,0.0,0.0,0.0,0.0,0.0,0.0,0.0,0.0,0.0,0.0,0.0,0.0,0.0,0.0,0.0,0.0,0.0,0.0,0.0,0.0,0.0,0.0,0.0,0.0,0.0,0.0,0.0,0.0,0.0,0.0,0.0,0.0,0.0,0.0,0.0,0.0,0.0,0.0,0.0,0.0,0.0,0.0,0.0,0.0,0.0,0.0,0.0,0.0,0.0,0.0,0.0,0.0,0.0,0.0,0.0,0.0,0.0,0.0,0.0,0.0,0.0,0.0,0.0,0.0,0.0,0.0,0.0,0.0,0.0,0.0,0.0,0.0,0.0,0.0,0.0,0.0,0.0,0.0,0.0,0.0,0.0,0.0,0.0,0.0,0.0,0.0,0.0,0.0,0.0,0.0,0.0,0.0,0.0,0.0,0.0,0.0,0.0,0.0,0.0,0.0,0.0,0.0,0.0,0.0,0.0,0.0,0.0,0.0,0.0,0.0,0.0,0.0,0.0,0.0,0.0,0.0,0.0,0.0,0.0,0.0,0.0,0.0,0.0,0.0,0.0,0.0,0.0,0.0,0.0,0.0,0.0,0.0,0.0,0.0,0.0,0.0,0.0,0.0,0.0,0.0,0.0,0.0,0.0,0.0,0.0,0.0,0.0,0.0,0.0,0.0,0.0,0.0,0.0,0.0,0.0,0.0,0.0,0.0,0.0,0.0,0.0,0.0,0.0,0.0,0.0,0.0,0.0,0.0,0.0,0.0,0.0,0.0,0.0,0.0,0.0,0.0,0.0,0.0,0.0,0.0,0.0,0.0,0.0,0.0,0.0,0.0,0.0,0.0,0.0,0.0,0.0,0.0,0.0,0.0,0.0,0.0,0.0,0.0,0.0,0.0,0.0,0.0,0.0,0.0,0.0,0.0,0.0,0.0,0.0,0.0,0.0,0.0,0.0,0.0,0.0,0.0,0.0,0.0,0.0,0.0,0.0,0.0,0.0,0.0,0.0,0.0,0.0,0.0,0.0,0.0,0.0,0.0,0.0,0.0,0.0,0.0,0.0,0.0,0.0,0.0,0.0,0.0,0.0,0.0,0.0,0.0,0.0,0.0,0.0,0.0,0.0,0.0,0.0,0.0,0.0,0.0,0.0,0.0,0.0,0.0,0.0,0.0,0.0,0.0,0.0,0.0,0.0,0.0,0.0,0.0,0.0,0.0,0.0,0.0,0.0,0.0,0.0,0.0,0.0,0.0,0.0,0.0,0.0,0.0,0.0,0.0,0.0,0.0,0.0,0.0,0.0,0.0,0.0,0.0,0.0,0.0,0.0,0.0,0.0,0.0,0.0,0.0,0.0,0.0,0.0,0.0,0.0,0.0,0.0,0.0,0.0,0.0,0.0,0.0,0.0,0.0,0.0,0.0,0.0,0.0,0.0,0.0,0.0,0.0,0.0,0.0,0.0,0.0,0.0,0.0,0.0,0.0,0.0,0.0,0.0,0.0,0.0,0.0,0.0,0.0,0.0,0.0,0.0,0.0,0.0,0.0,0.0,0.0,0.0,0.0,0.0,0.0,0.0,0.0,0.0,0.0,0.0,0.0,0.0,0.0,0.0,0.0,0.0,0.0,0.0,0.0,0.0,0.0,0.0,0.0,0.0,0.0,0.0,0.0,0.0,0.0,0.0,0.0,0.0,0.0,0.0,0.0,0.0,0.0,0.0,0.0,0.0,0.0,0.0,0.0,0.0,0.0,0.0,0.0,0.0,0.0,0.0,0.0,0.0,0.0,0.0,0.0,0.0,0.0,0.0,0.0,0.0,0.0,0.0,0.0,0.0,0.0,0.0,0.0,0.0,0.0,0.0,0.0,0.0,0.0,0.0,0.0,0.0,0.0,0.0,0.0,0.0,0.0,0.0,0.0,0.0,0.0,0.0,0.0,0.0,0.0,0.0,0.0,0.0,0.0,0.0,0.0,0.0,0.0,0.0,0.0,0.0,0.0,0.0,0.0,0.0,0.0,0.0,0.0,0.0,0.0,0.0,0.0,0.0,0.0,0.0,0.0,0.0,0.0,0.0,0.0,0.0,0.0,0.0,0.0,0.0,0.0,0.0,0.0,0.0,0.0,0.0,0.0,0.0,0.0,0.0,0.0,0.0,0.0,0.0,0.0,0.0,0.0,0.0,0.0,0.0,0.0,0.0,0.0,0.0,0.0,0.0,0.0,0.0,0.0,0.0,0.0,0.0,0.0,0.0,0.0,0.0,0.0,0.0,0.0,0.0,0.0,0.0,0.0,0.0,0.0,0.0,0.0,0.0,0.0,0.0,0.0,0.0,0.0,0.0,0.0,0.0,0.0,0.0,0.0,0.0,0.0,0.0,0.0,0.0,0.0,0.0,0.0,0.0,0.0,0.0,0.0,0.0,0.0,0.0,0.0,0.0,0.0,0.0,0.0,0.0,0.0,0.0,0.0,0.0,0.0,0.0,0.0,0.0,0.0,0.0,0.0,0.0,0.0,0.0,0.0,0.0,0.0,0.0,0.0,0.0,0.0,0.0,0.0,0.0,0.0,0.0,0.0,0.0,0.0,0.0,0.0,0.0,0.0,0.0,0.0,0.0,0.0,0.0,0.0,0.0,0.0,0.0,0.0,0.0,0.0,0.0,0.0,0.0,0.0,0.0,0.0,0.0,0.0,0.0,0.0,0.0,0.0,0.0,0.0,0.0,0.0,0.0,0.0,0.0,0.0,0.0,0.0,0.0,0.0,0.0,0.0,0.0,0.0,0.0,0.0,0.0,0.0,0.0,0.0,0.0,0.0,0.0,0.0,0.0,0.0,0.0,0.0,0.0,0.0,0.0,0.0,0.0,0.0,0.0,0.0,0.0,0.0,0.0,0.0,0.0,0.0,0.0,0.0,0.0,0.0,0.0,0.0,0.0,0.0,0.0,0.0,0.0,0.0,0.0,0.0,0.0,0.0,0.0,0.0,0.0,0.0,0.0,0.0,0.0,0.0,0.0,0.0,0.0,0.0,0.0,0.0,0.0,0.0,0.0,0.0,0.0,0.0,0.0,0.0,0.0,0.0,0.0,0.0,0.0,0.0,0.0,0.0,0.0,0.0,0.0,0.0,0.0,0.0,0.0,0.0,0.0,0.0,0.0,0.0,0.0,0.0,0.0,0.0,0.0,0.0,0.0,0.0,0.0,0.0,0.0,0.0,0.0,0.0,0.0,0.0,0.0,0.0,0.0,0.0,0.0,0.0,0.0,0.0,0.0,0.0,0.0,0.0,0.0,0.0,0.0,0.0,0.0,0.0,0.0,0.0,0.0,0.0,0.0,0.0,0.0,0.0,0.0,0.0,0.0,0.0,0.0,0.0,0.0,0.0,0.0,0.0,0.0,0.0,0.0,0.0,0.0,0.0,0.0,0.0,0.0,0.0,0.0,0.0,0.0,0.0,0.0,0.0,0.0,0.0,0.0,0.0,0.0,0.0,0.0,0.0,0.0,0.0,0.0,0.0,0.0,0.0,0.0,0.0,0.0,0.0,0.0,0.0,0.0,0.0,0.0,0.0,0.0,0.0,0.0,0.0,0.0,0.0,0.0,0.0,0.0,0.0,0.0,0.0,0.0,0.0,0.0,0.0,0.0,0.0,0.0,0.0,0.0,0.0,0.0,0.0,0.0,0.0,0.0,0.0,0.0,0.0,0.0,0.0,0.0,0.0,0.0,0.0,0.0,0.0,0.0,0.0,0.0,0.0,0.0,0.0,0.0,0.0,0.0,0.0,0.0,0.0,0.0,0.0,0.0,0.0,0.0,0.0,0.0,0.0,0.0,0.0,0.0,0.0,0.0,0.0,0.0,0.0,0.0,0.0,0.0,0.0,0.0,0.0,0.0,0.0,0.0,0.0,0.0,0.0,0.0,0.0,0.0,0.0,0.0,0.0,0.0,0.0,1.4866,0.0,0.0,0.0,0.0,0.0,0.0,0.0,0.0,0.0,0.0,0.0,0.0,0.0,0.0,0.0,0.0,0.0,0.0,0.0,0.0,0.0,0.0,0.0,0.0,0.0,0.0,0.0,0.0,0.0,0.0,0.0,0.0,0.0,0.0,0.0,0.0,0.0,0.0,0.0,0.0,0.0,0.0,0.0,0.0,0.0,0.0,0.0,0.0,0.0,0.0,0.0,0.0,0.0,0.0,0.0,0.0,0.0,0.0,0.0,0.0,0.0,0.0,0.0,0.0,0.0,0.0,0.0,0.0,0.0,0.0,0.0,0.0,0.0,0.0,0.0,0.0,0.0,0.0,0.0,0.0,0.0,0.0,0.0,0.0,0.0,0.0,0.0,0.0,0.0,0.0,0.0,0.0,0.0,0.0,0.0,0.0,0.0,0.0,0.0,0.0,0.0,0.0,0.0,0.0,0.0,0.0,0.0,0.0,0.0,0.0,1.3587,1.444,1.2964,1.3166,1.5322,0.0,0.0,0.0,0.0,0.0,0.0,0.0,0.0,0.0,0.0,0.0,0.0,0.0,0.0,0.0,0.0,0.0,0.0,0.0,0.0,0.0,0.0,0.0,0.0,0.0,0.0,0.0,0.0,0.0,0.0,0.0,0.0,0.0,0.0,0.0,0.0,0.0,0.0,0.0,0.0,0.0,0.0,0.0,0.0,0.0,0.0,0.0,0.0,0.0,0.0,0.0,0.0,0.0,0.0,0.0,0.0,0.0,0.0,0.0,0.0,0.0,0.0,0.0,0.0,0.0,0.0,0.0,0.0,0.0,0.0,0.0,0.0,0.0,0.0,0.0,0.0,0.0,0.0,0.0,0.0,0.0,0.0,0.0,0.0,0.0,0.0,0.0,0.0,0.0,0.0,0.0,0.0,0.0,0.0,0.0,0.0,0.0,0.0,0.0,0.0,0.0,0.0,0.0,0.0,0.0,0.0,0.0,0.0,0.0,0.0,0.0,0.0,1.3599,1.3792,1.5822,0.0,0.0,0.0,0.0,0.0,0.0,0.0,0.0,0.0,0.0,0.0,0.0,0.0,0.0,0.0,0.0,0.0,0.0,0.0,0.0,0.0,0.0,0.0,0.0,0.0,0.0,0.0,0.0,0.0,0.0,0.0,0.0,0.0,0.0,0.0,0.0,0.0,0.0,0.0,0.0,0.0,0.0,0.0,0.0,0.0,0.0,0.0,0.0,0.0,0.0,0.0,0.0,0.0,0.0,0.0,0.0,0.0,0.0,0.0,0.0,0.0,0.0,0.0,0.0,0.0,0.0,0.0,0.0,0.0,0.0,0.0,0.0,0.0,0.0,0.0,0.0,0.0,0.0,0.0,0.0,0.0,0.0,0.0,0.0,0.0,0.0,0.0,0.0,0.0,0.0,0.0,0.0,0.0,0.0,0.0,0.0,0.0,0.0,0.0,0.0,0.0,0.0,0.0,0.0,0.0,0.0,0.0,0.0,0.0,0.0,1.5352,1.5101,1.6004,0.0,1.6898,0.0,0.0,0.0,0.0,0.0,0.0,0.0,0.0,0.0,0.0,0.0,0.0,0.0,0.0,0.0,0.0,0.0,0.0,0.0,0.0,0.0,0.0,0.0,0.0,0.0,0.0,0.0,0.0,0.0,0.0,0.0,0.0,0.0,0.0,0.0,0.0,0.0,0.0,0.0,0.0,0.0,0.0,0.0,0.0,0.0,0.0,0.0,0.0,0.0,0.0,0.0,0.0,0.0,0.0,0.0,0.0,0.0,0.0,0.0,0.0,0.0,0.0,0.0,0.0,0.0,0.0,0.0,0.0,0.0,0.0,0.0,0.0,0.0,0.0,0.0,0.0,0.0,0.0,0.0,0.0,0.0,0.0,0.0,0.0,0.0,0.0,0.0,0.0,0.0,0.0,0.0,0.0,0.0,0.0,0.0,0.0,0.0,0.0,0.0,0.0,0.0,0.0,0.0,0.0,0.0,0.0,0.0,0.0,0.0,0.0,1.5657,1.5632,1.6784,1.7502,0.0,0.0,0.0,0.0,0.0,0.0,0.0,0.0,0.0,0.0,0.0,0.0,0.0,0.0,0.0,0.0,0.0,0.0,0.0,0.0,0.0,0.0,0.0,0.0,0.0,0.0,0.0,0.0,0.0,0.0,0.0,0.0,0.0,0.0,0.0,0.0,0.0,0.0,0.0,0.0,0.0,0.0,0.0,0.0,0.0,0.0,0.0,0.0,0.0,0.0,0.0,0.0,0.0,0.0,0.0,0.0,0.0,0.0,0.0,0.0,0.0,0.0,0.0,0.0,0.0,0.0,0.0,0.0,0.0,0.0,0.0,0.0,0.0,0.0,0.0,0.0,0.0,0.0,0.0,0.0,0.0,0.0,0.0,0.0,0.0,0.0,0.0,0.0,0.0,0.0,0.0,0.0,0.0,0.0,0.0,0.0,0.0,0.0,0.0,0.0,0.0,0.0,0.0,0.0,0.0,0.0,0.0,0.0,0.0,0.0,1.5634,1.5973,1.6531,1.7143,1.7732,1.8169,0.0,0.0,0.0,0.0,0.0,0.0,0.0,0.0,0.0,0.0,0.0,0.0,0.0,0.0,0.0,0.0,0.0,0.0,0.0,0.0,0.0,0.0,0.0,0.0,0.0,0.0,0.0,0.0,0.0,0.0,0.0,0.0,0.0,0.0,0.0,0.0,0.0,0.0,0.0,0.0,0.0,0.0,0.0,0.0,0.0,0.0,0.0,0.0,0.0,0.0,0.0,0.0,0.0,0.0,0.0,0.0,0.0,0.0,0.0,0.0,0.0,0.0,0.0,0.0,0.0,0.0,0.0,0.0,0.0,0.0,0.0,0.0,0.0,0.0,0.0,0.0,0.0,0.0,0.0,0.0,0.0,0.0,0.0,0.0,0.0,0.0,0.0,0.0,0.0,0.0,0.0,0.0,0.0,0.0,0.0,0.0,0.0,0.0,0.0,0.0,0.0,0.0,0.0,0.0,0.0,0.0,0.0,0.0,1.7047,1.6453,1.6623,1.7693,1.7326,1.7415,0.0,0.0,0.0,0.0,0.0,0.0,0.0,0.0,0.0,0.0,0.0,0.0,0.0,0.0,0.0,0.0,0.0,0.0,0.0,0.0,0.0,0.0,0.0,0.0,0.0,0.0,0.0,0.0,0.0,0.0,0.0,0.0,0.0,0.0,0.0,0.0,0.0,0.0,0.0,0.0,0.0,0.0,0.0,0.0,0.0,0.0,0.0,0.0,0.0,0.0,0.0,0.0,0.0,0.0,0.0,0.0,0.0,0.0,0.0,0.0,0.0,0.0,0.0,0.0,0.0,0.0,0.0,0.0,0.0,0.0,0.0,0.0,0.0,0.0,0.0,0.0,0.0,0.0,0.0,0.0,0.0,0.0,0.0,0.0,0.0,0.0,0.0,0.0,0.0,0.0,0.0,0.0,0.0,0.0,0.0,0.0,0.0,0.0,0.0,0.0,0.0,0.0,0.0,0.0,0.0,0.0,0.0,0.0,0.0,1.5927,1.6045,1.6308,1.6742,1.7529,1.7923,0.0,0.0,0.0,0.0,0.0,0.0,0.0,0.0,0.0,0.0,0.0,0.0,0.0,0.0,0.0,0.0,0.0,0.0,0.0,0.0,0.0,0.0,0.0,0.0,0.0,0.0,0.0,0.0,0.0,0.0,0.0,0.0,0.0,0.0,0.0,0.0,0.0,0.0,0.0,0.0,0.0,0.0,0.0,0.0,0.0,0.0,0.0,0.0,0.0,0.0,0.0,0.0,0.0,0.0,0.0,0.0,0.0,0.0,0.0,0.0,0.0,0.0,0.0,0.0,0.0,0.0,0.0,0.0,0.0,0.0,0.0,0.0,0.0,0.0,0.0,0.0,0.0,0.0,0.0,0.0,0.0,0.0,0.0,0.0,0.0,0.0,0.0,0.0,0.0,0.0,0.0,0.0,0.0,0.0,0.0,0.0,0.0,0.0,0.0,0.0,0.0,0.0,0.0,0.0,0.0,0.0,0.0,0.0,0.0,1.5494,0.0,1.62,1.6417,1.7522,1.8033,0.0,0.0,0.0,0.0,0.0,0.0,0.0,0.0,0.0,0.0,0.0,0.0,0.0,0.0,0.0,0.0,0.0,0.0,0.0,0.0,0.0,0.0,0.0,0.0,0.0,0.0,0.0,0.0,0.0,0.0,0.0,0.0,0.0,0.0,0.0,0.0,0.0,0.0,0.0,0.0,0.0,0.0,0.0,0.0,0.0,0.0,0.0,0.0,0.0,0.0,0.0,0.0,0.0,0.0,0.0,0.0,0.0,0.0,0.0,0.0,0.0,0.0,0.0,0.0,0.0,0.0,0.0,0.0,0.0,0.0,0.0,0.0,0.0,0.0,0.0,0.0,0.0,0.0,0.0,0.0,0.0,0.0,0.0,0.0,0.0,0.0,0.0,0.0,0.0,0.0,0.0,0.0,0.0,0.0,0.0,0.0,0.0,0.0,0.0,0.0,0.0,0.0,0.0,0.0,0.0,0.0,0.0,0.0,1.61,1.6105,1.6078,1.6335,1.6946,1.7202,1.7682,0.0,0.0,0.0,0.0,0.0,0.0,0.0,0.0,0.0,0.0,0.0,0.0,0.0,0.0,0.0,0.0,0.0,0.0,0.0,0.0,0.0,0.0,0.0,0.0,0.0,0.0,0.0,0.0,0.0,0.0,0.0,0.0,0.0,0.0,0.0,0.0,0.0,0.0,0.0,0.0,0.0,0.0,0.0,0.0,0.0,0.0,0.0,0.0,0.0,0.0,0.0,0.0,0.0,0.0,0.0,0.0,0.0,0.0,0.0,0.0,0.0,0.0,0.0,0.0,0.0,0.0,0.0,0.0,0.0,0.0,0.0,0.0,0.0,0.0,0.0,0.0,0.0,0.0,0.0,0.0,0.0,0.0,0.0,0.0,0.0,0.0,0.0,0.0,0.0,0.0,0.0,0.0,0.0,0.0,0.0,0.0,0.0,0.0,0.0,0.0,0.0,0.0,0.0,0.0,0.0,0.0,0.0,0.0,0.0,1.61,1.5804,1.5872,1.6367,1.68,1.7311,0.0,0.0,0.0,0.0,0.0,0.0,0.0,0.0,0.0,0.0,0.0,0.0,0.0,0.0,0.0,0.0,0.0,0.0,0.0,0.0,0.0,0.0,0.0,0.0,0.0,0.0,0.0,0.0,0.0,0.0,0.0,0.0,0.0,0.0,0.0,0.0,0.0,0.0,0.0,0.0,0.0,0.0,0.0,0.0,0.0,0.0,0.0,0.0,0.0,0.0,0.0,0.0,0.0,0.0,0.0,0.0,0.0,0.0,0.0,0.0,0.0,0.0,0.0,0.0,0.0,0.0,0.0,0.0,0.0,0.0,0.0,0.0,0.0,0.0,0.0,0.0,0.0,0.0,0.0,0.0,0.0,0.0,0.0,0.0,0.0,0.0,0.0,0.0,0.0,0.0,0.0,0.0,0.0,0.0,0.0,0.0,0.0,0.0,0.0,0.0,0.0,0.0,0.0,0.0,0.0,0.0,0.0,0.0,0.0,1.7235,1.6298,1.5892,1.6159,1.6874,1.7274,1.7337,0.0,0.0,0.0,0.0,0.0,0.0,0.0,0.0,0.0,0.0,0.0,0.0,0.0,0.0,0.0,0.0,0.0,0.0,0.0,0.0,0.0,0.0,0.0,0.0,0.0,0.0,0.0,0.0,0.0,0.0,0.0,0.0,0.0,0.0,0.0,0.0,0.0,0.0,0.0,0.0,0.0,0.0,0.0,0.0,0.0,0.0,0.0,0.0,0.0,0.0,0.0,0.0,0.0,0.0,0.0,0.0,0.0,0.0,0.0,0.0,0.0,0.0,0.0,0.0,0.0,0.0,0.0,0.0,0.0,0.0,0.0,0.0,0.0,0.0,0.0,0.0,0.0,0.0,0.0,0.0,0.0,0.0,0.0,0.0,0.0,0.0,0.0,0.0,0.0,0.0,0.0,0.0,0.0,0.0,0.0,0.0,0.0,0.0,0.0,0.0,0.0,0.0,0.0,0.0,0.0,0.0,0.0,0.0,1.9336,1.7552,1.6655,1.6569,1.7465,1.7652,0.0,0.0,0.0,0.0,0.0,0.0,0.0,0.0,0.0,0.0,0.0,0.0,0.0,0.0,0.0,0.0,0.0,0.0,0.0,0.0,0.0,0.0,0.0,0.0,0.0,0.0,0.0,0.0,0.0,0.0,0.0,0.0,0.0,0.0,0.0,0.0,0.0,0.0,0.0,0.0,0.0,0.0,0.0,0.0,0.0,0.0,0.0,0.0,0.0,0.0,0.0,0.0,0.0,0.0,0.0,0.0,0.0,0.0,0.0,0.0,0.0,0.0,0.0,0.0,0.0,0.0,0.0,0.0,0.0,0.0,0.0,0.0,0.0,0.0,0.0,0.0,0.0,0.0,0.0,0.0,0.0,0.0,0.0,0.0,0.0,0.0,0.0,0.0,0.0,0.0,0.0,0.0,0.0,0.0,0.0,0.0,0.0,0.0,0.0,0.0,0.0,0.0,0.0,0.0,0.0,0.0,0.0,0.0,0.0,2.0665,1.997,1.949,1.9319,1.8741,1.847,0.0,0.0,0.0,0.0,0.0,0.0,0.0,0.0,0.0,0.0,0.0,0.0,0.0,0.0,0.0,0.0,0.0,0.0,0.0,0.0,0.0,0.0,0.0,0.0,0.0,0.0,0.0,0.0,0.0,0.0,0.0,0.0,0.0,0.0,0.0,0.0,0.0,0.0,0.0,0.0,0.0,0.0,0.0,0.0,0.0,0.0,0.0,0.0,0.0,0.0,0.0,0.0,0.0,0.0,0.0,0.0,0.0,0.0,0.0,0.0,0.0,0.0,0.0,0.0,0.0,0.0,0.0,0.0,0.0,0.0,0.0,0.0,0.0,0.0,0.0,0.0,0.0,0.0,0.0,0.0,0.0,0.0,0.0,0.0,0.0,0.0,0.0,0.0,0.0,0.0,0.0,0.0,0.0,0.0,0.0,0.0,0.0,0.0,0.0,0.0,0.0,0.0,0.0,0.0,0.0,0.0,0.0,0.0,2.072,2.1458,2.185,2.1994,2.1869,2.0922,1.9821,0.0,0.0,0.0,0.0,0.0,0.0,0.0,0.0,0.0,0.0,0.0,0.0,0.0,0.0,0.0,0.0,0.0,0.0,0.0,0.0,0.0,0.0,0.0,0.0,0.0,0.0,0.0,0.0,0.0,0.0,0.0,0.0,0.0,0.0,0.0,0.0,0.0,0.0,0.0,0.0,0.0,0.0,0.0,0.0,0.0,0.0,0.0,0.0,0.0,0.0,0.0,0.0,0.0,0.0,0.0,0.0,0.0,0.0,0.0,0.0,0.0,0.0,0.0,0.0,0.0,0.0,0.0,0.0,0.0,0.0,0.0,0.0,0.0,0.0,0.0,0.0,0.0,0.0,0.0,0.0,0.0,0.0,0.0,0.0,0.0,0.0,0.0,0.0,0.0,0.0,0.0,0.0,0.0,0.0,0.0,0.0,0.0,0.0,0.0,0.0,0.0,0.0,0.0,0.0,0.0,0.0,0.0,0.0,2.1585,2.175,2.3074,2.3813,2.3807,2.3176,2.1296,0.0,0.0,0.0,0.0,0.0,0.0,0.0,0.0,0.0,0.0,0.0,0.0,0.0,0.0,0.0,0.0,0.0,0.0,0.0,0.0,0.0,0.0,0.0,0.0,0.0,0.0,0.0,0.0,0.0,0.0,0.0,0.0,0.0,0.0,0.0,0.0,0.0,0.0,0.0,0.0,0.0,0.0,0.0,0.0,0.0,0.0,0.0,0.0,0.0,0.0,0.0,0.0,0.0,0.0,0.0,0.0,0.0,0.0,0.0,0.0,0.0,0.0,0.0,0.0,0.0,0.0,0.0,0.0,0.0,0.0,0.0,0.0,0.0,0.0,0.0,0.0,0.0,0.0,0.0,0.0,0.0,0.0,0.0,0.0,0.0,0.0,0.0,0.0,0.0,0.0,0.0,0.0,0.0,0.0,0.0,0.0,0.0,0.0,0.0,0.0,0.0,0.0,0.0,0.0,0.0,0.0,0.0,0.0,2.0941,2.1932,2.27,2.3159,2.3249,2.262,2.1702,0.0,0.0,0.0,0.0,0.0,0.0,0.0,0.0,0.0,0.0,0.0,0.0,0.0,0.0,0.0,0.0,0.0,0.0,0.0,0.0,0.0,0.0,0.0,0.0,0.0,0.0,0.0,0.0,0.0,0.0,0.0,0.0,0.0,0.0,0.0,0.0,0.0,0.0,0.0,0.0,0.0,0.0,0.0,0.0,0.0,0.0,0.0,0.0,1.5299,0.0,0.0,0.0,0.0,0.0,0.0,0.0,0.0,0.0,0.0,0.0,0.0,0.0,0.0,0.0,0.0,0.0,0.0,0.0,0.0,0.0,0.0,0.0,0.0,0.0,0.0,0.0,0.0,0.0,0.0,0.0,0.0,0.0,0.0,0.0,0.0,0.0,0.0,0.0,0.0,0.0,0.0,0.0,0.0,0.0,0.0,0.0,0.0,0.0,0.0,0.0,0.0,0.0,0.0,0.0,0.0,0.0,0.0,0.0,2.1598,2.2846,2.3476,2.3856,2.3938,2.2863,2.18,0.0,0.0,0.0,0.0,0.0,0.0,0.0,0.0,0.0,0.0,0.0,0.0,0.0,0.0,0.0,0.0,0.0,0.0,0.0,0.0,0.0,0.0,0.0,0.0,0.0,0.0,0.0,0.0,0.0,0.0,0.0,0.0,0.0,0.0,0.0,0.0,0.0,0.0,0.0,0.0,0.0,0.0,0.0,0.0,0.0,0.0,0.0,0.0,0.0,0.0,0.0,0.0,0.0,0.0,0.0,0.0,0.0,0.0,0.0,0.0,0.0,0.0,0.0,0.0,0.0,0.0,0.0,0.0,0.0,0.0,0.0,0.0,0.0,0.0,0.0,0.0,0.0,0.0,0.0,0.0,0.0,0.0,0.0,0.0,0.0,0.0,0.0,0.0,0.0,0.0,0.0,0.0,0.0,0.0,0.0,0.0,0.0,0.0,0.0,0.0,0.0,0.0,0.0,0.0,0.0,0.0,0.0,2.1249,2.241,2.3595,2.4288,2.4583,2.4429,2.3122,2.1794,2.0539,0.0,0.0,0.0,0.0,0.0,0.0,0.0,0.0,0.0,0.0,0.0,0.0,0.0,0.0,0.0,0.0,0.0,0.0,0.0,0.0,0.0,0.0,0.0,0.0,0.0,0.0,0.0,0.0,0.0,0.0,0.0,0.0,0.0,0.0,0.0,0.0,0.0,0.0,1.6592,1.5621,0.0,0.0,0.0,0.0,0.0,0.0,0.0,0.0,1.5856,0.0,0.0,0.0,0.0,0.0,0.0,0.0,0.0,0.0,0.0,0.0,0.0,0.0,0.0,0.0,0.0,0.0,0.0,0.0,0.0,0.0,0.0,0.0,0.0,0.0,0.0,0.0,0.0,0.0,0.0,0.0,0.0,0.0,0.0,0.0,0.0,0.0,0.0,0.0,0.0,0.0,0.0,0.0,0.0,0.0,0.0,0.0,0.0,0.0,0.0,0.0,0.0,0.0,0.0,0.0,0.0,2.0088,2.0799,2.1525,2.2294,2.3455,2.3373,2.1989,2.2224,2.1866,2.0839,0.0,0.0,0.0,0.0,0.0,0.0,0.0,0.0,0.0,0.0,0.0,0.0,0.0,0.0,0.0,0.0,0.0,0.0,0.0,0.0,0.0,0.0,0.0,0.0,0.0,0.0,0.0,0.0,0.0,0.0,0.0,0.0,0.0,0.0,0.0,0.0,0.0,0.0,0.0,1.5769,1.5439,0.0,0.0,0.0,0.0,0.0,0.0,0.0,0.0,1.6485,0.0,0.0,0.0,0.0,0.0,0.0,0.0,0.0,0.0,0.0,0.0,0.0,0.0,0.0,0.0,0.0,0.0,0.0,0.0,0.0,0.0,0.0,0.0,0.0,0.0,0.0,0.0,0.0,0.0,0.0,0.0,0.0,0.0,0.0,0.0,0.0,0.0,0.0,0.0,0.0,0.0,0.0,0.0,0.0,0.0,0.0,0.0,0.0,0.0,0.0,0.0,0.0,0.0,0.0,0.0,2.0494,2.0857,2.1627,2.2933,2.3572,2.341,2.2363,2.2002,2.1664,0.0,0.0,0.0,0.0,0.0,0.0,0.0,0.0,0.0,0.0,0.0,0.0,0.0,0.0,0.0,0.0,0.0,0.0,0.0,0.0,0.0,0.0,0.0,0.0,0.0,0.0,0.0,0.0,0.0,0.0,0.0,0.0,0.0,0.0,0.0,0.0,0.0,0.0,0.0,0.0,1.5814,1.5615,1.5086,0.0,0.0,0.0,0.0,0.0,0.0,1.6294,1.7016,0.0,0.0,0.0,0.0,0.0,0.0,0.0,0.0,0.0,0.0,0.0,0.0,0.0,0.0,0.0,0.0,0.0,0.0,0.0,0.0,0.0,0.0,0.0,0.0,0.0,0.0,0.0,0.0,0.0,0.0,0.0,0.0,0.0,0.0,0.0,0.0,0.0,0.0,0.0,0.0,0.0,0.0,0.0,0.0,0.0,0.0,0.0,0.0,0.0,0.0,0.0,0.0,0.0,0.0,0.0,2.0915,2.1133,2.2026,2.3638,2.3749,2.3476,2.2958,2.1915,2.1412,0.0,0.0,0.0,0.0,0.0,0.0,0.0,0.0,0.0,0.0,0.0,0.0,0.0,0.0,0.0,0.0,0.0,0.0,0.0,0.0,0.0,0.0,0.0,0.0,0.0,0.0,0.0,0.0,0.0,0.0,0.0,0.0,0.0,0.0,0.0,0.0,0.0,0.0,0.0,0.0,0.0,1.6095,1.587,1.5643,0.0,0.0,0.0,0.0,1.7112,1.7244,0.0,0.0,0.0,0.0,0.0,0.0,0.0,0.0,0.0,0.0,0.0,0.0,0.0,0.0,0.0,0.0,0.0,0.0,0.0,0.0,0.0,0.0,0.0,0.0,0.0,0.0,0.0,0.0,0.0,0.0,0.0,0.0,0.0,0.0,0.0,0.0,0.0,0.0,0.0,0.0,0.0,0.0,0.0,0.0,0.0,0.0,0.0,0.0,0.0,0.0,0.0,0.0,0.0,0.0,0.0,0.0,2.0973,2.1583,2.2294,2.3141,2.3199,2.2724,2.1747,2.163,2.1351,0.0,0.0,0.0,0.0,0.0,0.0,0.0,0.0,0.0,0.0,0.0,0.0,0.0,0.0,0.0,0.0,0.0,0.0,0.0,0.0,0.0,0.0,0.0,0.0,0.0,0.0,0.0,0.0,0.0,0.0,0.0,0.0,0.0,0.0,0.0,0.0,0.0,0.0,0.0,0.0,0.0,1.7587,1.7884,1.7915,1.8051,0.0,0.0,1.8782,1.874,1.9091,0.0,0.0,0.0,0.0,0.0,0.0,0.0,0.0,0.0,0.0,0.0,0.0,0.0,0.0,0.0,0.0,0.0,0.0,0.0,0.0,0.0,0.0,0.0,0.0,0.0,0.0,0.0,0.0,0.0,0.0,0.0,0.0,0.0,0.0,0.0,0.0,0.0,0.0,0.0,0.0,0.0,0.0,0.0,0.0,0.0,0.0,0.0,0.0,0.0,0.0,0.0,0.0,0.0,0.0,0.0,1.9783,2.0959,2.1278,2.1807,2.2505,2.2535,2.2117,2.1231,2.108,2.1012,0.0,0.0,0.0,0.0,0.0,0.0,0.0,0.0,0.0,0.0,0.0,0.0,0.0,0.0,0.0,0.0,0.0,0.0,0.0,0.0,0.0,0.0,0.0,0.0,0.0,0.0,0.0,0.0,0.0,0.0,0.0,0.0,0.0,0.0,0.0,0.0,0.0,0.0,0.0,0.0,0.0,0.0,1.8576,1.8453,0.0,0.0,0.0,1.8795,1.8983,0.0,0.0,0.0,0.0,0.0,0.0,0.0,0.0,0.0,0.0,0.0,0.0,0.0,0.0,0.0,0.0,0.0,0.0,0.0,0.0,0.0,0.0,0.0,0.0,0.0,0.0,0.0,0.0,0.0,0.0,0.0,0.0,0.0,0.0,0.0,0.0,0.0,0.0,0.0,0.0,0.0,0.0,0.0,0.0,0.0,0.0,0.0,0.0,0.0,0.0,0.0,0.0,0.0,0.0,0.0,0.0,0.0,2.1268,2.1131,2.1426,2.211,2.2014,2.1628,2.0943,2.0702,0.0,0.0,0.0,0.0,0.0,0.0,0.0,0.0,0.0,0.0,0.0,0.0,0.0,0.0,0.0,0.0,0.0,0.0,0.0,0.0,0.0,0.0,0.0,0.0,0.0,0.0,0.0,2.1205,0.0,0.0,0.0,0.0,0.0,0.0,0.0,0.0,0.0,0.0,0.0,0.0,0.0,0.0,1.9284,1.9323,1.9245,1.9244,0.0,0.0,1.929,1.957,1.9659,2.0056,0.0,0.0,0.0,0.0,0.0,0.0,0.0,0.0,0.0,0.0,0.0,0.0,0.0,0.0,0.0,0.0,0.0,0.0,0.0,0.0,0.0,0.0,0.0,0.0,0.0,0.0,0.0,0.0,0.0,0.0,0.0,0.0,0.0,0.0,0.0,0.0,0.0,0.0,0.0,0.0,0.0,0.0,0.0,0.0,0.0,0.0,0.0,0.0,0.0,0.0,0.0,0.0,0.0,0.0,0.0,2.2001,2.1489,2.1536,2.2237,2.181,2.1272,2.0741,2.0748,2.0811,0.0,0.0,0.0,0.0,0.0,0.0,0.0,0.0,0.0,0.0,0.0,0.0,0.0,0.0,0.0,0.0,0.0,0.0,0.0,0.0,0.0,0.0,0.0,0.0,0.0,0.0,0.0,0.0,0.0,0.0,0.0,0.0,0.0,0.0,0.0,0.0,0.0,0.0,0.0,0.0,0.0,2.0353,2.0702,2.1068,2.1285,0.0,0.0,2.13,2.1331,2.1438,2.1667,2.2141,0.0,0.0,0.0,0.0,0.0,0.0,0.0,0.0,0.0,0.0,0.0,0.0,0.0,0.0,0.0,0.0,0.0,0.0,0.0,0.0,0.0,0.0,0.0,0.0,0.0,0.0,0.0,0.0,0.0,0.0,0.0,0.0,0.0,0.0,0.0,0.0,0.0,0.0,0.0,0.0,0.0,0.0,0.0,0.0,0.0,0.0,0.0,0.0,0.0,0.0,0.0,0.0,0.0,2.0774,2.2224,2.1657,2.1491,2.1795,2.1613,2.1156,2.039,2.0669,2.0893,0.0,0.0,0.0,0.0,0.0,0.0,0.0,0.0,0.0,0.0,0.0,0.0,0.0,0.0,0.0,0.0,0.0,0.0,0.0,0.0,0.0,0.0,0.0,0.0,0.0,0.0,0.0,0.0,2.0765,2.0673,2.0999,0.0,0.0,0.0,0.0,0.0,0.0,0.0,0.0,0.0,0.0,2.0615,2.0975,2.1007,0.0,0.0,2.1151,2.1166,2.1616,2.1555,2.1648,2.2209,2.2282,0.0,0.0,0.0,0.0,0.0,0.0,0.0,0.0,0.0,0.0,0.0,0.0,0.0,0.0,0.0,0.0,0.0,0.0,0.0,0.0,0.0,0.0,0.0,0.0,0.0,0.0,0.0,0.0,0.0,0.0,0.0,0.0,0.0,0.0,0.0,0.0,0.0,0.0,0.0,0.0,0.0,0.0,0.0,0.0,0.0,0.0,0.0,0.0,0.0,0.0,0.0,0.0,2.1198,2.2646,2.1842,2.1469,2.15,2.1555,2.1075,2.0111,2.0545,2.0909,0.0,0.0,0.0,0.0,0.0,0.0,0.0,0.0,0.0,0.0,0.0,0.0,0.0,0.0,0.0,0.0,0.0,0.0,0.0,0.0,0.0,0.0,0.0,0.0,0.0,0.0,0.0,0.0,2.1088,2.1019,2.0891,0.0,0.0,0.0,0.0,0.0,0.0,0.0,0.0,0.0,0.0,2.0797,2.091,2.0991,2.1039,2.1071,2.099,2.1007,2.137,2.1447,2.16,2.208,0.0,0.0,0.0,0.0,0.0,0.0,0.0,0.0,0.0,0.0,0.0,0.0,0.0,0.0,0.0,0.0,0.0,0.0,0.0,0.0,0.0,0.0,0.0,0.0,0.0,0.0,0.0,0.0,0.0,0.0,2.1605,0.0,0.0,0.0,0.0,0.0,0.0,0.0,0.0,0.0,0.0,0.0,0.0,0.0,0.0,0.0,0.0,0.0,0.0,0.0,0.0,0.0,0.0,2.151,2.3398,2.2159,2.15,2.1515,2.162,2.1066,1.9819,2.041,2.0794,2.0827,0.0,0.0,0.0,0.0,0.0,0.0,0.0,0.0,0.0,0.0,0.0,0.0,0.0,0.0,0.0,0.0,0.0,0.0,0.0,0.0,0.0,0.0,0.0,0.0,0.0,0.0,2.1934,2.1965,2.1709,0.0,0.0,0.0,0.0,0.0,0.0,0.0,0.0,0.0,0.0,2.0846,2.0975,2.068,2.126,2.1478,2.0747,2.1023,2.1134,2.0763,2.1291,2.1781,0.0,0.0,0.0,0.0,0.0,0.0,0.0,0.0,0.0,0.0,0.0,0.0,0.0,0.0,0.0,0.0,0.0,0.0,0.0,0.0,0.0,0.0,0.0,0.0,0.0,0.0,0.0,2.2966,2.2942,0.0,0.0,0.0,0.0,0.0,0.0,0.0,0.0,0.0,0.0,0.0,2.3947,2.3723,0.0,0.0,0.0,0.0,0.0,0.0,0.0,0.0,0.0,0.0,0.0,0.0,2.2058,2.3447,2.2276,2.1844,2.2282,2.1919,2.1276,2.0393,2.0382,2.063,2.1119,0.0,0.0,0.0,0.0,0.0,0.0,0.0,0.0,0.0,0.0,0.0,0.0,0.0,0.0,0.0,0.0,0.0,0.0,0.0,0.0,0.0,0.0,0.0,0.0,0.0,2.184,0.0,0.0,0.0,0.0,0.0,0.0,0.0,0.0,0.0,0.0,0.0,2.1555,2.0959,2.1275,2.1446,2.1119,2.1291,2.1447,0.0,0.0,0.0,0.0,0.0,0.0,0.0,0.0,0.0,0.0,0.0,0.0,0.0,0.0,2.2135,2.1899,2.1869,2.1869,2.1869,0.0,0.0,0.0,0.0,0.0,0.0,0.0,0.0,0.0,0.0,0.0,0.0,0.0,0.0,0.0,0.0,2.3751,0.0,0.0,0.0,0.0,0.0,0.0,0.0,0.0,2.471,2.5315,2.5944,2.5749,2.5974,0.0,2.5255,2.4103,0.0,0.0,0.0,0.0,0.0,0.0,0.0,0.0,2.2547,2.3505,2.2562,2.2269,2.2658,2.2283,2.1724,2.1066,2.0941,2.1196,2.1759,2.2231,2.2704,0.0,0.0,0.0,0.0,0.0,0.0,0.0,0.0,0.0,0.0,0.0,0.0,0.0,0.0,0.0,0.0,0.0,0.0,0.0,0.0,0.0,0.0,0.0,2.1947,0.0,0.0,0.0,0.0,0.0,0.0,0.0,0.0,0.0,2.1214,2.1648,2.1814,2.126,2.1415,2.1462,2.1007,0.0,0.0,0.0,0.0,0.0,0.0,0.0,2.1842,2.1947,2.2135,2.2313,2.2313,2.2313,2.2313,2.2313,0.0,0.0,2.202,2.1976,2.1976,2.1959,2.1563,2.1325,2.1812,2.0698,1.9656,0.0,0.0,0.0,0.0,0.0,0.0,0.0,0.0,2.4897,2.5571,0.0,2.5317,0.0,0.0,0.0,0.0,0.0,2.5974,0.0,0.0,2.727,2.73,2.6767,2.736,2.7345,2.6737,2.6677,2.6303,2.5585,2.3131,0.0,0.0,0.0,0.0,0.0,0.0,2.3011,2.361,2.3077,2.2763,2.2793,2.2748,2.2403,2.171,2.2002,2.23,2.2708,2.3842,2.4271,2.3583,2.4763,0.0,0.0,0.0,0.0,0.0,0.0,0.0,0.0,0.0,0.0,0.0,0.0,0.0,0.0,0.0,0.0,0.0,0.0,0.0,0.0,2.214,0.0,0.0,0.0,0.0,0.0,0.0,0.0,0.0,0.0,0.0,2.1534,2.1624,2.1636,2.1356,0.0,0.0,0.0,0.0,2.0743,2.0471,2.0643,2.0759,2.0472,2.1183,2.1676,2.1385,0.0,0.0,2.2313,2.2313,2.2296,2.2282,2.2282,2.2313,2.2268,2.2268,2.2282,2.2282,2.2265,2.2043,2.1427,2.1207,2.0859,2.9654,0.0,0.0,0.0,0.0,2.8297,2.8759,2.9063,2.8518,2.8226,2.8,2.6641,0.0,0.0,0.0,0.0,0.0,0.0,2.6866,2.7345,2.7993,2.8468,2.8727,2.8948,2.9172,2.934,2.8457,2.7934,2.7664,2.6019,2.4807,2.4051,0.0,0.0,0.0,0.0,2.367,2.4261,2.4141,2.4051,2.4051,2.3595,2.2802,2.1724,2.1779,2.1998,2.2331,2.2988,2.3676,2.4337,2.4945,0.0,0.0,0.0,0.0,0.0,0.0,0.0,0.0,0.0,0.0,0.0,0.0,0.0,0.0,0.0,0.0,0.0,0.0,0.0,2.1926,2.2441,2.282,0.0,0.0,0.0,0.0,0.0,0.0,0.0,0.0,0.0,2.2915,2.2816,2.2554,0.0,0.0,2.1681,2.0774,2.1356,2.1841,2.1725,2.1808,0.0,0.0,2.1727,2.1478,2.1631,2.1827,2.202,2.2268,2.2313,2.2209,2.1974,2.212,2.2223,2.2005,2.2137,2.2282,2.2313,2.2313,2.2245,2.2023,2.1597,2.1043,3.2991,3.0265,2.9502,2.9274,2.9534,3.0195,3.0569,3.0729,3.0268,3.0177,3.0265,2.8794,2.812,2.8036,2.746,0.0,0.0,0.0,2.8502,2.916,2.9564,2.9983,3.0342,3.0372,3.0552,3.0851,2.9849,2.9235,2.8966,2.7919,2.6991,2.6144,0.0,0.0,2.4978,2.4575,2.4597,2.4978,2.4993,2.4874,2.459,2.3932,2.3236,2.2488,2.2458,2.2545,2.2738,2.3354,2.4018,2.4786,2.5422,2.6017,0.0,0.0,0.0,0.0,0.0,0.0,0.0,0.0,0.0,0.0,0.0,2.2781,2.2781,0.0,0.0,0.0,2.2812,2.274,2.2469,2.3122,0.0,0.0,0.0,0.0,0.0,0.0,0.0,2.4175,2.4475,2.453,2.4078,2.3973,2.3508,2.2341,2.2356,2.2215,2.1506,0.0,2.1909,2.1893,2.1909,2.1881,2.1826,2.1633,2.152,2.1572,2.1616,2.1661,2.1857,2.1901,2.1827,2.1676,2.1751,2.1842,2.163,2.1783,2.1961,2.2063,2.1991,2.1901,2.1901,2.1566,2.1178,3.5923,3.4653,3.2751,3.1496,3.0821,3.1539,3.1522,3.102,3.0921,3.1695,3.2894,3.1383,3.1084,3.1692,3.0351,0.0,3.0657,3.0672,3.1001,3.166,3.166,3.166,3.166,3.16,3.1585,3.157,3.0911,3.0298,2.9771,2.9086,2.8757,2.8697,2.6856,2.5875,2.5839,2.5794,2.5764,2.5764,2.5779,2.545,2.4769,2.3992,2.3625,2.3684,2.3625,2.3595,2.3616,2.4466,2.4965,2.5028,2.5977,2.6571,2.6589,0.0,0.0,0.0,0.0,0.0,0.0,0.0,0.0,0.0,0.0,0.0,0.0,0.0,0.0,0.0,2.4403,0.0,2.3457,2.4062,0.0,0.0,0.0,2.4481,2.466,2.4626,2.4609,2.466,0.0,0.0,2.5092,2.5024,2.4522,2.3196,2.292,2.2707,2.2343,2.1846,2.1442,2.1463,2.1396,2.1152,2.0802,2.1194,2.1544,2.1295,2.1261,2.126,2.1339,2.1339,2.1307,2.1261,2.1292,2.1292,2.1276,2.1276,2.137,2.1663,2.1508,2.1323,2.1354,2.1322,2.1258,3.7749,3.7375,3.6417,3.482,3.3066,3.4194,3.433,3.3773,3.3864,3.3744,3.3321,3.26,3.2014,3.1538,3.1195,3.142,3.2033,3.2033,3.2392,3.3006,3.3021,3.3036,3.2991,3.2512,3.2243,3.2213,3.157,3.1182,3.1002,3.0387,3.0058,3.0013,2.9116,2.8382,2.7889,2.7365,2.7121,2.7121,2.7136,2.6806,2.6108,2.4477,2.3849,2.4335,2.3879,2.3595,2.3595,2.4131,2.4623,2.4989,2.5575,2.6101,2.6572,2.6623,0.0,0.0,0.0,0.0,0.0,0.0,0.0,0.0,0.0,2.4289,2.4177,0.0,2.4321,0.0,2.4858,2.4922,2.4231,2.4805,0.0,0.0,2.48,2.4869,2.6031,2.5676,2.5558,2.6116,2.6236,2.6168,2.5874,2.5811,2.5577,2.4922,2.3878,2.2968,2.2413,2.2644,2.2624,2.2166,2.2043,2.1904,2.1487,2.1185,2.1032,2.0925,2.0926,2.1007,2.1261,2.1308,2.1214,2.1007,2.1135,2.1198,2.0974,2.0909,2.0942,2.1039,2.1166,2.1308,2.1308,2.1292,2.1197,3.8661,3.8377,3.8332,3.7139,3.5394,3.5844,3.5664,3.5078,3.519,3.4948,3.4433,3.3894,3.3517,3.323,3.2677,3.2901,3.3799,3.3529,3.3589,3.3964,3.3933,3.3784,3.3469,3.2826,3.2497,3.2467,3.1824,3.1496,3.1481,3.1122,3.0928,3.0928,3.0612,3.0268,2.9879,2.8951,2.8349,2.8049,2.7465,2.6986,2.6572,2.5226,2.4649,2.5008,2.4418,2.4036,2.4059,2.4204,2.4693,2.5505,2.5947,2.6469,2.7059,2.7077,2.696,0.0,0.0,0.0,0.0,0.0,0.0,0.0,0.0,0.0,0.0,0.0,2.5378,2.5329,2.6051,2.6354,2.5949,2.6286,2.6691,2.7063,2.61,2.5815,2.6805,2.6268,2.5915,2.6143,2.6175,2.607,2.5854,2.567,2.5484,2.5256,2.437,2.369,2.3511,2.3565,2.3258,2.2463,2.2305,2.213,2.1666,2.1014,2.0594,2.0578,2.0578,2.0645,2.0828,2.0877,2.0779,2.0628,2.0745,2.0795,2.0627,2.0578,2.0578,2.0595,2.0729,2.0828,2.0845,2.086,2.0811,3.9065,3.8586,3.917,3.8691,3.7494,3.6956,3.6312,3.5624,3.5624,3.5647,3.5642,3.5053,3.5063,3.5415,3.4277,3.4397,3.5444,3.4891,3.4638,3.4638,3.4638,3.4307,3.3739,3.308,3.2766,3.2706,3.1989,3.163,3.163,3.154,3.1496,3.1496,3.1496,3.1496,3.1451,3.0402,2.943,2.8607,2.735,2.6731,2.6707,2.6078,2.5734,2.5704,2.5106,2.4702,2.459,2.4541,2.4984,2.599,2.6477,2.7024,2.7646,2.77,2.75,0.0,2.745,0.0,0.0,0.0,0.0,0.0,0.0,0.0,0.0,2.6758,2.6758,2.6758,2.7383,2.7841,2.7942,2.7942,2.8247,2.8874,2.7653,2.6891,2.7208,2.6569,2.6013,2.5819,2.5645,2.5594,2.574,2.5298,2.4962,2.4981,2.4728,2.4541,2.4745,2.4209,2.3412,2.2451,2.2151,2.1689,2.1216,2.0676,2.0321,2.0304,2.0321,2.0287,2.0321,2.0339,2.0304,2.0304,2.0323,2.0321,2.0287,2.0304,2.0304,2.0321,2.0356,2.0356,2.034,2.0356,2.0287,3.9349,3.923,3.9364,3.8945,3.8197,3.8078,3.7375,3.633,3.6448,3.6182,3.5688,3.5437,3.5417,3.5474,3.5235,3.528,3.5489,3.537,3.531,3.5295,3.531,3.525,3.5085,3.4427,3.4113,3.4069,3.2901,3.2303,3.2288,3.1765,3.1496,3.1496,3.1496,3.1496,3.1496,0.0,0.0,0.0,2.7809,2.7405,2.739,2.6776,2.6393,2.6393,2.5867,0.0,2.4687,2.5274,2.5515,2.5187,2.5887,0.0,0.0,0.0,0.0,0.0,0.0,0.0,0.0,0.0,0.0,0.0,2.8618,2.8227,2.7566,2.7534,2.7569,2.7569,2.7705,2.8078,2.8704,2.879,2.884,2.8907,2.7821,2.7193,2.7579,2.6694,2.6319,2.724,2.6503,2.6118,2.652,2.5945,2.5307,2.5234,2.5291,2.516,2.4902,2.4076,2.3173,2.2413,2.1504,2.0703,2.052,2.0381,2.0287,2.0287,2.0287,2.0287,2.0287,2.0287,2.0287,2.0287,2.0287,2.0287,2.0287,2.0287,2.0287,2.0287,2.0287,2.0287,2.0287,2.0287,2.0287,3.9388,0.0,3.9388,3.9179,0.0,3.8542,3.7838,3.6926,3.6697,3.622,3.5604,3.5522,3.5489,3.5489,3.5489,3.5489,3.5489,3.5489,3.5489,3.5489,3.5489,3.5489,3.5474,3.4833,3.4503,3.4459,3.3484,3.3006,3.2961,3.2332,3.1989,3.1989,3.1675,3.1496,3.1496,3.1152,3.0387,2.9101,2.8109,2.7585,2.7585,2.727,2.713,2.7165,0.0,0.0,0.0,0.0,0.0,0.0,0.0,0.0,0.0,0.0,0.0,2.8991,2.9296,2.9499,2.955,2.9837,2.9871,2.9567,2.955,2.9193,2.8396,2.8364,2.8552,2.8906,2.8721,2.9005,2.9937,2.9566,2.9425,2.9901,2.8483,2.7584,2.7888,2.6968,2.6243,2.6332,2.628,2.6126,2.5751,2.5588,2.5221,2.4922,2.4899,2.4843,2.4643,2.4338,2.3698,2.2512,2.1488,2.0672,2.0381,2.0287,2.0287,2.0287,2.0287,2.0287,2.0287,2.0287,2.0287,2.0287,2.0287,2.0287,2.0287,2.0287,2.0287,2.0287,2.0287,2.0287,2.0287,2.0287,2.0287,3.9388,3.9388,3.9388,3.9388,3.9328,3.8811,3.8123,3.736,0.0,0.0,0.0,3.5549,3.5489,3.5489,3.5489,3.5489,3.5489,3.5489,3.5489,3.5489,3.5489,3.5489,3.5474,3.4921,3.4666,3.4653,3.3978,3.3679,3.3634,3.3006,3.2677,3.2632,3.2004,3.1615,3.1466,3.0823,3.0253,2.9741,2.8573,2.7899,2.7779,2.7779,2.7785,2.779,2.7287,2.7013,2.6981,2.6633,2.6826,2.7617,2.8156,2.8687,2.9218,2.9674,2.9741,2.9372,3.0376,3.0869,3.0531,3.136,3.1444,3.0342,3.0429,3.0087,2.9153,2.9159,2.9394,2.9926,2.9708,2.9975,3.103,3.0222,2.9949,3.0891,2.8987,2.786,2.822,2.7219,2.6202,2.5686,2.5998,2.587,2.4993,2.4933,2.4842,2.4372,2.4281,2.424,2.4287,2.4382,2.3858,2.2346,2.1519,2.1026,2.0472,2.0287,2.0287,2.0287,2.0287,2.0287,2.0287,2.0287,2.0287,2.0287,2.0287,2.0287,2.0287,2.0287,2.0287,2.0287,2.0287,2.0287,2.0287,2.0287,2.0287,3.9388,3.9388,3.9388,3.9388,3.9409,3.932,3.8571,3.733,3.6163,3.5908,3.6297,3.5759,3.5489,3.5489,3.5489,3.5489,3.5489,3.5489,3.5489,0.0,3.5489,3.5489,3.5489,3.54,3.537,3.531,3.4666,3.4369,3.4309,3.371,3.335,3.3275,3.2706,3.2064,3.1496,3.0823,3.0462,3.0357,2.9669,2.9052,2.8472,2.8442,2.825,2.7821,2.7815,2.758,2.7011,2.7675,2.7651,2.6882,2.8003,2.8661,2.8661,2.9533,3.0138,3.0275,3.0269,3.0751,3.1833,3.1021,3.0598,3.1038,3.1633,3.1254,2.9556,2.9712,2.9837,2.9556,2.98,3.028,3.0897,3.046,3.0103,3.0143,2.864,2.7747,2.8228,2.7219,2.6741,2.7439,2.6422,2.5812,2.5864,2.4937,2.4137,2.3934,2.4009,2.4103,2.4116,2.381,2.2979,2.1815,2.1365,2.1011,2.0456,2.0287,2.0287,2.0287,2.0287,2.0287,2.0287,2.0287,2.0287,2.0287,2.0287,2.0287,2.0287,2.0287,2.0287,2.0287,2.0287,2.0287,2.0287,2.0287,2.0287,3.9738,3.9403,3.9388,3.9388,3.9394,3.902,3.8317,3.7345,3.6432,3.5998,3.5923,3.5639,3.5489,3.5489,3.5489,3.5489,3.5489,3.5489,3.5489,3.5489,3.5489,3.5489,3.5489,3.5489,3.5489,3.5474,3.519,3.5026,3.4981,3.4352,3.4069,3.3963,3.3081,3.2495,3.2282,3.1577,3.1246,3.13,3.0238,2.9384,2.8737,2.8774,2.856,2.8044,2.8438,2.8381,2.7782,2.8532,2.8537,2.7597,2.879,2.9252,2.8879,2.9875,3.0459,3.0497,3.0783,3.1035,3.129,3.046,3.0084,3.0435,3.0979,3.075,2.9351,2.9914,3.0236,2.998,2.969,2.9711,3.0272,2.9783,2.954,2.9821,2.87,2.8066,2.8166,2.7585,2.7181,2.7303,2.6745,2.6129,2.5729,2.5024,2.4346,2.4031,2.3961,2.4046,2.4151,2.3611,2.2889,2.204,2.1843,2.1381,2.0518,2.0287,2.0287,2.0287,2.0287,2.0287,2.0287,2.0287,2.0287,2.0287,2.0287,2.0287,2.0287,2.0287,2.0287,2.0287,2.0287,2.0287,2.0287,2.0287,2.0287,4.0142,3.9388,3.9388,3.9388,3.9364,3.8841,3.8242,3.7584,3.6971,3.6327,3.5759,3.5579,3.5489,3.5489,3.5489,3.5489,3.5489,3.5489,3.5489,3.5489,3.5489,3.5489,3.5489,3.5489,3.5489,3.5489,3.5489,3.5489,3.5429,3.4966,3.4653,3.4429,3.3577,3.317,3.3181,3.2443,3.211,3.2148,3.0985,2.9993,2.9331,2.9232,2.8966,2.8522,2.9083,2.9179,2.8695,2.9264,2.9335,2.8744,2.9562,2.9754,2.9053,2.9973,3.0449,3.0297,3.0815,3.0962,3.0429,3.0429,3.0266,2.981,3.0249,3.0179,2.947,2.9777,3.0145,3.0081,2.954,2.9355,2.9772,2.9241,2.8966,2.9441,2.8742,2.8187,2.8147,2.7836,2.7427,2.6941,2.674,2.622,2.5425,2.496,2.4572,2.4067,2.3982,2.4046,2.4105,2.357,2.2952,2.2601,2.2286,2.1596,2.0518,2.0287,2.0287,2.0287,2.0287,2.0287,2.0287,2.0287,2.0287,2.0287,2.0287,2.0287,2.0287,2.0287,2.0287,2.0287,2.0287,2.0287,2.0287,2.0287,2.0287,4.0561,3.9463,3.9403,3.9388,3.9373,3.9298,3.8916,3.8242,3.7614,3.6971,3.6372,3.5774,3.5519,3.5489,3.5489,3.5489,3.5489,3.5489,3.5489,3.5489,3.5489,3.5489,3.5489,3.5489,3.5489,3.5489,3.5489,3.5504,3.5489,3.5429,3.5117,3.4563,3.4479,3.4226,3.3729,3.3182,3.2892,3.2906,3.2305,3.1591,3.0828,3.0098,2.9542,2.9118,2.9771,2.9868,2.9341,2.9966,3.0002,2.9421,2.9819,2.9634,2.8761,2.9391,2.9697,2.9335,2.972,2.9908,2.9962,3.1484,3.1522,3.0086,3.0299,3.0341,2.9704,2.9303,2.9097,2.9234,2.9506,2.975,3.0123,2.9393,2.8958,2.9203,2.8489,2.7834,2.7847,2.771,2.758,2.7535,2.6558,2.5676,2.5475,2.4604,2.3874,2.3891,2.394,2.4003,2.4084,2.3549,2.3131,2.2939,2.2259,2.1242,2.0518,2.0287,2.0287,2.0287,2.0287,2.0287,2.0287,2.0287,2.0287,2.0287,2.0287,2.0287,2.0287,2.0287,2.0287,2.0287,2.0287,2.0287,2.0287,2.0287,2.0287,4.119,3.9941,3.9553,3.9388,3.9388,3.9388,3.902,3.8377,3.8108,3.7629,3.7,3.6372,3.5878,3.5504,3.5489,3.5489,3.5489,3.5489,3.5489,3.5489,3.5489,3.5489,3.5489,3.5489,3.5489,3.5489,3.5489,3.5569,3.5589,3.5621,3.5567,3.547,3.5107,3.4866,3.4729,3.4073,3.3782,3.3854,3.3096,3.2564,3.2311,3.132,3.049,3.0048,3.0565,3.0622,3.0125,3.0617,3.0689,3.0089,3.0556,3.0489,2.9643,2.994,3.0013,2.9722,2.948,2.9371,2.9393,2.9906,2.9823,2.9021,2.9458,2.952,2.906,2.892,2.8834,2.8637,2.8756,2.8951,2.9097,2.87,2.8462,2.8574,2.8277,2.7989,2.793,2.7955,2.79,2.769,2.6889,2.6114,2.5656,2.4619,2.3915,2.3882,2.3919,2.3961,2.4,2.3488,2.3152,2.3139,2.2471,2.1689,2.0996,2.052,2.0366,2.0287,2.0287,2.0287,2.0287,2.0287,2.0287,2.0287,2.0287,2.0287,2.0287,2.0287,2.0287,2.0287,2.0287,2.0287,2.0287,2.0287,2.0287,4.1863,4.0651,3.9963,3.9553,3.9388,3.9388,3.914,3.8661,3.8482,3.8123,3.7629,3.7015,3.6477,3.6043,3.5863,3.5684,3.5549,3.5699,3.5669,3.5519,3.5489,3.5537,3.5539,3.5539,3.5587,3.5619,3.5651,3.5701,3.5767,3.5799,3.5911,3.604,3.5597,3.5462,3.5584,3.4926,3.4603,3.4691,3.3871,3.3398,3.3262,3.2444,3.1536,3.0828,3.132,3.1366,3.0735,3.1305,3.1366,3.0751,3.1136,3.1089,3.0448,3.0402,3.0258,2.993,2.9588,2.921,2.892,2.87,2.8541,2.8444,2.8724,2.8826,2.8702,2.869,2.8768,2.8885,2.8425,2.8308,2.8429,2.8201,2.8103,2.8293,2.822,2.8063,2.8005,2.8063,2.8014,2.782,2.7221,2.6512,2.5659,2.4689,2.4046,2.4024,2.3988,2.3946,2.3975,2.3559,2.3188,2.3451,2.2855,2.204,2.1427,2.0949,2.0582,2.032,2.0287,2.0287,2.0287,2.0287,2.0287,2.0287,2.0287,2.0287,2.0287,2.0287,2.0287,2.0287,2.0287,2.0287,2.0287,2.0287,2.0287,4.2521,4.1309,4.0621,4.0008,3.9403,3.9418,3.9388,3.9334,3.8721,3.8392,3.8307,3.7659,3.7345,3.7255,3.678,3.6118,3.5684,3.6193,3.6148,3.5654,3.5594,3.5617,3.5688,3.5688,3.5844,3.6091,3.6154,3.6063,3.6034,3.6035,3.602,3.6022,3.604,3.615,3.6059,3.5676,3.543,3.5368,3.4754,3.4137,3.3521,3.3352,3.2613,3.1582,3.1982,3.1982,3.1505,3.1982,3.2056,3.1366,3.1439,3.1136,3.0525,3.0432,3.0151,2.9595,2.9844,2.9563,2.8713,2.8889,2.8905,2.8468,2.8479,2.8584,2.9073,2.8701,2.8876,3.0084,2.8878,2.8293,2.858,2.8266,2.8186,2.8527,2.8131,2.794,2.798,2.7915,2.7905,2.7864,2.7328,2.6463,2.5257,2.4545,2.4258,2.4218,2.4213,2.4271,2.4158,2.3707,2.3631,2.3759,2.3194,2.2105,2.1504,2.1165,2.0888,2.0518,2.0287,2.0287,2.0287,2.0287,2.0287,2.0287,2.0287,2.0287,2.0287,2.0287,2.0287,2.0287,2.0287,2.0287,2.0287,2.0287,2.0287,4.2566,4.1339,4.0666,4.0487,4.0621,4.0232,4.0053,4.0023,3.9798,3.9496,3.9103,3.8402,3.8172,3.8413,3.8065,3.7462,3.6776,3.6985,3.6941,3.6731,3.6847,3.6932,3.6984,3.7101,3.72,3.7281,3.7281,3.7103,3.6772,3.6789,3.6607,3.6335,3.6242,3.6274,3.6337,3.6214,3.6122,3.6045,3.5491,3.5013,3.4629,3.386,3.3136,3.2705,3.2475,3.229,3.2028,3.2275,3.2275,3.2044,3.2013,3.1921,3.1674,3.1259,3.0751,3.0151,3.0196,2.9912,2.9246,2.9577,2.9472,2.8574,2.9177,2.929,2.8901,2.8796,2.9057,2.9241,2.8607,2.8181,2.8445,2.8263,2.8103,2.8268,2.8113,2.793,2.7995,2.7955,2.7945,2.7754,2.7031,2.6153,2.575,2.5199,2.474,2.4346,2.4597,2.4643,2.4326,2.4004,2.3979,2.4158,2.3902,2.3348,2.2705,2.1766,2.1103,2.0595,2.0287,2.0302,2.0302,2.0287,2.0287,2.0287,2.0287,2.0287,2.0287,2.0287,2.0287,2.0287,2.0287,2.0287,2.0287,2.0287,2.0287,4.2701,4.1713,4.122,4.1197,4.1347,4.0905,4.0748,4.0823,4.0823,4.0573,4.0034,3.948,3.9285,3.9338,3.9385,3.9008,3.8251,3.8026,3.7801,3.759,3.7741,3.7809,3.7925,3.8059,3.8144,3.8162,3.8177,3.7936,3.7621,3.7408,3.7118,3.6846,3.6474,3.6352,3.6492,3.6492,3.6492,3.6384,3.6061,3.5722,3.5429,3.4568,3.3952,3.375,3.329,3.2964,3.2736,3.2521,3.2521,3.2659,3.2521,3.2398,3.2351,3.1951,3.1428,3.0828,3.072,3.0443,2.9879,3.014,3.0012,2.9171,2.9817,3.0002,2.9427,2.9521,2.971,2.9774,2.9153,2.8813,2.9124,2.8793,2.8272,2.8124,2.7965,2.797,2.798,2.7955,2.7905,2.7769,2.7022,2.6471,2.6305,2.5878,2.5461,2.4934,2.5164,2.4995,2.4673,2.4336,2.425,2.4281,2.4266,2.3871,2.3317,2.2501,2.1935,2.1427,2.0441,2.0379,2.0379,2.0349,2.0287,2.0287,2.0287,2.0287,2.0287,2.0287,2.0287,2.0287,2.0287,2.0287,2.0287,2.0287,2.0287,4.2955,4.244,4.2381,4.2006,4.1617,4.1482,4.1535,4.1671,4.1723,4.1472,4.1028,4.0916,4.0552,4.0304,4.0699,4.0603,3.9996,3.9408,3.8751,3.8171,3.8177,3.826,3.8409,3.8488,3.8573,3.8657,3.8567,3.8536,3.846,3.7891,3.7569,3.74,3.6799,3.6538,3.6538,3.6538,3.6492,3.6476,3.6415,3.6168,3.5584,3.5414,3.5059,3.4582,3.4397,3.4073,3.3475,3.2859,3.2829,3.3198,3.2782,3.2428,3.2413,3.2336,3.2059,3.152,3.1424,3.1074,3.0525,3.0494,3.0571,3.0233,3.0417,3.0725,3.0782,3.0602,3.0791,3.1424,3.0807,3.0315,3.0598,2.9798,2.8738,2.7991,2.7916,2.7905,2.7955,2.789,2.784,2.7839,2.7312,2.7081,2.6993,2.6604,2.619,2.6043,2.5819,2.5512,2.5275,2.4814,2.4404,2.4343,2.4312,2.4071,2.3671,2.3255,2.2855,2.2347,2.1165,2.0518,2.0564,2.0549,2.0333,2.0287,2.0287,2.0287,2.0287,2.0287,2.0287,2.0287,2.0287,2.0287,2.0287,2.0287,2.0287,4.317,4.2985,4.259,4.2521,4.2641,4.2406,4.2341,4.2417,4.2531,4.2325,4.194,4.1754,4.1721,4.178,4.1897,4.1866,4.173,4.1071,4.0292,3.9504,3.9516,3.9555,3.9639,3.9757,3.9825,3.9859,3.9859,3.9613,3.9121,3.8523,3.8185,3.8,3.7046,3.6769,3.7107,3.6753,3.6492,3.6492,3.6492,3.6368,3.6138,3.5707,3.5398,3.5183,3.4767,3.4582,3.4768,3.4212,3.3706,3.346,3.3198,3.2875,3.2505,3.2398,3.229,3.2121,3.209,3.1782,3.1259,3.1474,3.132,3.0817,3.1228,3.1305,3.0889,3.0982,3.1217,3.1551,3.0735,3.0437,3.0769,3.0354,2.9494,2.8713,2.8218,2.7985,2.798,2.7955,2.7905,2.7805,2.7355,2.7024,2.6964,2.6777,2.6757,2.6466,2.6504,2.6549,2.6019,2.5373,2.5004,2.4989,2.465,2.4235,2.3963,2.3671,2.3348,2.284,2.1843,2.098,2.0919,2.0718,2.0503,2.0333,2.0318,2.0318,2.0318,2.0287,2.0287,2.0287,2.0287,2.0287,2.0287,2.0349,2.0441,4.3424,4.3559,4.3,4.3105,4.3599,4.3133,4.3018,4.3173,4.3327,4.3137,4.2812,4.2646,4.2597,4.2621,4.2723,4.2692,4.2586,4.214,4.1495,4.0639,4.0373,4.0381,4.0366,4.047,4.0489,4.0489,4.0489,4.029,3.9844,3.9231,3.8877,3.8662,3.7523,3.7061,3.74,3.6861,3.6492,3.6492,3.6492,3.6492,3.6415,3.6076,3.5861,3.5829,3.5475,3.5491,3.5814,3.546,3.4891,3.4214,3.3737,3.309,3.2475,3.2398,3.2398,3.2398,3.2367,3.2182,3.1844,3.2105,3.209,3.149,3.1936,3.2074,3.1397,3.1582,3.1724,3.1581,3.1309,3.1133,3.1314,3.0968,3.0322,2.9509,2.887,2.8358,2.8111,2.798,2.7955,2.7854,2.7591,2.7355,2.7319,2.7328,2.7359,2.707,2.7141,2.7295,2.6619,2.5887,2.5558,2.5189,2.4681,2.4389,2.4266,2.4056,2.3794,2.3209,2.2505,2.1843,2.1504,2.1103,2.0795,2.0564,2.0487,2.0503,2.0505,2.0349,2.0287,2.0287,2.0349,2.0287,2.0333,2.0672,2.078,4.3808,4.4242,4.3663,4.3823,4.4257,4.3673,4.3666,4.3979,4.3981,4.3831,4.3673,4.3596,4.3325,4.3002,4.3417,4.3371,4.2817,4.2694,4.2371,4.1689,4.1135,4.0782,4.0705,4.0566,4.0489,4.0489,4.0489,4.0474,4.0351,3.9705,3.9539,3.9382,3.8262,3.7554,3.7538,3.6907,3.6584,3.6507,3.6492,3.6492,3.6492,3.6461,3.6445,3.643,3.6368,3.6353,3.6353,3.6307,3.6091,3.5383,3.4106,3.3136,3.2598,3.2428,3.2398,3.2398,3.2398,3.2444,3.2413,3.2504,3.2496,3.2487,3.2449,3.2425,3.2271,3.2198,3.2259,3.2275,3.2244,3.2219,3.2075,3.1762,3.1087,3.0348,2.945,2.8727,2.8145,2.8075,2.8212,2.8181,2.8065,2.804,2.801,2.8005,2.7981,2.7933,2.7644,2.7494,2.7249,2.6595,2.5687,2.5241,2.4943,2.4527,2.4389,2.4235,2.401,2.3748,2.3117,2.2609,2.2043,2.1581,2.1319,2.1057,2.0749,2.0734,2.0659,2.0518,2.0487,2.0582,2.0535,2.0364,2.0641,2.1134,2.1273,4.4885,4.5005,4.4855,4.4885,4.4971,4.4494,4.4408,4.464,4.4349,4.4251,4.431,4.4363,4.4209,4.4079,4.424,4.4255,4.391,4.3516,4.33,4.3023,4.2371,4.1771,4.1263,4.077,4.0505,4.0489,4.0489,4.0489,4.0443,3.9844,3.9767,4.0166,3.8923,3.8246,3.8138,3.7569,3.6969,3.6553,3.6507,3.6507,3.6492,3.6492,3.6492,3.6492,3.6492,3.6492,3.6492,3.6492,3.6184,3.546,3.4152,3.3352,3.3136,3.2736,3.2505,3.2459,3.2475,3.2644,3.302,3.3045,3.3104,3.3388,3.3092,3.2803,3.2425,3.2398,3.2398,3.2398,3.2398,3.2398,3.2339,3.217,3.1751,3.1032,2.97,2.8646,2.852,2.8734,2.9,2.8895,2.8885,2.8773,2.8632,2.8353,2.8168,2.8155,2.8106,2.801,2.7757,2.7334,2.6457,2.5949,2.5542,2.4912,2.4497,2.4358,2.4235,2.4179,2.3779,2.3348,2.2717,2.2101,2.1993,2.1886,2.1381,2.1227,2.0965,2.0749,2.0811,2.0936,2.1026,2.1073,2.155,2.1993,2.1963,4.5635,4.5845,4.5672,4.5703,4.5725,4.4991,4.476,4.4853,4.4432,4.4358,4.4534,4.461,4.461,4.461,4.461,4.461,4.4517,4.3901,4.3608,4.3485,4.2848,4.2217,4.1632,4.1109,4.0797,4.0489,4.0505,4.0489,4.0443,4.0074,4.0166,4.0228,3.9428,3.8939,3.8893,3.8262,3.7584,3.7061,3.6907,3.6815,3.6522,3.6492,3.6492,3.6492,3.6492,3.6492,3.6492,3.6492,3.6168,3.5506,3.4706,3.4152,3.3844,3.3534,3.3136,3.2906,3.3075,3.3396,3.3332,3.3317,3.3517,3.3758,3.3522,3.3107,3.2815,3.2749,3.2711,3.2425,3.2425,3.2398,3.2336,3.2151,3.1797,3.1243,2.9843,2.8956,2.9212,2.9325,2.9515,2.9572,2.947,2.9245,2.9119,2.8589,2.8293,2.821,2.8259,2.8262,2.8233,2.7765,2.7272,2.6703,2.6127,2.5542,2.5066,2.4866,2.4543,2.4456,2.4317,2.3917,2.3317,2.2686,2.2532,2.2378,2.1997,2.1673,2.1504,2.1334,2.1273,2.1411,2.1596,2.1858,2.2243,2.2782,2.2732,4.6192,4.6701,4.6334,4.6425,4.652,4.5464,4.5142,4.5029,4.4506,4.4388,4.4549,4.461,4.461,4.461,4.461,4.461,4.4594,4.4071,4.384,4.3639,4.3217,4.2648,4.2063,4.1801,4.134,4.0843,4.0674,4.0643,4.0597,4.052,4.0536,4.0382,3.9859,3.9551,3.9321,3.8829,3.8246,3.7554,3.7384,3.7061,3.6615,3.6492,3.6492,3.6492,3.6492,3.6492,3.6492,3.6461,3.6215,3.566,3.5568,3.5121,3.4643,3.4566,3.4181,3.3721,3.3952,3.412,3.3781,3.3803,3.3933,3.4337,3.3994,3.3504,3.3651,3.3651,3.3282,3.2629,3.2492,3.252,3.2364,3.1929,3.1782,3.1482,3.0381,3.0043,3.0279,2.9956,2.974,3.0356,2.994,2.9597,2.9209,2.8777,2.8302,2.8275,2.8299,2.8348,2.8326,2.8027,2.7642,2.7242,2.6718,2.6188,2.5773,2.5419,2.5019,2.4727,2.465,2.4327,2.3825,2.3317,2.3071,2.2825,2.2644,2.249,2.2351,2.2182,2.1904,2.213,2.2446,2.2516,2.2663,2.3344,2.3604,4.7292,4.7398,4.7516,4.7615,4.7558,4.686,4.63,4.5913,4.5273,4.4818,4.4664,4.461,4.461,4.461,4.461,4.461,4.4656,4.4471,4.4409,4.4341,4.4264,4.3756,4.3125,4.2663,4.2032,4.1617,4.1925,4.1535,4.0905,4.1063,4.1047,4.0489,4.0382,4.0013,3.9536,3.9367,3.8677,3.7738,3.7554,3.7277,3.6753,3.6569,3.6538,3.6507,3.6492,3.6492,3.6492,3.6492,3.6415,3.6184,3.5829,3.5491,3.5275,3.4859,3.452,3.4397,3.4443,3.469,3.4918,3.4869,3.5152,3.5566,3.5449,3.5532,3.5451,3.4926,3.4184,3.3345,3.3039,3.2868,3.2583,3.2732,3.2522,3.2079,3.1409,3.112,3.1597,3.0905,3.054,3.0936,3.0997,3.0766,3.0191,2.9475,2.8978,2.8532,2.8363,2.8387,2.8319,2.822,2.7997,2.7712,2.7558,2.7047,2.638,2.5964,2.5487,2.5244,2.5178,2.4983,2.4457,2.4188,2.4051,2.375,2.3409,2.324,2.3009,2.2624,2.2305,2.2802,2.3301,2.3406,2.3627,2.415,2.4304,4.7837,4.7949,4.816,4.8202,4.8027,4.7417,4.6829,4.6238,4.5565,4.5025,4.4679,4.461,4.461,4.461,4.4625,4.471,4.5003,4.5072,4.4902,4.4633,4.4579,4.4409,4.4148,4.3633,4.3079,4.2309,4.2386,4.1955,4.1463,4.1586,4.154,4.0628,4.0812,4.0612,4.0059,3.992,3.9428,3.8723,3.8431,3.8123,3.7538,3.7107,3.6738,3.6553,3.6492,3.6492,3.6492,3.6492,3.6492,3.6399,3.6138,3.5938,3.5953,3.5645,3.5337,3.5044,3.5321,3.5352,3.5504,3.545,3.5645,3.6264,3.6231,3.5924,3.5796,3.5502,3.4959,3.3976,3.3563,3.3433,3.3188,3.3039,3.3013,3.2716,3.1944,3.1732,3.2059,3.1505,3.1136,3.1582,3.1563,3.1243,3.0766,3.0089,2.951,2.9002,2.8495,2.8488,2.8517,2.8432,2.837,2.8217,2.8264,2.7883,2.7103,2.6472,2.5918,2.5818,2.5887,2.568,2.5336,2.521,2.5165,2.4592,2.3945,2.3768,2.3486,2.3102,2.3002,2.35,2.3915,2.4222,2.44,2.4471,2.4543,4.8133,4.8328,4.8537,4.848,4.8263,4.7609,4.6977,4.6318,4.566,4.5048,4.4664,4.461,4.461,4.461,4.461,4.4926,4.5264,4.5495,4.5187,4.4618,4.461,4.4564,4.4471,4.4332,4.3994,4.2987,4.3048,4.2586,4.214,4.2294,4.2155,4.1186,4.1278,4.1201,4.0751,4.0474,4.0028,3.94,3.9244,3.8985,3.8415,3.7861,3.7353,3.6846,3.6538,3.6507,3.6492,3.6492,3.6492,3.6492,3.6492,3.6492,3.6492,3.6461,3.6369,3.5782,3.6183,3.6199,3.6027,3.5872,3.5975,3.6485,3.6605,3.6247,3.592,3.6001,3.5498,3.4685,3.4111,3.4061,3.3986,3.364,3.3339,3.2998,3.2178,3.1913,3.2148,3.194,3.2037,3.209,3.1951,3.1643,3.1151,3.0551,2.9986,2.9479,2.8972,2.8651,2.8711,2.8753,2.8745,2.8646,2.8669,2.8653,2.7952,2.7634,2.6983,2.6701,2.6734,2.6614,2.6397,2.6341,2.609,2.4965,2.4373,2.4309,2.4182,2.3907,2.3965,2.4307,2.4502,2.4745,2.476,2.4699,2.4934,4.826,4.8328,4.8537,4.8578,4.8444,4.7814,4.7179,4.6502,4.5802,4.5203,4.4618,4.461,4.461,4.461,4.461,4.4718,4.4964,4.5264,4.5218,4.4702,4.461,4.461,4.461,4.4594,4.4425,4.4394,4.4148,4.3494,4.2817,4.3002,4.2863,4.2279,4.1832,4.1509,4.1247,4.0847,4.0197,3.9721,3.9598,3.9259,3.8816,3.8369,3.7908,3.7246,3.6769,3.6522,3.6523,3.6492,3.6492,3.6492,3.6492,3.6523,3.6554,3.6554,3.6692,3.6857,3.6767,3.6737,3.6808,3.6583,3.699,3.7646,3.7818,3.7722,3.7453,3.7379,3.6575,3.5328,3.4675,3.4529,3.4036,3.3944,3.3649,3.3213,3.2721,3.228,3.2442,3.2598,3.258,3.2524,3.2292,3.2028,3.1536,3.1105,3.0658,3.0217,2.9833,2.9433,2.9308,2.9317,2.929,2.9155,2.9012,2.9004,2.8854,2.8698,2.8367,2.7923,2.7849,2.7911,2.772,2.7571,2.7026,2.6176,2.5486,2.5238,2.5045,2.4792,2.4845,2.5128,2.5203,2.5256,2.5531,2.5822,2.6031,4.837,4.8453,4.8578,4.8604,4.8496,4.7896,4.7219,4.6542,4.588,4.5203,4.4764,4.461,4.461,4.461,4.461,4.461,4.4779,4.528,4.5172,4.4733,4.461,4.461,4.461,4.461,4.461,4.4594,4.4548,4.4148,4.33,4.3824,4.3562,4.2709,4.2248,4.1971,4.1509,4.0878,4.0382,4.0028,3.9967,3.9844,3.9398,3.897,3.8185,3.7538,3.6907,3.6538,3.6554,3.6877,3.6785,3.6647,3.68,3.6922,3.6983,3.7013,3.7104,3.7358,3.7401,3.7342,3.7401,3.7104,3.7266,3.7709,3.8096,3.821,3.8152,3.8043,3.7559,3.6306,3.5341,3.5131,3.4864,3.4593,3.4292,3.3953,3.3329,3.2868,3.2868,3.3082,3.3002,3.2857,3.2817,3.2531,3.2028,3.1628,3.1274,3.0951,3.0632,3.032,3.0022,2.9979,2.9968,2.9738,2.9573,2.9419,2.9374,2.9291,2.9249,2.8956,2.8909,2.8967,2.8993,2.881,2.8423,2.7769,2.7149,2.6688,2.6133,2.5947,2.5957,2.5971,2.6197,2.6415,2.6708,2.6964,2.7131,4.8453,4.8604,4.8604,4.8604,4.8496,4.7881,4.7311,4.6726,4.6095,4.5449,4.4902,4.4926,4.488,4.4764,4.4872,4.4964,4.4726,4.5387,4.5357,4.4733,4.461,4.461,4.461,4.461,4.461,4.461,4.4594,4.4332,4.3994,4.4271,4.3879,4.3279,4.2894,4.2386,4.1786,4.1001,4.0674,4.0659,4.052,4.0505,4.0197,3.937,3.8477,3.7861,3.7138,3.6738,3.6831,3.7106,3.7119,3.7013,3.7208,3.7578,3.7608,3.7695,3.7738,3.7825,3.8124,3.7998,3.7767,3.7608,3.7621,3.7825,3.821,3.8357,3.8332,3.8428,3.8193,3.7161,3.6343,3.5875,3.5721,3.5168,3.4849,3.4577,3.3928,3.3339,3.3355,3.3433,3.3433,3.3355,3.3339,3.3066,3.2623,3.2121,3.1767,3.1705,3.1413,3.1264,3.0996,3.0856,3.0757,3.041,3.0158,2.9897,2.9773,2.9636,2.9643,2.9566,2.976,2.9992,3.0046,3.002,2.9532,2.9046,2.9056,2.8573,2.7842,2.711,2.7058,2.711,2.7318,2.7478,2.7562,2.7866,2.8135,4.8578,4.8604,4.8604,4.8604,4.8512,4.7896,4.7573,4.7373,4.6696,4.6095,4.5526,4.5972,4.5618,4.5064,4.5788,4.5557,4.5264,4.5634,4.568,4.4856,4.4718,4.4687,4.461,4.461,4.461,4.461,4.461,4.4579,4.4425,4.4533,4.4548,4.4048,4.3156,4.2556,4.2402,4.1366,4.0858,4.1263,4.0843,4.052,4.0366,3.9705,3.9323,3.8893,3.8046,3.7355,3.7343,3.7492,3.7387,3.7431,3.7867,3.8181,3.8294,3.8712,3.892,3.8838,3.8601,3.8266,3.821,3.821,3.821,3.8294,3.8712,3.8923,3.8891,3.8443,3.8142,3.7889,3.7094,3.6603,3.6331,3.5539,3.502,3.4673,3.4317,3.3969,3.3894,3.3919,3.3919,3.3894,3.3919,3.3624,3.325,3.2737,3.2275,3.2244,3.2191,3.2058,3.1987,3.186,3.1548,3.1187,3.1165,3.0962,3.038,3.0215,3.0192,3.0174,3.0348,3.0727,3.072,3.062,3.054,3.0181,3.0281,2.9978,2.9022,2.8415,2.8204,2.824,2.849,2.8418,2.8288,2.8665,2.9171,4.8604,4.8604,4.8604,4.8604,4.8512,4.7881,4.7619,4.7465,4.688,4.6434,4.6234,4.6434,4.6049,4.548,4.5849,4.5695,4.5357,4.5834,4.5772,4.5264,4.5095,4.4926,4.4671,4.461,4.461,4.461,4.461,4.461,4.461,4.461,4.461,4.4456,4.3679,4.3171,4.3017,4.2171,4.1986,4.1909,4.1509,4.094,4.0428,3.9874,3.9505,3.9444,3.8215,3.7838,3.7919,3.7943,3.7899,3.801,3.849,3.8794,3.8865,3.9055,3.9286,3.9696,3.9497,3.9189,3.8892,3.8821,3.8794,3.8821,3.9082,3.9268,3.9345,3.8971,3.8514,3.8514,3.7855,3.7337,3.6931,3.6283,3.5769,3.5292,3.4787,3.4577,3.4456,3.4456,3.4456,3.4456,3.4431,3.4194,3.3953,3.3659,3.3166,3.2833,3.2817,3.2762,3.2813,3.2892,3.2498,3.2004,3.2083,3.2186,3.1425,3.095,3.095,3.0862,3.0481,3.0827,3.1055,3.1038,3.0954,3.0903,3.0825,3.044,2.9909,2.9702,2.947,2.954,2.9666,2.9562,2.9491,2.9911,3.0367,4.8604,4.8604,4.8604,4.8604,4.8573,4.8065,4.7865,4.7804,4.7373,4.7034,4.6819,4.6696,4.6388,4.6203,4.6172,4.6157,4.5865,4.6003,4.5818,4.5711,4.5511,4.5172,4.4795,4.461,4.461,4.461,4.461,4.461,4.461,4.461,4.461,4.4564,4.387,4.3593,4.3408,4.2833,4.2417,4.2125,4.1986,4.1401,4.0582,4.0028,3.9828,3.94,3.8666,3.8058,3.8525,3.8341,3.8266,3.8629,3.9109,3.9418,3.9444,3.9497,3.967,3.9944,3.9901,3.9799,3.9523,3.9418,3.9339,3.9286,3.9418,3.9662,3.9885,3.9554,3.9283,3.9283,3.8599,3.7939,3.7432,3.7094,3.6455,3.5879,3.5375,3.5175,3.4951,3.4833,3.4857,3.4951,3.4904,3.4857,3.4673,3.4577,3.4169,3.3547,3.3391,3.3407,3.3551,3.3745,3.3458,3.2972,3.3106,3.3166,3.2462,3.1913,3.1836,3.1644,3.1262,3.1148,3.1533,3.1546,3.1447,3.1376,3.1343,3.0999,3.053,3.0627,3.0744,3.0553,3.0462,3.0703,3.0867,3.1151,3.1207,4.8604,4.8604,4.8604,4.8604,4.8604,4.8558,4.8527,4.845,4.8419,4.8035,4.7496,4.7004,4.705,4.7234,4.7188,4.6973,4.6557,4.7173,4.6619,4.5957,4.5541,4.5272,4.4841,4.461,4.461,4.461,4.461,4.461,4.461,4.461,4.461,4.4517,4.4055,4.3747,4.3547,4.3233,4.2617,4.234,4.2263,4.1771,4.092,4.0428,4.0351,4.0108,3.9234,3.8693,3.9251,3.8859,3.8788,3.9241,3.9651,3.9893,3.9876,3.9876,3.9995,4.0045,4.0113,4.002,3.9918,3.9867,3.9713,3.9566,3.9644,3.9944,4.0054,4.0096,3.9994,3.9859,3.9225,3.8886,3.8328,3.777,3.7144,3.6608,3.6144,3.5761,3.5465,3.5078,3.5102,3.5316,3.5339,3.5224,3.5224,3.5085,3.4697,3.4078,3.3953,3.3944,3.4219,3.4393,3.4273,3.4063,3.418,3.4001,3.3419,3.3077,3.29,3.2731,3.2446,3.2264,3.2286,3.2175,3.209,3.185,3.1782,3.1478,3.1275,3.1325,3.1335,3.1216,3.1171,3.1114,3.1196,3.1357,3.1376,4.8604,4.8604,4.8604,4.8604,4.8604,4.8604,4.8604,4.8604,4.8604,4.8496,4.8189,4.7958,4.7742,4.7665,4.7619,4.7496,4.7265,4.745,4.6973,4.6511,4.6126,4.5557,4.4987,4.4656,4.461,4.4587,4.4625,4.461,4.461,4.461,4.461,4.4486,4.4286,4.4302,4.4086,4.3855,4.3371,4.2848,4.2602,4.2078,4.137,4.0674,4.0489,4.0382,4.0197,4.0055,4.0443,3.9903,3.9996,4.0153,4.018,4.0147,4.0113,4.0113,4.0113,4.0113,4.0113,4.0113,4.0113,4.0113,3.9969,3.9918,3.9969,4.0113,4.0113,4.0113,4.0113,3.9977,3.9842,3.9495,3.887,3.8464,3.8082,3.7466,3.6941,3.6468,3.6139,3.578,3.5599,3.5942,3.5695,3.5447,3.5509,3.5554,3.5108,3.4649,3.4553,3.4529,3.4785,3.4958,3.4816,3.4745,3.4818,3.4513,3.3892,3.3863,3.3897,3.3744,3.3558,3.3305,3.3085,3.3,3.2865,3.2577,3.2408,3.2391,3.2273,3.2053,3.1816,3.1512,3.1309,3.119,3.1326,3.1579,3.1749,4.8604,4.8604,4.8604,4.8604,4.8604,4.8604,4.8604,4.8604,4.8604,4.8604,4.8604,4.8589,4.8373,4.7989,4.7927,4.7942,4.7912,4.7896,4.7481,4.705,4.6557,4.6034,4.5395,4.4887,4.4733,4.4756,4.4618,4.461,4.461,4.461,4.461,4.461,4.4594,4.4579,4.4579,4.4564,4.4286,4.3624,4.3177,4.2571,4.1909,4.1494,4.0981,4.0932,4.0781,4.0865,4.1073,4.0783,4.075,4.0791,4.073,4.0367,4.0197,4.0113,4.0113,4.0113,4.0113,4.0113,4.0113,4.0113,4.0113,4.002,4.0045,4.0113,4.0113,4.0113,4.0113,4.0096,4.0062,3.9876,3.9259,3.9005,3.87,3.8125,3.7533,3.7094,3.7026,3.675,3.6572,3.6563,3.6371,3.6382,3.6287,3.6366,3.575,3.5308,3.5108,3.5062,3.5131,3.526,3.5262,3.5228,3.5239,3.4805,3.4315,3.4501,3.467,3.4653,3.4455,3.4117,3.3914,3.3812,3.3525,3.3102,3.3051,3.3322,3.3169,3.278,3.2239,3.1718,3.163,3.1647,3.1833,3.2138,3.2476,4.8604,4.8604,4.8604,4.8604,4.8604,4.8604,4.8604,4.8604,4.8604,4.8604,4.8604,4.8604,4.8589,4.8496,4.8435,4.8419,4.8419,4.845,4.8112,4.7465,4.7004,4.6619,4.6065,4.5495,4.5241,4.5349,4.5172,4.4926,4.4702,4.4756,4.471,4.461,4.461,4.461,4.461,4.461,4.4255,4.3732,4.3624,4.3131,4.2824,4.2551,4.2153,4.2037,4.1889,4.1996,4.1977,4.1745,4.1626,4.1555,4.1221,4.0764,4.0341,4.0163,4.0113,4.0113,4.0113,4.0113,4.0113,4.0113,4.0113,4.0113,4.0113,4.0113,4.0113,4.0113,4.0113,4.0113,4.0096,4.0096,3.9791,3.9503,3.9157,3.8836,3.8261,3.7855,3.7787,3.7499,3.7263,3.7144,3.7493,3.7746,3.7516,3.7195,3.6518,3.6044,3.5712,3.5594,3.556,3.5498,3.5481,3.5464,3.5464,3.5295,3.4991,3.5278,3.5447,3.5464,3.5261,3.4861,3.4641,3.4539,3.4167,3.366,3.3778,3.4117,3.3812,3.3406,3.2916,3.2476,3.2344,3.2361,3.251,3.2763,3.3169,4.8604,4.8604,4.8604,4.8604,4.8604,4.8604,4.8604,4.8604,4.8604,4.8604,4.8604,4.8604,4.8604,4.8604,4.8604,4.8604,4.8604,4.8589,4.825,4.765,4.7327,4.6973,4.6542,4.6219,4.6003,4.6142,4.5926,4.5541,4.5264,4.5249,4.4964,4.4748,4.4641,4.461,4.461,4.461,4.4456,4.4225,4.3923,4.3675,4.3861,4.3643,4.3441,4.3586,4.3541,4.3449,4.3303,4.292,4.2616,4.2334,4.1948,4.117,4.0713,4.0502,4.013,4.0113,4.0113,4.0113,4.0113,4.0113,4.0113,4.0113,4.0113,4.0113,4.0113,4.0113,4.0113,4.0113,4.0113,4.0113,3.9977,3.991,3.9706,3.9605,3.914,3.8751,3.8497,3.8041,3.7696,3.7662,3.7882,3.799,3.7889,3.7855,3.7313,3.6755,3.6417,3.5955,3.5825,3.5656,3.5583,3.5566,3.5566,3.5583,3.565,3.5971,3.6022,3.5938,3.5735,3.538,3.5245,3.525,3.5064,3.4709,3.4793,3.4861,3.4573,3.4252,3.3744,3.3372,3.3288,3.3119,3.3136,3.3508,3.402,4.8604,4.8604,4.8604,4.8604,4.8604,4.8604,4.8604,4.8604,4.8604,4.8604,4.8604,4.8604,4.8604,4.8604,4.8604,4.8604,4.8604,4.8589,4.8527,4.7927,4.7665,4.7527,4.7296,4.6865,4.668,4.6788,4.665,4.6296,4.5942,4.5926,4.5588,4.5118,4.4733,4.4625,4.461,4.461,4.4746,4.4651,4.4483,4.4533,4.4887,4.497,4.4673,4.4899,4.4947,4.4856,4.4557,4.416,4.3646,4.3189,4.2574,4.1677,4.1255,4.0798,4.035,4.0214,4.0113,4.0113,4.0113,4.0113,4.0113,4.0113,4.0113,4.0113,4.0113,4.0113,4.0113,4.0113,4.0113,4.0113,4.0113,4.0113,4.0045,3.991,3.9774,3.9368,3.9225,3.8768,3.8667,3.8582,3.8531,3.8481,3.8311,3.8261,3.8108,3.7584,3.7077,3.6705,3.6343,3.6225,3.6191,3.6208,3.6309,3.6495,3.6597,3.6681,3.6648,3.6428,3.6276,3.614,3.6028,3.6051,3.5893,3.5667,3.5414,3.5261,3.5346,3.5076,3.4607,3.4366,3.4349,3.4129,3.3863,3.4201,3.4726,4.8604,4.8604,4.8604,4.8604,4.8604,4.8604,4.8604,4.8604,4.8604,4.8604,4.8604,4.8604,4.8604,4.8604,4.8604,4.8604,4.8604,4.8604,4.8558,4.8404,4.8019,4.8096,4.7927,4.7434,4.7373,4.7311,4.7188,4.6988,4.665,4.6434,4.608,4.5526,4.5026,4.4855,4.4823,4.4843,4.5104,4.5174,4.5054,4.5439,4.6143,4.6169,4.6044,4.6127,4.5968,4.5538,4.5133,4.4656,4.4142,4.3707,4.3318,4.2439,4.1762,4.1238,4.073,4.0307,4.0113,4.0113,4.0113,4.0113,4.0113,4.0113,4.0113,4.0113,4.0113,4.0113,4.0113,4.0113,4.0113,4.0113,4.0113,4.0113,4.0096,4.0062,4.0062,3.996,3.996,3.9842,3.9842,3.9791,3.9757,3.9605,3.9165,3.8988,3.8836,3.8616,3.8244,3.8176,3.7804,3.7364,3.733,3.7307,3.7425,3.7628,3.7645,3.7432,3.7307,3.7104,3.7273,3.7205,3.7043,3.6711,3.6366,3.6062,3.5718,3.5583,3.5532,3.5532,3.5464,3.5312,3.5059,3.4923,3.459,3.489,3.5351,4.8604,4.8604,4.8604,4.8604,4.8604,4.8604,4.8604,4.8604,4.8604,4.8604,4.8604,4.8604,4.8604,4.8604,4.8604,4.8604,4.8604,4.8604,4.8604,4.8466,4.8343,4.8466,4.8373,4.8158,4.8158,4.8142,4.8019,4.765,4.7265,4.6957,4.6296,4.5642,4.5357,4.5285,4.535,4.5384,4.5551,4.5697,4.5551,4.6343,4.7137,4.7238,4.7375,4.7514,4.6765,4.6294,4.5976,4.5002,4.4451,4.4248,4.3673,4.2878,4.2151,4.1491,4.0865,4.0231,4.0113,4.0113,4.0113,4.0113,4.0113,4.013,4.0113,4.0113,4.0113,4.0113,4.0113,4.0113,4.0113,4.0113,4.0113,4.0113,4.0113,4.0113,4.0113,4.0113,4.0113,4.0113,4.0113,4.0113,4.0113,4.0028,3.9656,3.9639,3.952,3.9469,3.9377,3.9292,3.9089,3.8582,3.8328,3.8328,3.8294,3.8396,3.8125,3.7872,3.7855,3.7814,3.8075,3.8091,3.7702,3.7297,3.684,3.6434,3.6079,3.5802,3.56,3.5667,3.5876,3.5667,3.5447,3.5397,3.5397,3.5549,3.5633,4.8604,4.8604,4.8604,4.8604,4.8604,4.8604,4.8604,4.8604,4.8604,4.8604,4.8604,4.8604,4.8604,4.8604,4.8604,4.8604,4.8604,4.8604,4.8604,4.8604,4.8604,4.8589,4.8604,4.8604,4.8543,4.8604,4.8573,4.8296,4.7881,4.7357,4.6726,4.6449,4.6003,4.587,4.5945,4.585,4.6076,4.6272,4.6553,4.7103,4.7671,4.8113,4.8386,4.8577,4.7564,4.6972,4.6599,4.5359,4.4716,4.4598,4.3995,4.3521,4.2777,4.2049,4.1322,4.0798,4.0976,4.0637,4.035,4.0443,4.035,4.0197,4.0113,4.0113,4.0113,4.0113,4.0113,4.0113,4.0113,4.0113,4.0113,4.0113,4.0113,4.0113,4.0113,4.0113,4.0113,4.0113,4.0113,4.0113,4.0113,4.0113,4.0062,4.0113,4.0079,3.9926,3.9842,3.9808,3.969,3.9419,3.9208,3.9157,3.9073,3.9022,3.8717,3.8565,3.8717,3.8836,3.9022,3.892,3.843,3.8007,3.7618,3.7026,3.6417,3.6248,3.618,3.6129,3.6197,3.6062,3.6062,3.6062,3.5926,3.5723,3.5718,4.8604,4.8604,4.8604,4.8604,4.8604,4.8604,4.8604,4.8604,4.8604,4.8604,4.8604,4.8604,4.8604,4.8604,4.8604,4.8604,4.8604,4.8604,4.8604,4.8604,4.8604,4.8604,4.8604,4.8604,4.8604,4.8604,4.8589,4.8543,4.8378,4.7958,4.7558,4.7481,4.6357,4.6057,4.6407,4.6155,4.6534,4.7539,4.7555,4.7787,4.8471,4.8565,4.8306,4.8742,4.7902,4.6887,4.6464,4.5664,4.4649,4.4632,4.4479,4.4096,4.3352,4.2591,4.188,4.166,4.1745,4.1407,4.0916,4.0899,4.0696,4.0468,4.0146,4.0113,4.0113,4.0113,4.0113,4.0113,4.0113,4.0113,4.0113,4.0113,4.0113,4.0113,4.0113,4.0113,4.0113,4.0113,4.0113,4.0113,4.0113,4.0113,4.0113,4.0113,4.0113,4.0113,4.0113,4.0113,4.0045,3.991,3.9842,3.9791,3.9673,3.9554,3.9622,3.9554,3.9757,3.991,3.9876,3.9706,3.914,3.8768,3.843,3.7702,3.6992,3.6965,3.6897,3.6857,3.684,3.6806,3.6789,3.6812,3.6586,3.6282,3.6282,4.8604,4.8604,4.8604,4.8604,4.8604,4.8604,4.8604,4.8604,4.8604,4.8604,4.8604,4.8604,4.8604,4.8604,4.8604,4.8604,4.8604,4.8604,4.8604,4.8604,4.8604,4.8604,4.8604,4.8604,4.8604,4.8604,4.8604,4.8604,4.8527,4.8296,4.7829,4.7028,4.643,4.6649,4.7023,4.6711,4.7221,4.845,4.8498,4.8687,4.9407,4.9277,4.9027,4.9103,4.8477,4.7361,4.6786,4.6024,4.519,4.475,4.4632,4.4147,4.3426,4.2726,4.2286,4.2117,4.2286,4.21,4.1762,4.1457,4.1204,4.0832,4.0493,4.0231,4.0113,4.0113,4.0113,4.0113,4.0113,4.0113,4.0113,4.0113,4.0113,4.0113,4.0113,4.0113,4.0113,4.0113,4.0113,4.0113,4.0113,4.0113,4.0113,4.0113,4.0113,4.0113,4.0113,4.0113,4.0113,4.0028,4.0011,3.9977,4.0011,3.9994,4.0113,4.0113,4.0113,4.0113,4.0011,3.9893,3.9791,3.9225,3.8633,3.8159,3.7652,3.7635,3.7635,3.7635,3.7618,3.7584,3.7466,3.7438,3.7405,3.7144,3.7195,4.8604,4.8604,4.8604,4.8604,4.8604,4.8604,4.8604,4.8604,4.8604,4.8604,4.8604,4.8604,4.8604,4.8604,4.8604,4.8604,4.8604,4.8604,4.8604,4.8604,4.8604,4.8604,4.8604,4.8604,4.8604,4.8604,4.8604,4.8604,4.863,4.8637,4.8166,4.7801,4.7613,4.7421,4.782,4.7814,4.7803,4.8892,4.9001,4.939,4.9898,4.9509,4.9171,4.9154,4.8595,4.7699,4.7276,4.6583,4.5838,4.5145,4.4852,4.4513,4.4012,4.3656,4.32,4.3047,4.3031,4.3041,4.2523,4.2168,4.1813,4.1356,4.0916,4.0663,4.013,4.0113,4.0113,4.0113,4.0113,4.0113,4.0113,4.0113,4.0113,4.0113,4.0113,4.0113,4.0113,4.0113,4.0113,4.0113,4.0113,4.0113,4.0113,4.0113,4.0113,4.0113,4.0113,4.0113,4.0113,4.0113,4.0113,4.0113,4.0113,4.0113,4.0113,4.0113,4.0113,4.0113,4.0113,4.0045,3.9893,3.9343,3.8802,3.8548,3.8396,3.8396,3.8396,3.8396,3.8396,3.8362,3.8193,3.8024,3.8007,3.8041,3.821,4.8604,4.8604,4.8604,4.8604,4.8604,4.8604,4.8604,4.8604,4.8604,4.8604,4.8604,4.8604,4.8604,4.8604,4.8604,4.8604,4.8604,4.8604,4.8604,4.8604,4.8604,4.8604,4.8604,4.8604,4.8604,4.8687,4.8795,4.8687,4.862,4.8829,4.9143,4.9439,4.9074,4.8518,4.9122,4.8812,4.8289,4.8813,4.9117,4.9371,4.9438,4.939,4.9238,4.89,4.8494,4.8041,4.7733,4.7175,4.6447,4.5703,4.4976,4.4649,4.4496,4.4293,4.4045,4.3809,4.3961,4.3639,4.3149,4.3031,4.2489,4.1931,4.1491,4.0967,4.0434,4.018,4.018,4.013,4.013,4.0113,4.0113,4.0113,4.0113,4.0113,4.0113,4.0113,4.0113,4.0113,4.0113,4.0113,4.0113,4.0113,4.0113,4.0113,4.0113,4.0113,4.0113,4.0113,4.0113,4.0113,4.0113,4.0113,4.0113,4.0113,4.0113,4.0113,4.0113,4.0113,4.0113,4.0113,4.0011,3.9656,3.9385,3.9266,3.9148,3.9106,3.9123,3.914,3.914,3.9073,3.8734,3.8548,3.8877,3.8962,3.9249,4.8604,4.8604,4.8604,4.8604,4.8604,4.8604,4.8604,4.8604,4.8604,4.8604,4.8604,4.8604,4.8604,4.8604,4.8604,4.8604,4.8604,4.8604,4.8604,4.8604,4.8604,4.8604,4.8646,4.8769,4.8646,4.8821,4.9116,4.9172,4.9103,4.9402,4.9457,4.9285,4.9178,4.8903,4.8944,4.8644,4.8532,4.8956,4.9107,4.9308,4.9168,4.9252,4.9475,4.9323,4.9187,4.8545,4.7919,4.7192,4.6464,4.5737,4.5106,4.4767,4.4598,4.4598,4.4412,4.4327,4.4513,4.4344,4.3927,4.3684,4.3108,4.2804,4.2262,4.145,4.0908,4.0434,4.0367,4.0231,4.0197,4.0113,4.0113,4.0113,4.0113,4.0113,4.0113,4.0113,4.0113,4.0113,4.0113,4.0113,4.0113,4.0113,4.0113,4.0113,4.0113,4.0113,4.0113,4.0113,4.0113,4.0113,4.0113,4.0113,4.0113,4.0113,4.0113,4.0113,4.0113,4.0113,4.0113,4.0113,4.0096,4.0079,3.9876,3.969,3.974,3.9791,3.9825,3.9648,3.974,3.9622,3.9174,3.9039,3.9436,3.9622,3.969]}]]